[[{"header":{"parameterUnit":"m.s-1","parameterCategory":1,"la1":30.6,"la2":29.2853,"lo1":-89.7004,"lo2":-87.6739,"dy":0.0162,"dx":0.0183,"nx":112,"ny":82,"refTime":"2023-10-11T12:00:00:Z","depth":0,"parameterNumber":2,"parameterNumberName":"U-component_of_WINDS"},"data":[0.0,0.0,0.0,0.0,0.0,0.0,0.0,0.0,0.0,0.0,0.0,0.0,0.0,0.0,0.0,0.0,0.0,0.0,0.0,0.0,0.0,0.0,0.0,0.0,0.0,0.0,0.0,0.0,0.0,0.0,0.0,0.0,0.0,0.0,0.0,0.0,0.0,0.0,0.0,0.0,0.0,0.0,0.0,0.0,0.0,0.0,0.0,0.0,0.0,0.0,0.0,0.0,0.0,0.0,0.0,0.0,0.0,0.0,0.0,0.0,0.0,0.0,0.0,0.0,0.0,0.0,0.0,0.0,0.0,0.0,0.0,0.0,0.0,0.0,0.0,0.0,0.0,0.0,0.0,0.0,0.0,0.0,0.0,0.0,0.0,0.0,0.0,0.0,0.0,0.0,3.8654,3.8417,3.9267,3.9622,3.917,3.8291,3.696,3.5102,0.0,0.0,0.0,0.0,0.0,0.0,0.0,0.0,0.0,0.0,0.0,0.0,0.0,0.0,0.0,0.0,0.0,0.0,0.0,0.0,0.0,0.0,0.0,0.0,0.0,0.0,0.0,0.0,0.0,0.0,0.0,0.0,0.0,0.0,0.0,0.0,0.0,0.0,0.0,0.0,0.0,0.0,0.0,0.0,0.0,0.0,0.0,0.0,0.0,0.0,0.0,0.0,0.0,0.0,0.0,0.0,0.0,0.0,0.0,0.0,0.0,0.0,0.0,0.0,0.0,0.0,0.0,0.0,0.0,0.0,0.0,0.0,0.0,0.0,0.0,0.0,0.0,0.0,0.0,0.0,0.0,0.0,0.0,0.0,0.0,0.0,0.0,0.0,0.0,0.0,0.0,0.0,0.0,0.0,0.0,0.0,0.0,0.0,0.0,0.0,0.0,0.0,0.0,0.0,3.9551,4.0058,4.0278,4.035,4.0275,3.804,3.6483,3.6179,0.0,0.0,0.0,0.0,0.0,0.0,0.0,0.0,0.0,0.0,0.0,0.0,0.0,0.0,0.0,0.0,0.0,0.0,0.0,0.0,0.0,0.0,0.0,0.0,0.0,0.0,0.0,0.0,0.0,0.0,0.0,0.0,0.0,0.0,0.0,0.0,0.0,0.0,0.0,0.0,0.0,0.0,0.0,0.0,0.0,0.0,0.0,0.0,0.0,0.0,0.0,0.0,0.0,0.0,0.0,0.0,0.0,0.0,0.0,0.0,0.0,0.0,0.0,0.0,0.0,0.0,0.0,0.0,0.0,0.0,0.0,0.0,0.0,0.0,0.0,0.0,0.0,0.0,0.0,0.0,0.0,0.0,0.0,0.0,0.0,0.0,0.0,0.0,0.0,0.0,0.0,0.0,0.0,0.0,0.0,0.0,0.0,0.0,0.0,0.0,0.0,0.0,0.0,3.8767,3.9269,4.0782,4.0701,4.0526,4.0526,3.799,3.643,3.6405,3.4525,0.0,0.0,0.0,0.0,0.0,0.0,0.0,0.0,0.0,0.0,0.0,0.0,0.0,0.0,0.0,0.0,0.0,0.0,0.0,0.0,0.0,0.0,0.0,0.0,0.0,0.0,0.0,0.0,0.0,0.0,0.0,0.0,0.0,0.0,0.0,0.0,0.0,0.0,0.0,0.0,0.0,0.0,0.0,0.0,0.0,0.0,0.0,0.0,0.0,0.0,0.0,0.0,0.0,0.0,0.0,0.0,0.0,0.0,0.0,0.0,0.0,0.0,0.0,0.0,0.0,0.0,0.0,0.0,0.0,0.0,0.0,0.0,0.0,0.0,0.0,0.0,0.0,0.0,0.0,0.0,0.0,0.0,0.0,0.0,0.0,0.0,0.0,0.0,0.0,0.0,0.0,0.0,0.0,0.0,0.0,0.0,0.0,0.0,0.0,0.0,0.0,0.0,3.9042,3.9677,4.1329,4.1053,4.0651,4.0526,3.7839,3.6279,3.6405,3.4218,0.0,0.0,0.0,0.0,0.0,0.0,0.0,0.0,0.0,0.0,0.0,0.0,0.0,0.0,0.0,0.0,0.0,0.0,0.0,0.0,0.0,0.0,0.0,0.0,0.0,0.0,0.0,0.0,0.0,0.0,0.0,0.0,0.0,0.0,0.0,0.0,0.0,0.0,0.0,0.0,0.0,0.0,0.0,0.0,0.0,0.0,0.0,0.0,0.0,0.0,0.0,0.0,0.0,0.0,0.0,0.0,0.0,0.0,0.0,0.0,0.0,0.0,0.0,0.0,0.0,0.0,0.0,0.0,0.0,0.0,0.0,0.0,0.0,0.0,0.0,0.0,0.0,0.0,0.0,0.0,0.0,0.0,0.0,0.0,0.0,0.0,0.0,0.0,0.0,0.0,0.0,0.0,0.0,0.0,0.0,0.0,0.0,0.0,0.0,0.0,0.0,0.0,4.0955,4.2009,4.212,4.1605,4.1025,4.0551,3.7439,3.5805,3.638,3.3796,0.0,0.0,0.0,0.0,0.0,0.0,0.0,0.0,0.0,0.0,0.0,0.0,0.0,0.0,0.0,0.0,0.0,0.0,0.0,0.0,0.0,0.0,0.0,0.0,0.0,0.0,0.0,0.0,0.0,0.0,0.0,0.0,0.0,0.0,0.0,0.0,0.0,0.0,0.0,0.0,0.0,0.0,0.0,0.0,0.0,0.0,0.0,0.0,0.0,0.0,0.0,0.0,0.0,0.0,0.0,0.0,0.0,0.0,0.0,0.0,0.0,0.0,0.0,0.0,0.0,0.0,0.0,0.0,0.0,0.0,0.0,0.0,0.0,0.0,0.0,0.0,0.0,0.0,0.0,0.0,0.0,0.0,0.0,0.0,0.0,0.0,0.0,0.0,0.0,0.0,0.0,0.0,0.0,0.0,0.0,0.0,0.0,0.0,0.0,0.0,0.0,0.0,4.0313,4.1432,4.2141,4.0843,3.9612,3.879,3.5318,3.3553,3.4532,0.0,0.0,0.0,0.0,0.0,0.0,0.0,0.0,0.0,0.0,0.0,0.0,0.0,0.0,0.0,0.0,0.0,0.0,0.0,0.0,0.0,0.0,0.0,0.0,0.0,0.0,0.0,0.0,0.0,0.0,0.0,0.0,0.0,0.0,0.0,0.0,0.0,0.0,0.0,0.0,0.0,0.0,0.0,0.0,0.0,0.0,0.0,0.0,0.0,0.0,0.0,0.0,0.0,0.0,0.0,0.0,0.0,0.0,0.0,0.0,0.0,0.0,0.0,0.0,0.0,0.0,0.0,0.0,0.0,0.0,0.0,0.0,0.0,0.0,0.0,0.0,0.0,0.0,0.0,0.0,0.0,0.0,0.0,0.0,0.0,0.0,0.0,0.0,0.0,0.0,0.0,0.0,0.0,0.0,0.0,0.0,0.0,0.0,0.0,0.0,0.0,0.0,3.8441,3.9873,4.0893,4.1156,3.9927,3.8421,3.665,3.3421,3.1828,3.2648,0.0,0.0,0.0,0.0,0.0,0.0,0.0,0.0,0.0,0.0,0.0,0.0,0.0,0.0,0.0,0.0,0.0,0.0,0.0,0.0,0.0,0.0,0.0,0.0,0.0,0.0,0.0,0.0,0.0,0.0,0.0,0.0,0.0,0.0,0.0,0.0,0.0,0.0,0.0,0.0,0.0,0.0,0.0,0.0,0.0,0.0,0.0,0.0,0.0,0.0,0.0,0.0,0.0,0.0,0.0,0.0,0.0,0.0,0.0,0.0,0.0,0.0,0.0,0.0,0.0,0.0,0.0,0.0,0.0,0.0,0.0,0.0,0.0,0.0,0.0,0.0,0.0,0.0,0.0,0.0,0.0,0.0,0.0,0.0,0.0,0.0,0.0,0.0,0.0,0.0,0.0,0.0,0.0,0.0,0.0,0.0,0.0,0.0,0.0,0.0,0.0,0.0,3.784,3.9896,4.0686,3.9244,3.9078,3.7653,3.4261,3.2045,3.0874,0.0,0.0,0.0,0.0,0.0,0.0,0.0,0.0,0.0,0.0,0.0,0.0,0.0,0.0,0.0,0.0,0.0,0.0,0.0,0.0,0.0,0.0,0.0,0.0,0.0,0.0,0.0,0.0,0.0,0.0,0.0,0.0,0.0,0.0,0.0,0.0,0.0,0.0,0.0,0.0,0.0,0.0,0.0,0.0,0.0,0.0,0.0,0.0,0.0,0.0,0.0,0.0,0.0,0.0,0.0,0.0,0.0,0.0,0.0,0.0,0.0,0.0,0.0,0.0,0.0,0.0,0.0,0.0,0.0,0.0,0.0,0.0,0.0,0.0,0.0,0.0,0.0,0.0,0.0,0.0,0.0,0.0,0.0,0.0,0.0,0.0,0.0,0.0,0.0,0.0,0.0,0.0,0.0,0.0,0.0,0.0,0.0,0.0,0.0,0.0,0.0,0.0,0.0,3.7328,3.7557,3.7567,3.7439,3.5948,3.4185,3.2114,2.9379,2.809,2.8973,0.0,0.0,0.0,0.0,0.0,0.0,0.0,0.0,0.0,0.0,0.0,0.0,0.0,0.0,0.0,0.0,0.0,0.0,0.0,0.0,0.0,0.0,0.0,0.0,0.0,0.0,0.0,0.0,0.0,0.0,0.0,0.0,0.0,0.0,0.0,0.0,0.0,0.0,0.0,0.0,0.0,0.0,0.0,0.0,0.0,0.0,0.0,0.0,0.0,0.0,0.0,0.0,0.0,0.0,0.0,0.0,0.0,0.0,0.0,0.0,0.0,0.0,0.0,0.0,0.0,0.0,0.0,0.0,0.0,0.0,0.0,0.0,0.0,0.0,0.0,0.0,0.0,0.0,0.0,0.0,0.0,0.0,0.0,0.0,0.0,0.0,0.0,0.0,0.0,0.0,0.0,0.0,0.0,0.0,0.0,0.0,0.0,0.0,0.0,0.0,0.0,0.0,3.6275,3.6231,3.5971,3.5632,3.4183,3.2392,3.0204,2.7759,2.6557,2.6934,0.0,0.0,0.0,0.0,0.0,0.0,0.0,0.0,0.0,0.0,0.0,0.0,0.0,0.0,0.0,0.0,0.0,0.0,0.0,0.0,0.0,0.0,0.0,0.0,0.0,0.0,0.0,0.0,0.0,0.0,0.0,0.0,0.0,0.0,0.0,0.0,0.0,0.0,0.0,0.0,0.0,0.0,0.0,0.0,0.0,0.0,0.0,0.0,0.0,0.0,0.0,0.0,0.0,0.0,0.0,0.0,0.0,0.0,0.0,0.0,0.0,0.0,0.0,0.0,0.0,0.0,0.0,0.0,0.0,0.0,0.0,0.0,0.0,0.0,0.0,0.0,0.0,0.0,0.0,0.0,0.0,0.0,0.0,0.0,0.0,0.0,0.0,0.0,0.0,0.0,0.0,0.0,0.0,0.0,0.0,0.0,0.0,0.0,0.0,0.0,0.0,0.0,3.4984,3.5327,3.5159,3.387,3.3251,3.1705,2.8598,2.709,2.5977,2.5165,0.0,0.0,0.0,0.0,0.0,0.0,0.0,0.0,0.0,0.0,0.0,0.0,0.0,0.0,0.0,0.0,0.0,0.0,0.0,0.0,0.0,0.0,0.0,0.0,0.0,0.0,0.0,0.0,0.0,0.0,0.0,0.0,0.0,0.0,0.0,0.0,0.0,0.0,0.0,0.0,0.0,0.0,0.0,0.0,0.0,0.0,0.0,0.0,0.0,0.0,0.0,0.0,0.0,0.0,0.0,0.0,0.0,0.0,0.0,0.0,3.9726,3.9371,0.0,0.0,0.0,0.0,0.0,0.0,0.0,0.0,0.0,0.0,0.0,0.0,0.0,0.0,0.0,0.0,0.0,0.0,0.0,0.0,0.0,0.0,0.0,0.0,0.0,0.0,0.0,0.0,0.0,0.0,0.0,0.0,0.0,0.0,0.0,0.0,0.0,0.0,0.0,0.0,3.4845,3.3198,3.2131,3.2535,3.1281,2.9802,2.8432,2.6797,2.5644,2.5145,2.4355,0.0,0.0,0.0,0.0,0.0,0.0,0.0,0.0,0.0,0.0,0.0,0.0,0.0,0.0,0.0,0.0,0.0,0.0,0.0,0.0,0.0,0.0,0.0,0.0,0.0,0.0,0.0,0.0,0.0,0.0,0.0,0.0,0.0,0.0,0.0,0.0,0.0,0.0,0.0,0.0,0.0,0.0,0.0,0.0,0.0,0.0,0.0,0.0,0.0,0.0,0.0,0.0,0.0,0.0,0.0,0.0,0.0,0.0,0.0,4.1329,4.0425,0.0,0.0,0.0,0.0,0.0,0.0,0.0,0.0,0.0,0.0,0.0,0.0,0.0,0.0,0.0,0.0,0.0,0.0,0.0,0.0,0.0,0.0,0.0,0.0,0.0,0.0,0.0,0.0,0.0,0.0,0.0,0.0,0.0,0.0,0.0,0.0,0.0,0.0,0.0,0.0,3.2987,3.1742,3.1055,3.1504,3.0371,2.9316,2.8652,2.7031,2.5762,2.5165,2.4453,0.0,0.0,0.0,0.0,0.0,0.0,0.0,0.0,0.0,0.0,0.0,0.0,0.0,0.0,0.0,0.0,0.0,0.0,0.0,0.0,0.0,0.0,0.0,0.0,0.0,0.0,0.0,0.0,0.0,0.0,0.0,0.0,0.0,0.0,0.0,0.0,0.0,0.0,0.0,0.0,0.0,0.0,0.0,0.0,0.0,0.0,0.0,0.0,0.0,0.0,0.0,0.0,0.0,4.745,4.7401,4.6753,4.6928,4.6778,4.625,4.4551,4.2735,4.1103,4.148,0.0,0.0,0.0,0.0,0.0,0.0,0.0,0.0,0.0,0.0,0.0,0.0,0.0,0.0,0.0,0.0,0.0,0.0,0.0,0.0,0.0,0.0,3.2455,3.228,3.1244,3.0757,3.2391,0.0,0.0,0.0,0.0,0.0,0.0,0.0,0.0,0.0,0.0,0.0,3.1114,3.0926,3.0918,3.0996,3.0215,2.9473,2.8965,2.75,2.6211,2.5234,2.4785,2.4336,0.0,0.0,0.0,0.0,0.0,0.0,0.0,0.0,0.0,0.0,0.0,0.0,0.0,0.0,0.0,0.0,0.0,0.0,0.0,0.0,0.0,0.0,0.0,0.0,0.0,0.0,0.0,0.0,0.0,0.0,0.0,0.0,4.1869,4.1948,0.0,0.0,0.0,0.0,0.0,0.0,0.0,0.0,0.0,0.0,0.0,0.0,0.0,4.6737,4.7788,4.7794,4.7506,4.7046,4.856,4.9027,4.8485,4.9439,4.9841,4.9766,4.9992,0.0,4.3338,4.2936,0.0,0.0,0.0,0.0,0.0,0.0,0.0,0.0,0.0,0.0,0.0,0.0,0.0,0.0,0.0,0.0,0.0,0.0,0.0,0.0,0.0,0.0,3.2758,3.1819,3.1172,3.076,3.0628,3.099,3.1138,3.0651,3.0893,3.1356,0.0,0.0,0.0,0.0,0.0,0.0,3.1554,3.1127,3.1035,3.1406,3.0644,2.9785,2.8984,2.8047,2.6973,2.5674,2.5234,2.4785,2.4355,2.4394,0.0,0.0,0.0,0.0,0.0,0.0,0.0,0.0,0.0,0.0,0.0,0.0,0.0,0.0,0.0,0.0,0.0,0.0,0.0,0.0,0.0,0.0,0.0,0.0,0.0,0.0,0.0,0.0,0.0,4.1508,4.2518,4.1849,4.3028,4.2914,0.0,0.0,0.0,0.0,0.0,0.0,0.0,0.0,0.0,4.9289,4.8599,4.8927,5.0384,5.0857,5.1523,5.2251,5.3281,5.3808,5.3909,5.4411,5.4612,5.4612,5.4536,5.2084,4.7953,4.6425,4.492,4.3564,0.0,0.0,0.0,0.0,4.0057,3.9312,3.8607,3.841,3.8121,3.6289,0.0,0.0,0.0,0.0,0.0,0.0,0.0,3.5098,3.4798,3.4205,3.3476,3.2721,3.2441,3.2129,3.1445,3.1124,3.0676,2.9709,2.9659,3.016,3.1146,3.1105,0.0,0.0,0.0,3.1733,3.1257,3.1247,3.1309,3.1504,3.0723,2.9941,2.9336,2.8516,2.7578,2.6523,2.582,2.5254,2.4805,2.3879,2.3871,0.0,0.0,0.0,0.0,0.0,0.0,0.0,0.0,0.0,0.0,0.0,0.0,0.0,0.0,0.0,0.0,0.0,0.0,0.0,0.0,0.0,0.0,0.0,0.0,0.0,0.0,0.0,0.0,4.2359,4.3037,4.2082,4.3815,4.4091,0.0,0.0,0.0,0.0,0.0,0.0,4.828,4.9412,5.0602,5.1871,5.1499,5.2026,5.3582,5.4511,5.5616,5.6872,5.7549,5.8102,5.8529,5.8017,5.7762,5.7613,5.6532,5.4247,5.1142,4.8901,4.6732,4.467,4.343,4.215,4.0964,4.0926,4.0205,3.9166,3.8906,3.8777,3.8263,3.6123,3.5108,3.4511,3.3605,0.0,0.0,0.0,0.0,3.5026,3.56,3.5056,3.4355,3.4141,3.4004,3.3711,3.2969,3.2226,3.1191,2.9434,2.9004,2.9233,3.0294,3.0146,0.0,3.099,3.1532,3.1649,3.0956,3.125,3.1523,3.1523,3.084,3.0195,2.9766,2.9141,2.8359,2.7402,2.6365,2.5641,2.5273,2.3698,2.3436,2.4699,0.0,0.0,0.0,0.0,0.0,0.0,0.0,0.0,0.0,0.0,0.0,0.0,0.0,0.0,0.0,0.0,0.0,0.0,0.0,0.0,0.0,0.0,0.0,0.0,0.0,0.0,0.0,0.0,0.0,4.374,4.6552,0.0,0.0,0.0,0.0,4.6803,4.792,4.9341,5.1028,5.2093,5.3451,5.5131,5.5591,5.6445,5.76,5.8177,5.8504,5.8604,5.9659,6.0161,6.0133,5.8459,5.7438,5.6824,5.4522,5.2652,5.0972,4.9081,4.6123,4.266,4.1152,4.0533,4.0469,4.0469,4.0691,4.076,3.8904,3.8587,3.8719,3.7132,3.6034,3.5191,3.4309,3.4118,0.0,0.0,3.4471,3.4936,3.5731,3.5673,3.543,3.5801,3.5586,3.5156,3.4668,3.4219,3.3047,3.0098,2.9199,2.8926,2.8961,0.0,2.9153,2.9603,3.0407,3.0976,3.0898,3.125,3.1523,3.1523,3.1113,3.0664,3.0195,3.0137,2.957,2.8301,2.6894,2.5956,2.5664,2.4258,2.4141,2.5615,2.5158,0.0,0.0,0.0,0.0,0.0,0.0,0.0,0.0,0.0,0.0,0.0,0.0,0.0,0.0,0.0,0.0,0.0,0.0,0.0,0.0,0.0,0.0,0.0,0.0,0.0,0.0,0.0,0.0,4.8586,5.1222,0.0,4.9389,4.969,5.0268,5.082,5.2201,5.3758,5.544,5.6897,5.8278,5.9608,5.9834,6.0487,6.1617,6.1818,6.1315,6.0082,6.0445,5.975,5.8197,5.7584,5.7056,5.6576,5.5378,5.34,5.1036,4.9707,4.8124,4.6514,4.5218,4.4083,4.3094,4.3022,4.221,4.1142,4.0692,4.0144,3.9313,3.7634,3.6504,3.5742,3.543,3.5527,3.5801,3.6074,3.6445,3.6914,3.7519,3.7344,3.707,3.7207,3.6719,3.6094,3.5644,3.5215,3.4434,3.2793,3.168,3.0918,3.0644,3.0371,3.043,3.1133,3.1563,3.1816,3.209,3.2012,3.1934,3.1934,3.1309,3.0703,3.0234,2.907,2.8032,2.7344,2.5163,2.3857,2.3755,2.1794,2.1362,2.2649,2.1487,2.1243,0.0,0.0,0.0,0.0,0.0,0.0,0.0,0.0,0.0,0.0,0.0,0.0,0.0,0.0,0.0,0.0,0.0,0.0,0.0,0.0,0.0,0.0,0.0,0.0,0.0,4.9364,5.2026,5.2603,5.5089,5.5993,5.3959,5.411,5.4637,5.5365,5.6796,5.8353,6.0035,6.1316,6.2421,6.335,6.34,6.3311,6.3249,6.3249,6.2079,5.9802,5.9802,5.8805,5.7045,5.6326,5.5791,5.5484,5.4306,5.2503,5.0292,4.9609,4.896,4.8294,4.6902,4.5728,4.4739,4.4659,4.362,4.2266,4.2246,4.1387,4.0137,3.8984,3.793,3.709,3.709,3.7305,3.7578,3.7871,3.8262,3.8652,3.8945,3.8809,3.8516,3.8223,3.7715,3.7148,3.6582,3.6113,3.5471,3.4051,3.3289,3.2676,3.2226,3.1934,3.1992,3.2695,3.2695,3.2754,3.3164,3.2734,3.2324,3.2187,3.1523,3.0859,3.0254,2.9145,2.8125,2.7308,2.4795,2.3348,2.3268,2.0903,2.0184,2.1327,2.0137,1.9763,2.0321,0.0,0.0,0.0,0.0,0.0,0.0,0.0,0.0,0.0,0.0,0.0,0.0,0.0,0.0,0.0,0.0,0.0,0.0,0.0,0.0,0.0,0.0,0.0,4.9012,5.2277,5.4963,5.5541,5.8052,5.9106,5.7499,5.8353,5.9433,6.0487,6.1592,6.2898,6.4505,6.5107,6.566,6.6212,6.6151,6.4863,6.2475,6.2297,6.0763,5.7823,5.7801,5.7534,5.6887,5.4598,5.3516,5.3403,5.1175,4.9707,4.8906,4.8906,4.8418,4.75,4.5781,4.5098,4.5098,4.5098,4.4824,4.4336,4.3418,4.2285,4.125,4.123,4.0332,3.9277,3.9277,3.9277,3.9258,3.9258,3.959,3.9941,3.9941,3.9922,3.9707,3.8848,3.8633,3.8379,3.7519,3.7012,3.6008,3.3714,3.365,3.3895,3.3408,3.333,3.3467,3.4023,3.3667,0.0,3.4023,3.334,3.2656,3.2185,3.1737,3.1073,3.016,3.0451,2.9966,2.8203,2.5834,2.4408,2.4128,2.1724,2.0918,2.196,2.1618,2.0617,1.9006,0.0,0.0,0.0,0.0,0.0,0.0,0.0,0.0,0.0,0.0,0.0,0.0,0.0,0.0,0.0,0.0,0.0,0.0,0.0,0.0,0.0,5.2302,5.4361,5.2603,5.6043,5.9257,6.0613,6.3224,6.4731,6.4279,6.4881,6.5434,6.5735,6.6388,6.699,6.7467,6.7995,6.8547,6.91,6.7097,6.5762,6.5089,6.3075,6.0638,5.7698,5.7357,5.6278,5.4329,5.3141,5.2295,5.1976,5.1029,5.0312,4.9824,4.9824,4.9668,4.9297,4.7558,4.6875,4.6875,4.6875,4.6406,4.5566,4.4062,4.3301,4.291,4.2285,4.1621,4.1094,4.1094,4.0879,4.0625,4.0625,4.0723,4.082,4.082,4.0586,4.0293,4.0039,3.9746,3.9297,3.8418,3.6982,3.5412,3.4144,3.2878,3.2053,3.229,3.1172,3.1207,3.41,3.3284,3.274,3.3953,3.3594,3.2681,3.1183,3.0431,2.9426,2.7964,2.6244,2.4854,2.391,2.1586,2.0065,1.974,1.889,1.8624,1.9138,1.928,1.9205,0.0,0.0,0.0,0.0,0.0,0.0,0.0,0.0,0.0,0.0,0.0,0.0,0.0,0.0,0.0,0.0,0.0,0.0,0.0,0.0,0.0,0.0,5.7022,5.9483,5.9583,6.1416,6.3375,6.5057,6.689,6.8095,6.8321,6.8648,6.8924,6.915,6.8403,6.8009,6.8254,6.7381,6.7673,6.9504,6.6745,6.5367,6.5585,6.2591,5.9597,5.6701,5.6253,5.5065,5.334,5.2851,5.2383,5.1933,5.1523,5.1094,5.0683,5.0508,5.0332,5.0058,0.0,0.0,0.0,0.0,4.7305,4.6387,4.5195,4.4433,4.3887,4.3183,4.2676,4.2266,4.1914,4.1621,4.1406,4.123,4.1172,4.1172,4.1172,4.0976,4.0742,4.0566,3.9606,3.8633,3.7952,3.5969,3.3954,3.2684,3.1232,0.0,3.0524,3.0128,3.0542,3.2701,3.1886,3.1602,3.3208,3.2255,3.1229,3.0725,2.9372,2.7963,2.6536,2.5067,0.0,0.0,0.0,1.9417,1.8424,1.8237,0.0,0.0,0.0,1.8525,1.7812,1.7774,0.0,0.0,1.6364,1.608,0.0,0.0,0.0,0.0,0.0,0.0,0.0,0.0,0.0,0.0,0.0,0.0,0.0,0.0,0.0,0.0,6.1768,6.4756,6.7919,6.7543,6.7467,6.8823,6.9551,7.0104,7.0581,7.0405,7.0538,7.0919,6.8395,6.7025,6.7472,6.5187,0.0,0.0,0.0,6.4221,6.4446,6.1272,5.833,5.5586,5.5176,5.4531,5.373,5.3633,5.332,5.2832,5.2402,5.1973,5.1543,5.1113,5.0664,5.0195,4.9707,4.9531,4.9414,4.8535,4.7734,4.7012,4.6543,0.0,0.0,4.4082,4.3613,4.3066,4.2266,4.1973,4.1855,4.1367,4.125,4.123,4.1191,4.0997,4.0744,4.0279,3.858,3.6873,3.6403,3.4314,3.1981,3.0317,2.9182,2.8538,2.8538,2.9449,3.0324,3.071,3.0026,3.0143,3.1888,3.0105,2.9094,3.0165,2.8246,0.0,2.5542,2.5274,2.4596,2.3351,2.2157,2.0743,1.9042,1.8998,1.8911,1.8726,1.9016,1.8202,1.6136,1.6444,1.5855,1.4482,1.5692,1.5632,0.0,0.0,0.0,0.0,0.0,0.0,0.0,0.0,0.0,0.0,0.0,0.0,0.0,0.0,0.0,6.2923,6.6438,6.9501,7.1485,7.1987,7.1937,7.1334,7.2163,7.2841,7.2941,7.1296,7.027,7.0366,6.7731,6.6237,6.635,6.5839,6.6064,6.7074,6.439,6.3038,6.3123,6.0253,5.8338,5.7363,5.6933,0.0,5.5937,5.5234,5.4512,5.375,5.3301,5.2871,5.2422,5.2012,5.1387,5.0605,4.9824,4.9531,4.9414,4.8535,4.8105,4.7851,4.707,4.6426,4.5859,4.543,4.4766,4.4043,4.3496,4.3105,0.0,4.1894,4.168,4.1601,4.125,3.9864,3.853,3.8456,3.6737,3.5097,3.4568,3.2842,3.1128,3.0375,2.8617,2.7198,2.7198,2.6799,2.7476,3.0397,2.9309,2.8644,2.9726,2.9425,2.8513,2.7092,2.6285,2.5145,2.3574,2.2767,2.209,2.1296,2.0382,1.9679,1.9336,1.9506,1.8965,1.7577,1.7829,1.7074,1.5248,1.5483,1.4823,1.3423,1.3258,1.326,0.0,0.0,0.0,0.0,0.0,0.0,0.0,0.0,0.0,0.0,0.0,5.5767,5.8252,0.0,6.4982,6.7744,6.8881,7.0076,7.1932,7.1206,7.0668,7.1054,7.159,7.1514,7.0602,6.9445,6.896,6.9237,6.6608,6.4934,6.4718,6.3356,6.3355,6.5043,6.2333,6.1591,6.3049,6.0007,5.8418,5.8203,5.7734,5.7305,5.6875,5.623,5.5586,5.4941,5.4297,5.3769,5.3301,5.2441,5.1836,5.1348,5.0508,4.9902,4.9473,4.9023,4.8594,4.8144,4.7715,4.7285,4.6875,4.6445,4.5879,4.5195,4.4316,4.375,4.3164,4.2109,4.112,4.0302,3.97,3.804,3.6425,3.6316,3.4651,3.2975,3.272,3.1071,2.949,2.9252,2.8181,2.7215,2.7068,2.656,2.6644,2.7954,2.7213,2.6953,2.8208,2.7412,2.6683,2.6504,2.5244,2.4038,2.3169,2.2285,2.1577,2.1212,2.0561,1.9802,1.8875,1.9,1.8185,1.6357,1.6593,1.588,1.4143,1.4517,1.3804,1.2142,1.209,1.2112,0.0,0.0,0.0,0.0,0.0,0.0,0.0,5.2226,5.3532,5.5867,5.8453,6.1266,6.4404,6.6304,6.8362,7.141,7.0103,6.9313,7.0954,6.9183,6.8153,6.9143,6.9672,6.9268,6.7686,6.7101,6.7065,6.7375,6.4843,6.3031,6.2576,6.0436,6.0254,6.2534,6.0365,6.0345,6.2555,5.9987,5.8652,5.8652,5.832,5.791,5.7461,5.7109,5.664,5.6015,5.5176,5.4512,5.3945,5.2891,5.2305,5.2012,5.1328,5.0527,4.9746,4.959,4.9082,4.8457,4.8359,4.8047,4.7547,4.6729,4.6145,4.55,4.3795,4.3046,4.2421,4.1109,3.9685,3.8259,3.7561,3.5943,3.4356,3.4083,3.2381,3.0744,3.0744,2.9453,2.8221,2.8221,2.7896,2.7629,2.7388,2.7054,2.6547,2.5718,2.5398,2.5705,2.6852,2.5441,2.4884,2.6299,2.4664,2.3447,2.334,2.2306,2.1567,2.1293,2.0656,1.9609,1.8089,1.8023,1.7172,1.5252,1.5481,1.4702,1.2958,1.3416,1.2803,1.1301,1.1694,1.1653,4.8686,4.8686,4.9439,5.1875,5.2151,5.298,0.0,5.8478,5.9357,6.2119,6.4479,6.6764,6.91,6.9271,6.9586,7.1428,7.0367,6.9515,6.974,6.9438,6.8458,6.6084,6.7734,6.8841,6.8207,6.6299,6.4896,6.4515,6.1817,6.0152,5.9738,5.9403,5.9291,5.9607,5.9403,5.9403,5.9626,5.9344,5.9121,5.9121,5.9062,5.8828,5.8359,5.8359,5.7656,5.6465,5.5605,5.4785,5.4023,5.3867,5.3125,5.207,5.1973,5.1406,5.0566,4.9805,4.9473,4.9316,4.8926,4.8496,4.7741,4.5427,4.4379,4.3432,4.0317,3.9177,3.8657,3.7481,3.686,3.6375,3.5559,3.3842,3.213,3.1798,3.0093,2.8558,2.8558,2.8389,2.8221,2.8221,2.7896,2.7682,2.7655,2.7188,2.6613,2.5999,2.5956,2.5728,2.5391,2.5147,2.4857,2.4539,2.4286,2.3888,2.3367,2.1587,2.0343,2.0014,1.8298,1.7176,1.6967,1.6967,1.6129,1.4384,1.4401,1.3507,1.1823,1.199,1.1914,1.1762,1.1945,1.187,5.1172,5.1423,5.2226,5.4712,5.6369,5.8177,6.124,6.2672,6.4128,6.694,6.9526,7.1987,7.4197,7.3607,7.3118,7.4171,7.0886,6.8114,6.8114,6.6541,6.4728,6.3025,6.3783,6.4253,6.4137,6.3199,6.2488,6.238,6.1192,6.039,5.9922,5.9687,5.9531,5.9531,5.9297,5.918,5.918,5.918,5.918,5.918,5.918,5.9062,5.8887,5.8652,5.7949,5.6894,5.6035,5.5469,5.5078,5.4336,5.2737,5.0586,4.9978,4.8479,4.685,4.742,4.7475,4.7025,4.5129,4.4311,4.398,4.2924,4.2133,4.1271,3.964,3.8712,3.8038,3.697,3.5755,3.4626,3.3738,3.1993,3.0335,2.9845,2.907,2.8364,2.8261,2.8221,2.8221,2.8221,2.8127,2.7896,2.7722,2.7495,2.7188,2.6787,2.6279,2.5812,2.5384,2.5331,2.5237,2.4997,2.497,2.4328,2.2881,2.1733,2.0547,1.9181,1.8161,1.7061,1.5963,1.5889,1.5083,1.3237,1.3148,1.2741,1.2013,1.2155,1.2176,1.2108,1.2433,1.2467,5.2955,5.3984,5.5465,5.8001,6.0713,6.3299,6.5283,6.699,6.8924,7.1535,7.3317,7.4911,7.6913,7.5061,7.3363,7.4005,6.9905,6.6584,6.6461,6.4231,6.2246,6.1367,6.0957,6.0742,6.0742,6.0957,6.1094,6.1094,6.1094,6.0898,6.0449,6.0039,5.9805,5.9805,5.9414,5.9238,5.9355,5.9238,5.9238,5.9355,5.9238,5.918,5.918,5.8594,5.8008,5.7344,5.6484,5.5611,5.4656,5.3634,5.143,4.8455,4.7503,4.5789,4.385,4.4152,4.4435,4.4439,4.2114,4.1222,4.1043,4.0384,3.974,3.9147,3.7852,3.7117,3.637,3.5362,3.4067,3.2742,3.1859,3.0622,2.9432,2.8764,2.8604,2.8524,2.8301,2.8221,2.8221,2.8221,2.8221,2.8154,2.7856,2.7749,2.7629,2.7415,2.6774,2.6213,2.5919,2.5732,2.5394,2.4765,2.4688,2.3813,2.1614,2.0747,1.9554,1.8076,1.718,1.6078,1.471,1.471,1.4019,1.263,1.2528,1.2474,1.2474,1.2576,1.2576,1.2481,1.2166,1.201,5.3381,5.5691,5.8554,6.1843,6.4731,6.7518,7.0229,7.2163,7.3996,7.623,7.5199,7.4396,7.5987,7.1382,6.7771,6.8812,6.6673,6.4868,6.4418,6.3535,6.2695,6.1777,6.0605,5.9863,5.9863,6.0625,6.1094,6.1094,6.1094,6.0898,6.0449,6.0039,5.9805,5.9805,5.9414,5.9355,5.9805,5.9414,5.9414,5.9805,5.9355,5.918,5.914,5.8262,5.7871,5.7793,5.6933,5.4667,5.164,5.1604,4.9154,4.5431,4.5052,4.4474,4.337,4.0214,4.0441,4.2278,4.1718,4.1453,4.0754,3.8277,3.738,3.6853,3.3754,3.2595,3.2135,3.1531,3.1168,3.0727,3.0124,2.99,2.9686,2.8818,2.8604,2.8524,2.8301,2.8221,2.8221,2.8221,2.8221,2.8221,2.8221,2.7896,2.7696,2.7682,2.7428,2.7121,2.6814,2.6293,2.514,2.2989,2.2662,2.1693,1.9473,1.7476,1.636,1.6279,1.4296,1.3102,1.3109,1.3109,1.3029,1.3029,1.2942,1.2942,1.2942,1.2942,1.2942,1.2942,1.0764,0.9713,5.652,5.9583,6.3048,6.6388,6.93,7.1887,7.392,7.5678,7.6532,7.534,7.44,7.3592,7.2489,6.9159,6.7015,6.8254,6.6693,6.5234,6.4765,6.4473,6.3437,6.1133,6.0742,6.0332,5.9473,6.0156,6.0781,6.1074,6.1367,6.1426,6.1308,6.0898,6.0508,6.0215,5.9805,5.9648,5.9805,5.9414,5.9414,5.9805,5.9414,5.918,5.9048,5.6194,5.4894,5.4746,5.1883,5.0029,4.89,4.8645,4.6424,4.3223,4.2403,4.077,3.8552,3.7005,3.6777,3.7126,3.6623,3.6464,3.6134,3.5039,3.4546,3.4239,3.3175,3.2625,3.2278,3.169,3.145,3.1236,3.0648,3.0354,3.0087,2.9593,2.9179,2.8818,2.8511,2.8283,2.8221,2.8221,2.8221,2.8221,2.8221,2.685,2.5095,2.3376,2.4163,2.4976,2.4796,2.3295,2.1954,2.1217,2.1042,2.0148,1.8007,1.7185,1.6184,1.4693,1.3902,1.3505,1.341,1.3403,1.3356,1.3254,1.3152,1.3105,1.3105,1.1628,1.0842,1.0848,0.8659,0.7708,6.0261,6.3877,6.7543,7.048,7.3167,7.5402,7.6657,7.6901,7.6388,7.4479,7.2033,6.967,6.7988,6.5353,6.3773,6.5271,6.471,6.4082,6.4433,6.3965,6.291,6.1133,6.0625,6.0098,5.9238,5.9805,6.0449,6.1035,6.1484,6.1719,6.1719,6.1484,6.1133,6.0683,6.0273,6.0098,6.0273,5.9863,5.9687,5.9805,5.8211,5.755,5.74,5.3674,5.1835,5.1547,4.8909,4.712,4.5965,4.5727,4.3723,4.0596,3.9876,3.8216,3.6019,3.5525,3.5164,3.4843,3.4362,3.4068,3.3855,3.3654,3.3374,3.312,3.3013,3.2853,3.2572,3.1984,3.1824,3.169,3.1102,3.0808,3.0541,3.0034,2.9633,2.9245,2.8845,2.8524,2.8127,2.7251,2.7004,2.6673,2.5799,2.4423,2.29,2.12,2.1312,2.1842,2.2433,2.1233,1.9977,1.9221,1.9203,1.8318,1.6214,1.6051,1.5459,1.4005,1.3871,1.3797,1.3709,1.3702,1.3634,1.3485,1.2631,1.2142,1.2086,0.98,0.8672,0.8676,0.6524,0.5542,6.4404,6.8396,7.1861,7.4071,7.6205,7.7888,7.839,7.6309,7.4165,7.3569,6.8196,6.3416,6.2675,5.9916,5.832,6.0039,6.084,6.1836,6.3574,6.2363,6.1445,6.1758,6.039,5.9414,5.9297,5.9687,6.0273,6.1074,6.1484,6.1719,6.1758,6.1758,6.1543,6.1094,6.0683,6.0664,6.1094,6.0664,6.012,5.9559,5.6172,5.4436,5.4075,5.0597,4.8735,4.8489,4.79,4.5847,4.2974,4.2974,4.0917,3.7782,3.7489,3.6834,3.6032,3.5738,3.5444,3.5151,3.4883,3.4416,3.3921,3.3895,3.3681,3.3387,3.3093,3.3,3.2879,3.2305,3.2131,3.1998,3.1423,3.1249,3.1009,3.0181,2.9953,2.9677,2.903,2.8672,2.7745,2.535,2.4706,2.3749,2.1394,2.1048,2.0962,2.0875,1.8976,1.8235,1.9972,2.0091,1.9175,1.7163,1.7057,1.6301,1.4256,1.4082,1.4082,1.4082,1.386,1.3601,1.3594,1.3502,1.3357,1.3219,1.1165,1.0003,0.981,0.7635,0.6571,0.6486,0.423,0.3212,6.8622,7.2138,7.5226,7.7034,7.7888,7.834,7.849,7.7655,7.5155,6.9523,6.565,6.1639,5.6335,5.5657,5.664,5.8711,6.125,6.3515,6.4902,6.5,6.4375,6.2871,6.2871,6.2363,6.0742,6.1269,6.166,6.1543,6.166,6.1836,6.2187,6.2187,6.1836,6.1094,6.0976,6.0976,6.1094,6.0664,5.9035,5.6236,5.5128,5.3309,5.0852,4.7367,4.5742,4.5303,4.2585,4.0806,3.9862,3.9862,3.9032,3.7782,3.7489,3.6834,3.6032,3.5738,3.5444,3.5191,3.511,3.4843,3.4469,3.4028,3.3828,3.3708,3.34,3.3293,3.3227,3.2853,3.2599,3.2345,3.1971,3.1557,3.1169,3.0942,3.0394,2.9322,2.7337,2.6589,2.546,2.3037,2.2417,2.151,1.9081,1.8714,1.8113,1.6298,1.5601,1.6003,1.8148,1.6933,1.565,1.5053,1.4994,1.4847,1.4333,1.4245,1.4245,1.4245,1.2513,1.1472,1.1378,0.9628,0.8623,0.8448,0.7933,0.7578,0.7555,0.5296,0.428,0.4193,0.1946,0.089,7.2715,7.5703,7.8114,7.9043,7.9093,7.8591,7.736,7.5408,7.1894,6.4747,6.1082,5.7399,5.1745,5.2461,5.4609,5.6758,5.9863,6.2695,6.4726,6.4902,6.459,6.3965,6.3965,6.3496,6.207,6.2539,6.2832,6.2598,6.2402,6.2402,6.2637,6.2832,6.2539,6.168,6.0298,5.8681,5.6882,5.6445,5.5115,5.3061,5.127,4.9473,4.7582,4.4372,4.2673,4.2113,4.012,3.9118,3.8718,3.8718,3.8437,3.7969,3.7676,3.7128,3.6393,3.5979,3.5645,3.5364,3.5244,3.5084,3.4857,3.4269,3.3988,3.3828,3.3507,3.3414,3.3347,3.3066,3.2866,3.247,3.0874,3.0177,2.9537,2.8259,2.7509,2.6607,2.5095,2.4511,2.3359,2.072,1.8411,1.6482,1.4991,1.3885,1.2633,1.1315,1.1135,1.158,1.2896,1.2912,1.2325,1.125,1.1161,1.1161,1.1161,1.1161,1.1161,1.1161,0.9913,0.9082,0.903,0.7703,0.6959,0.6802,0.5844,0.5309,0.5196,0.2981,0.194,0.1853,0.0625,0.0,7.6657,7.8942,8.0424,8.0424,7.9796,7.8338,7.5334,7.1785,6.7006,5.9837,5.6099,5.2732,4.8599,5.0039,5.2637,5.5078,5.7969,6.1015,6.4199,6.4023,6.3965,6.5058,6.4551,6.3906,6.3437,6.3789,6.3965,6.3789,6.3457,6.3262,6.3203,6.3175,6.2462,6.1162,5.8234,5.5095,5.154,5.116,5.0592,5.001,4.6695,4.4981,4.4504,4.1799,4.0187,3.9666,3.9599,3.9306,3.8838,3.8758,3.8584,3.829,3.7996,3.7489,3.6861,3.6366,3.5723,3.5044,3.4794,3.4359,3.4123,3.4186,3.393,3.3347,3.3005,3.2585,3.2232,3.1987,3.1983,3.1298,2.8637,2.7801,2.7071,2.4413,2.3304,2.2788,2.2221,2.1328,1.9917,1.7451,1.3579,1.0669,1.0387,0.8608,0.7125,0.7125,0.7125,0.7032,0.6663,0.8722,0.9415,0.7356,0.7081,0.7074,0.7074,0.7064,0.7057,0.7057,0.6793,0.6611,0.6611,0.6347,0.6139,0.5995,0.406,0.3076,0.2874,0.0969,0.0,0.0,0.0,0.0,8.0298,8.1227,8.1528,8.1528,7.9746,7.6957,7.2785,6.9868,6.542,5.604,5.3953,5.2217,4.7054,4.8516,5.1797,5.5723,5.8594,6.1758,6.584,6.6289,6.6289,6.6523,6.6406,6.5996,6.5234,6.5527,6.5351,6.4258,6.4473,6.4473,6.4121,6.1448,5.8198,5.4278,5.3347,5.2643,5.1903,5.1435,4.988,4.7285,4.6058,4.4134,4.1657,4.0831,4.0294,3.996,3.9706,3.9533,3.9412,3.8905,3.8691,3.8611,3.829,3.7676,3.6941,3.6834,3.4747,3.2013,3.1965,3.027,2.8713,3.2915,3.2698,3.0769,3.0184,2.8393,2.6638,2.6595,2.6435,2.6062,2.5516,2.524,2.4865,2.4327,2.2199,1.9733,1.7657,1.3493,0.9993,0.941,0.8665,0.795,0.7837,0.7403,0.7084,0.7084,0.7084,0.6424,0.4444,0.6221,0.7608,0.715,0.7097,0.7061,0.7061,0.7094,0.7057,0.7057,0.5276,0.4206,0.4206,0.233,0.1254,0.1163,0.0805,0.0626,0.0535,0.0179,0.0,0.0,0.0,0.0,8.1805,8.2457,8.2608,8.2332,7.8759,7.4408,7.1044,6.6039,6.0228,5.3318,5.1227,4.9462,4.5738,4.7656,5.0723,5.3457,5.6269,5.959,6.3926,6.4512,6.5137,6.6699,6.6875,6.6621,6.5996,6.6289,6.6211,6.5351,6.4006,6.276,6.1673,5.8042,5.4228,5.0375,4.9701,4.8602,4.674,4.6468,4.5567,4.385,4.337,4.2321,4.0909,4.0615,4.0321,4.0027,3.9893,3.964,3.9214,3.7253,3.6333,3.6054,3.4119,3.307,3.2606,3.2199,3.0913,2.9346,2.9119,2.8049,2.7139,2.9506,2.9214,2.7987,2.7535,2.6399,2.5273,2.5273,2.5112,2.4635,2.3212,2.159,1.9894,1.8493,1.5792,1.325,1.2054,0.9763,0.7777,0.7608,0.6572,0.5552,0.5427,0.4324,0.3425,0.3407,0.3405,0.3011,0.1838,0.2683,0.3409,0.345,0.3412,0.3392,0.3392,0.345,0.343,0.343,0.2336,0.1703,0.1703,0.0628,0.0,0.0,0.0,0.0,0.0,0.0,0.0,0.0,0.0,0.0,8.1904,8.2357,8.2496,8.1134,7.6328,7.1095,6.7665,6.139,5.4915,5.0264,4.8254,4.6739,4.4636,4.668,4.9297,5.1133,5.3574,5.6875,6.1562,6.2363,6.3574,6.6406,6.6816,6.6466,6.5342,6.5611,6.5611,6.5082,6.1949,5.915,5.7235,5.3863,5.0548,4.7128,4.6416,4.4679,4.1897,4.1897,4.175,4.1416,4.1122,4.0976,4.0909,4.0615,4.0361,4.0014,3.9319,3.8711,3.8084,3.4702,3.323,3.2845,2.9967,2.8888,2.8727,2.8098,2.735,2.6727,2.6398,2.5767,2.5124,2.4836,2.5038,2.5156,2.4847,2.428,2.3653,2.3653,2.3078,2.2001,1.9879,1.7051,1.414,1.1359,0.889,0.7066,0.6433,0.6327,0.6208,0.6165,0.4509,0.3069,0.3053,0.1322,0.0,0.0,0.0,0.0,0.0,0.0,0.0,0.0,0.0,0.0,0.0,0.0,0.0,0.0,0.0,0.0,0.0,0.0,0.0,0.0,0.0,0.0,0.0,0.0,0.0,0.0,0.0,0.0,8.0331,8.0216,7.9672,7.5427,7.1212,6.6544,6.0256,5.637,5.2147,4.5653,4.5331,4.5649,4.4103,4.5,4.7207,5.084,5.2324,5.5058,6.0957,6.2461,6.3789,6.5996,6.6621,6.5677,6.2315,6.2076,6.1967,6.1548,5.7463,5.3775,5.0681,4.9365,4.6987,4.3338,4.2859,4.2444,4.2178,4.2178,4.2031,4.175,4.1456,4.1163,4.0909,4.0615,4.0468,4.0293,3.6929,3.5557,3.5577,3.1681,3.0139,3.0424,2.9815,2.9271,2.893,2.885,2.68,2.3911,2.3859,2.1808,1.9305,1.9284,2.0736,2.2478,2.2181,2.0182,1.7925,1.7925,1.599,1.3785,1.3583,1.1357,0.8576,0.569,0.4801,0.3811,0.1262,0.0736,0.0735,0.0735,0.0521,0.0416,0.0314,0.0104,0.0,0.0,0.0,0.0,0.0,0.0,0.0,0.0,0.0,0.0,0.0,0.0,0.0,0.0,0.0,0.0,0.0,0.0,0.0,0.0,0.0,0.0,0.0,0.0,0.0,0.0,0.0,0.0,7.8219,7.7808,7.6502,7.4148,6.901,6.3608,6.0079,5.3878,4.8147,4.5677,4.4441,4.3739,4.3405,4.4394,4.5957,4.8008,4.9062,5.1269,5.6015,5.7226,5.8357,6.0512,6.1087,6.053,5.8567,5.8238,5.7168,5.4721,5.2857,5.01,4.6205,4.523,4.4286,4.28,4.2191,4.2044,4.2218,4.2044,4.2004,4.2031,3.95,3.8337,3.8114,3.5562,3.4491,3.4356,3.2913,3.2312,3.2023,2.8511,2.6951,2.6792,2.4648,2.3803,2.3422,2.1188,1.9415,1.7864,1.5727,1.4138,1.3372,1.5061,1.6332,1.738,1.9043,1.8501,1.7022,1.5248,1.3819,1.2311,1.0586,0.8016,0.5199,0.2375,0.1721,0.1392,0.0212,0.0,0.0,0.0,0.0,0.0,0.0,0.0,0.0,0.0,0.0,0.0,0.0,-0.1435,-0.2548,-0.2548,-0.099,0.0,0.0,0.0,0.0,0.0,0.0,0.0,0.0,0.0,0.0,0.0,0.0,0.0,0.0,0.0,0.0,0.0,0.0,0.0,7.4276,7.4039,7.2762,7.0719,6.5556,6.0428,5.8299,5.152,4.5582,4.537,4.372,4.2558,4.2988,4.4043,4.5117,4.5976,4.6933,4.8887,5.2637,5.3037,5.4074,5.7181,5.6489,5.5529,5.5118,5.4559,5.3054,5.0356,4.9895,4.8419,4.5205,4.3528,4.2512,4.2512,4.2111,4.15,4.0645,4.0477,3.9907,3.8981,3.6196,3.481,3.4583,3.1807,3.0522,3.0388,2.9403,2.8923,2.8531,2.5205,2.3777,2.3301,1.995,1.868,1.8261,1.4652,1.3306,1.2841,1.0423,0.9441,0.9896,1.2971,1.3709,1.3948,1.6127,1.6495,1.5753,1.3747,1.1686,0.954,0.6771,0.4488,0.2407,0.0436,0.0,0.0,0.0,0.0,0.0,0.0,0.0,0.0,0.0,0.0,0.0,0.0,0.0,-0.0315,-0.1147,-0.3008,-0.4552,-0.5377,-0.2927,-0.1291,-0.1291,-0.1176,-0.0875,-0.0098,0.0,0.0,0.0,0.0,0.0,0.0,0.0,0.0,0.0,0.0,0.0,0.0,0.0,0.0,6.8099,6.8484,6.8119,6.3621,5.9898,5.6308,5.2971,4.8862,4.5176,4.3519,4.2734,4.2558,4.2988,4.3808,4.4687,4.5547,4.6758,4.8789,5.2226,5.15,5.2546,5.7912,5.4064,5.1274,5.1923,5.1008,5.0194,5.0048,4.928,4.8839,4.8711,4.4571,4.2218,4.2218,4.2218,4.0505,3.7152,3.7024,3.5198,3.1513,3.1398,3.1058,3.071,3.0623,3.0522,3.0378,2.7029,2.5542,2.5273,2.1914,2.0539,2.0151,1.6806,1.5327,1.4846,1.1425,0.9985,0.9908,0.9841,0.972,1.0052,1.3107,1.389,1.3617,1.3617,1.3496,1.3231,1.3216,0.8931,0.3644,0.0775,0.0111,0.0,0.0,0.0,0.0,0.0,0.0,0.0,0.0,0.0,0.0,0.0,0.0,0.0,0.0,0.0,-0.1052,-0.3777,-0.4163,-0.5274,-0.8156,-0.5842,-0.4183,-0.4183,-0.4078,-0.2853,-0.0199,0.0,0.0,0.0,0.0,0.0,0.0,0.0,0.0,0.0,0.0,0.0,0.0,0.0,0.0,6.2115,6.1301,5.9458,5.6922,5.4726,5.2519,4.9648,4.6836,4.4316,4.2558,4.2324,4.2461,4.2617,4.3594,4.4863,4.6308,4.7129,4.7699,4.8141,4.8752,4.9957,5.1922,5.1466,4.9957,4.7389,4.6987,4.6607,4.5996,4.348,4.1789,4.1403,3.76,3.6416,3.8583,3.8514,3.6848,3.3497,3.323,3.2674,3.1586,2.9048,2.7712,2.7504,2.4918,2.3669,2.3669,2.2547,2.204,2.178,1.8467,1.7066,1.6689,1.3222,1.1919,1.1386,0.7938,0.661,0.6284,0.387,0.3074,0.349,0.6594,0.7442,0.7724,0.9795,1.1692,1.2352,0.8178,0.4288,0.1135,0.0226,0.0,0.0,0.0,-0.1543,-0.3061,-0.2918,-0.4512,-0.5884,-0.5846,-0.4251,-0.2872,-0.2872,-0.1278,0.0,0.0,-0.1593,-0.3179,-0.4128,-0.5907,-0.7471,-0.8416,-0.7576,-0.626,-0.439,-0.2419,-0.0902,-0.0101,0.0,-0.0783,-0.2501,-0.096,-0.0853,-0.2589,-0.0932,0.0,0.0,0.0,0.0,0.0,0.0,0.0,5.6953,5.6181,5.3945,5.2715,5.1289,4.9668,4.7578,4.5449,4.3496,4.209,4.2012,4.2246,4.2402,4.2683,4.3622,4.5803,4.6107,4.5997,4.5958,4.646,4.6547,4.5851,4.7922,4.7327,4.2293,4.2471,4.2072,4.0113,3.7803,3.6333,3.5942,3.3615,3.2471,3.3002,3.414,3.3251,2.9879,2.9626,2.894,2.7704,2.5347,2.4162,2.4084,2.1662,2.0573,2.05,1.9203,1.8564,0.0,1.4947,1.3505,1.3094,0.9634,0.8352,0.7964,0.4503,0.3196,0.2906,0.0754,0.0,0.0483,0.3542,0.4442,0.4658,0.5189,0.7536,0.8617,0.2508,-0.046,-0.2074,-0.3196,-0.3531,-0.3514,-0.3346,-0.4884,-0.6191,-0.5994,-0.7473,-0.8724,-0.8652,-0.6296,-0.4268,-0.4255,-0.1916,0.0,0.0,-0.1491,-0.2979,-0.404,-0.5735,-0.7323,-0.8382,-0.8375,-0.7663,-0.5977,-0.4065,-0.2621,-0.1614,-0.2498,-0.3754,-0.5364,-0.2918,-0.2212,-0.3853,-0.227,-0.1414,-0.1395,-0.139,-0.092,0.0,0.0,0.0,0.0,5.2361,5.0703,5.0195,4.8945,4.75,4.623,4.4433,0.0,4.1933,4.1777,4.1953,4.2422,4.1264,4.131,4.4679,4.4076,4.3736,4.523,4.4817,4.3298,4.0572,4.3966,4.3993,3.7539,3.7981,3.7116,3.3492,3.269,3.2337,3.2127,3.1634,2.9854,2.6412,2.9377,2.9498,2.6256,2.6256,2.4477,2.1231,2.1068,2.0933,2.079,2.0365,2.0251,2.0256,1.6625,1.5065,1.4921,1.1419,0.9953,0.9634,0.6045,0.4762,0.4379,0.116,0.0,0.0,0.0,0.0,0.0365,0.299,0.3786,0.3178,-0.0118,0.1175,0.2561,-0.3489,-0.5116,-0.5683,-0.8619,-0.939,-0.9355,-0.8978,-0.9278,-0.9476,-0.9279,-0.9419,-0.945,-0.9046,-0.6776,-0.4723,-0.4258,-0.1916,0.0,0.0,-0.0213,-0.1278,-0.3828,-0.4357,-0.5523,-0.817,-0.8524,-0.848,-0.848,-0.8178,-0.6947,-0.4432,-0.6686,-0.8137,-0.8222,-0.5705,-0.4389,-0.454,-0.4054,-0.3825,-0.3847,-0.3623,-0.2301,0.0,0.0,0.0,4.52,0.0,4.4707,4.3301,4.3613,4.3945,0.0,4.248,4.2344,4.1484,4.1582,4.2129,4.3203,4.1414,4.1347,4.6191,4.3325,4.1102,4.2667,4.4325,4.4654,4.2643,4.4279,4.3717,3.8534,3.629,3.4644,3.3444,3.0626,2.8817,2.8748,2.5778,2.3754,2.2939,2.3465,2.3384,2.262,2.262,2.2209,2.1387,2.1123,2.1034,2.0972,1.7961,1.6625,1.6609,1.3085,1.1479,1.129,0.7792,0.6344,0.6045,0.2577,0.116,0.1159,0.0256,0.0,0.0,0.0,0.0,-0.0244,-0.2046,-0.2756,-0.3468,-0.6577,-0.5255,-0.3579,-0.7503,-0.8539,-0.8601,-0.9345,-0.9516,-0.9321,-0.9169,-1.0928,-1.2461,-1.2263,-1.3971,-1.4879,-1.2497,-0.9672,-0.6971,-0.4577,-0.1916,0.0,0.0,-0.1809,-0.3403,-0.4147,-0.616,-0.7746,-0.8382,-0.8524,-0.848,-0.848,-0.8479,-0.8082,-0.7319,-0.7907,-0.9051,-1.0806,-0.8405,-0.7966,-0.9928,-0.5998,-0.3947,-0.393,-0.1887,-0.0559,0.0,0.0,0.0,4.089,4.1506,4.1973,4.1055,4.1523,4.207,4.1582,4.1504,4.1484,4.123,4.1348,4.1894,4.3183,4.0555,3.9715,4.4469,4.0241,3.6775,3.7695,3.8437,3.8906,3.8703,3.9442,3.8486,3.431,3.2427,3.0685,2.8734,2.6622,2.5324,2.5085,2.2964,2.1706,2.1564,2.1475,2.1441,2.1441,2.1367,2.1299,2.1231,2.1001,2.011,1.842,1.6377,1.4586,1.3119,0.9482,0.8015,0.7833,0.4184,0.2731,0.2577,0.0774,0.0,0.0,0.0,0.0,0.0,0.0,-0.0991,-0.2693,-0.44,-0.6092,-0.7898,-1.1209,-1.0829,-0.9824,-1.1592,-1.1902,-1.2188,-1.3592,-1.3864,-1.3382,-1.1598,-1.2466,-1.323,-1.1564,-1.2526,-1.3147,-1.1334,-0.8671,-0.6261,-0.4499,-0.1814,-0.0426,-0.1703,-0.3191,-0.4676,-0.6054,-0.7535,-0.8487,-0.8487,-0.9608,-1.042,-1.042,-1.163,-1.1748,-1.0364,-1.1333,-1.2574,-1.3854,-1.1291,-1.0519,-1.1798,-0.7859,-0.5784,-0.5784,-0.3043,-0.1126,0.0,0.0,-0.0642,3.8809,4.0098,4.1269,4.0879,4.0918,4.1152,4.1445,4.0996,4.0644,4.1074,4.0977,4.1206,4.2515,3.8783,3.6764,4.0907,3.6356,3.2443,3.2558,3.1688,3.1566,3.3103,3.3172,3.183,2.8755,2.8006,2.6448,2.3073,2.2642,2.2432,2.2127,2.195,2.174,2.1475,2.1421,2.1136,2.0606,2.1009,2.1143,2.1001,2.0329,1.8381,1.5454,1.4372,1.2377,0.9583,0.5949,0.4361,0.4333,0.1316,0.0,0.0,0.0,0.0,0.0,0.0,0.0,0.0,0.0,-0.225,-0.5066,-0.5093,-0.7308,-1.0604,-1.3374,-1.4075,-1.3997,-1.3983,-1.418,-1.5091,-1.7657,-1.7902,-1.6798,-1.3705,-1.2975,-1.2286,-0.9541,-0.894,-0.8691,-0.817,-0.6141,-0.4251,-0.3676,-0.1933,-0.1496,-0.3837,-0.4579,-0.5744,-0.817,-0.8911,-0.9126,-0.9137,-1.1685,-1.338,-1.338,-1.5624,-1.5942,-1.339,-1.5201,-1.632,-1.6279,-1.4019,-1.2405,-1.1817,-0.916,-0.7629,-0.7243,-0.4492,-0.2359,-0.0651,-0.0656,-0.1958,3.9922,4.1211,4.1719,3.9512,3.9805,4.0547,4.0254,4.0351,4.0644,4.1074,3.9892,3.9304,4.111,3.5669,3.2415,3.7192,3.398,3.09,3.0721,3.1032,3.1738,3.2636,3.0955,2.9122,2.7747,2.5483,2.3633,2.2798,2.2642,2.2432,2.2127,2.1848,2.1686,2.1638,2.1387,1.9779,1.6989,1.976,2.1143,2.1001,1.7826,1.6259,1.5678,0.9505,0.6525,0.6046,0.2372,0.0789,0.0783,0.0261,0.0,0.0,0.0,0.0,0.0,0.0,0.0,0.0,0.0,-0.2266,-0.5138,-0.4986,-0.7361,-1.0241,-1.0499,-1.0622,-1.0757,-1.0605,-1.2434,-1.4648,-1.5087,-1.3093,-1.0684,-1.0053,-0.9946,-0.9737,-0.9029,-0.8862,-0.8132,-0.5641,-0.4746,-0.363,-0.1093,-0.2395,-0.3903,-0.4198,-0.6336,-0.8132,-0.8494,-1.0602,-1.2118,-1.2316,-1.4792,-1.6511,-1.6511,-1.6942,-1.6875,-1.6387,-1.6433,-1.6374,-1.613,-1.5691,-1.4352,-1.2122,-0.9346,-0.6827,-0.459,-0.1922,-0.1522,-0.3409,-0.3414,-0.4828,3.9316,4.0254,4.0608,3.8604,3.9337,4.0166,3.8294,3.7953,3.8093,3.8713,3.693,3.58,3.7478,3.2982,2.9256,2.9943,2.851,2.6803,2.5689,2.5828,2.6306,2.7131,2.6151,2.5385,2.5133,2.3876,2.3049,2.292,2.2622,2.2344,2.2127,2.1828,2.0789,1.8748,1.8491,1.6771,1.3111,1.4672,1.5429,1.5259,1.3585,1.1761,0.9985,0.6627,0.4173,0.2357,0.0658,0.0,0.0,0.0,0.0,0.0,0.0,0.0,0.0,0.0,0.0,0.0,0.0,-0.229,-0.5064,-0.5069,-0.7323,-1.0169,-0.9965,-0.9887,-0.992,-0.9851,-1.0893,-1.1928,-1.1827,-1.0648,-0.9019,-0.7201,-0.6781,-0.6258,-0.4422,-0.405,-0.3692,-0.2342,-0.2108,-0.1658,-0.0221,-0.1096,-0.3162,-0.618,-0.7797,-0.9833,-1.291,-1.4411,-1.5295,-1.5356,-1.6554,-1.7283,-1.7202,-1.7195,-1.706,-1.6754,-1.6598,-1.6388,-1.6096,-1.6083,-1.5472,-1.4265,-1.1594,-0.9669,-0.8431,-0.5778,-0.5144,-0.6367,-0.6304,-0.7635,3.8945,3.9273,3.92,3.7515,3.8506,3.9356,3.7222,3.5761,3.5233,3.6274,3.4424,3.2771,3.3161,2.9912,2.63,2.3642,2.3567,2.3358,2.1878,2.174,2.1991,2.2642,2.2676,2.2798,2.313,2.3042,2.292,2.2852,2.25,2.2201,2.2025,2.0946,1.9068,1.6171,1.5219,1.301,0.9351,0.9203,0.9588,1.0489,0.9531,0.7716,0.5019,0.4275,0.2469,0.0,0.0,0.0,0.0,0.0,0.0,0.0,0.0,0.0,0.0,0.0,0.0,0.0,0.0,-0.2183,-0.4981,-0.4103,-0.6107,-0.8671,-0.7902,-0.755,-0.7553,-0.7539,-0.7531,-0.7626,-0.8341,-0.7944,-0.6731,-0.4204,-0.3579,-0.2973,-0.0571,0.0,0.0,0.0,0.0,0.0,0.0,-0.0551,-0.2519,-0.6992,-0.8291,-1.0344,-1.4798,-1.589,-1.634,-1.6372,-1.7034,-1.7412,-1.7256,-1.7182,-1.6978,-1.6598,-1.6571,-1.6442,-1.6144,-1.6171,-1.5884,-1.527,-1.3228,-1.1908,-1.1383,-0.9304,-0.8647,-0.9276,-0.9245,-1.0599,4.0059,3.9537,3.8123,3.5984,3.6563,3.77,3.8186,3.5182,3.2951,3.4957,3.3846,3.1768,2.9029,2.5899,2.3173,2.0942,2.1398,2.2194,2.2411,2.2588,2.2798,2.313,2.3063,2.2995,2.3029,2.2886,2.2676,2.2411,2.2235,2.2004,2.1726,1.8442,1.6429,1.6171,1.2777,0.9288,0.5852,0.5553,0.7076,1.0278,0.7069,0.5405,0.5019,0.1805,0.0258,0.0,0.0,0.0,0.0,0.0,0.0,0.0,0.0,0.0,0.0,0.0,0.0,0.0,0.0,-0.219,-0.4624,-0.1407,-0.2665,-0.4904,-0.1627,-0.0745,-0.0739,-0.0734,-0.0732,-0.1458,-0.4418,-0.296,-0.0589,-0.0353,-0.0347,-0.0228,0.0,0.0,0.0,0.0,0.0,0.0,0.0,-0.2334,-0.4303,-0.4525,-0.6896,-0.8821,-0.9147,-1.1537,-1.3316,-1.3523,-1.5966,-1.7568,-1.7419,-1.7154,-1.6917,-1.6748,-1.6734,-1.6598,-1.6307,-1.6422,-1.5252,-1.2779,-1.2562,-1.1286,-0.8749,-0.8539,-0.9755,-1.2186,-1.209,-1.3464,3.7952,3.8092,3.7865,3.4846,3.3425,3.3014,3.4428,3.2602,3.1157,3.2904,2.9766,2.5919,2.3152,2.2216,2.1665,2.1062,2.174,2.2466,2.2907,2.3008,2.3063,2.3083,2.2961,2.2873,2.2873,2.2656,2.2466,2.2337,2.0033,1.8592,1.8413,1.4724,1.167,0.9492,0.8115,0.5605,0.2084,0.1941,0.2584,0.3889,0.2581,0.1933,0.1934,0.0645,0.0,0.0,0.0,0.0,0.0,0.0,0.0,0.0,0.0,0.0,0.0,0.0,0.0,0.0,0.0,-0.0903,-0.1673,-0.0384,-0.0888,-0.1635,-0.0373,0.0,0.0,0.0,0.0,-0.0243,-0.1554,-0.0951,0.0,0.0,0.0,0.0,0.0,0.0,0.0,0.0,0.0,0.0,0.0,-0.0891,-0.2324,-0.4087,-0.5399,-0.6698,-0.8561,-1.1352,-1.2502,-1.0768,-1.1449,-1.2017,-1.1975,-1.3386,-1.426,-1.4134,-1.5698,-1.6659,-1.6449,-1.649,-1.6006,-1.497,-1.5023,-1.4518,-1.3568,-1.3568,-1.4082,-1.5128,-1.5019,-1.552,3.6555,3.6193,3.541,3.2515,3.045,2.9434,3.0619,2.9069,2.7852,2.9606,2.5771,2.1864,2.1417,2.0978,2.0804,2.1353,2.2113,2.2744,2.3097,2.3117,2.3029,2.2886,2.273,2.2622,2.2567,2.2391,2.1671,2.047,1.7941,1.5875,1.4656,1.1058,0.7925,0.5501,0.4315,0.2477,0.0,0.0,0.0,0.0,0.0,0.0,0.0,0.0,0.0,0.0,0.0,0.0,0.0,0.0,0.0,0.0,0.0,0.0,0.0,0.0,0.0,0.0,0.0,0.0,0.0,0.0,0.0,0.0,0.0,0.0,0.0,0.0,0.0,0.0,0.0,0.0,0.0,0.0,0.0,0.0,0.0,0.0,0.0,0.0,0.0,0.0,0.0,0.0,-0.0665,-0.2774,-0.3102,-0.3763,-0.5875,-0.8674,-1.015,-0.901,-0.8784,-0.9027,-0.998,-1.1654,-1.3006,-1.3878,-1.5768,-1.6754,-1.6598,-1.6639,-1.6666,-1.6666,-1.6666,-1.672,-1.6822,-1.6822,-1.6822,-1.6822,-1.6775,-1.672,3.6492,3.37,3.0403,2.8644,2.7802,2.7501,2.7358,2.4702,2.2886,2.4989,2.2536,2.1,2.4555,2.2546,2.0573,2.1319,2.2201,2.2832,2.2995,2.2873,2.273,2.2574,2.2432,2.2269,2.2127,2.2106,2.0461,1.6519,1.6234,1.4522,1.088,0.7298,0.541,0.5335,0.1837,0.0,0.0,0.0,0.0,0.0,0.0,0.0,0.0,0.0,0.0,0.0,0.0,0.0,0.0,0.0,0.0,0.0,0.0,0.0,0.0,0.0,0.0,0.0,0.0,0.0,0.0,0.0,0.0,0.0,0.0,0.0,0.0,0.0,0.0,0.0,0.0,0.0,0.0,0.0,0.0,0.0,0.0,0.0,0.0,0.0,0.0,0.0,0.0,0.0,0.0,0.0,0.0,0.0,0.0,-0.2577,-0.5575,-0.8494,-0.8756,-0.9763,-1.2686,-1.2782,-1.3885,-1.6768,-1.6985,-1.691,-1.6761,-1.6897,-1.6978,-1.6978,-1.6978,-1.6978,-1.6978,-1.6978,-1.6978,-1.6978,-1.6822,-1.6836,3.0992,3.0028,2.9201,2.59,2.4366,2.3892,2.4715,2.416,2.3466,2.3112,2.2055,2.1487,2.232,2.1888,2.1421,2.1441,2.2025,2.252,2.2676,2.2642,2.2534,2.2269,2.2113,2.1038,1.8371,1.8026,1.6435,1.2731,1.0244,0.8305,0.7038,0.3556,0.1571,0.1564,0.052,0.0,0.0,0.0,0.0,0.0,0.0,0.0,0.0,0.0,0.0,0.0,0.0,0.0,0.0,0.0,0.0,0.0,0.0,0.0,0.0,0.0,0.0,0.0,0.0,0.0,0.0,0.0,0.0,0.0,0.0,0.0,0.0,0.0,0.0,0.0,0.0,0.0,0.0,0.0,0.0,0.0,0.0,0.0,0.0,0.0,0.0,0.0,0.0,0.0,0.0,0.0,0.0,-0.0777,-0.2908,-0.2129,-0.2456,-0.5526,-0.5696,-0.5864,-0.6784,-1.0445,-1.318,-1.4119,-1.6054,-1.7066,-1.6917,-1.6958,-1.6978,-1.6978,-1.6978,-1.6978,-1.6978,-1.6978,-1.6978,-1.6978,-1.6931,-1.6937,2.9073,2.7621,2.6311,2.337,2.2375,2.2294,2.2643,2.31,2.3191,2.262,2.2181,2.1937,2.1774,2.1726,2.1726,2.1794,2.2059,2.2303,2.2445,2.2357,2.2201,2.1971,2.0612,1.8763,1.6545,1.5028,1.2699,0.9005,0.6699,0.4794,0.3298,0.1179,0.0,0.0,0.0,0.0,0.0,0.0,0.0,0.0,0.0,0.0,0.0,0.0,0.0,0.0,0.0,0.0,0.0,0.0,0.0,0.0,0.0,0.0,0.0,0.0,0.0,0.0,0.0,0.0,0.0,0.0,0.0,0.0,0.0,0.0,0.0,0.0,0.0,0.0,0.0,0.0,0.0,0.0,0.0,0.0,0.0,0.0,0.0,0.0,0.0,0.0,0.0,0.0,0.0,0.0,0.0,-0.0669,-0.2462,-0.1121,-0.1116,-0.4071,-0.4387,-0.5234,-0.7536,-1.0939,-1.3418,-1.4683,-1.6307,-1.7243,-1.7161,-1.71,-1.7039,-1.6985,-1.6978,-1.6978,-1.6978,-1.6978,-1.6978,-1.6978,-1.6978,-1.6978,2.904,2.5967,2.2369,2.1194,2.1653,2.2188,2.1478,2.1828,2.25,2.3029,2.2642,2.2289,2.2534,2.2025,2.172,2.2235,2.2201,2.2127,2.2235,2.1739,2.1376,2.1236,1.797,1.5637,1.5129,1.2248,0.8879,0.518,0.491,0.3433,0.0131,0.0,0.0,0.0,0.0,0.0,0.0,0.0,0.0,0.0,0.0,0.0,0.0,0.0,0.0,0.0,0.0,0.0,0.0,0.0,0.0,0.0,0.0,0.0,0.0,0.0,0.0,0.0,0.0,0.0,0.0,0.0,0.0,0.0,0.0,0.0,0.0,0.0,0.0,0.0,0.0,0.0,0.0,0.0,0.0,0.0,0.0,0.0,0.0,0.0,0.0,0.0,0.0,0.0,0.0,0.0,0.0,0.0,0.0,-0.0224,-0.1337,-0.3937,-0.4837,-0.7345,-1.2599,-1.3325,-1.4696,-1.7224,-1.7439,-1.7439,-1.7439,-1.7283,-1.7134,-1.7005,-1.6985,-1.6978,-1.6978,-1.6978,-1.6978,-1.6978,-1.6978,-1.6873,2.4702,2.2656,2.0699,1.9855,2.0612,2.1727,2.1895,2.2127,2.2378,2.25,2.2764,2.294,2.2764,2.2608,2.2432,2.2201,2.2025,2.1862,2.1672,1.9146,1.7312,1.7197,1.4045,1.0844,0.7984,0.706,0.5055,0.1453,0.1182,0.0785,0.0,0.0,0.0,0.0,0.0,0.0,0.0,0.0,0.0,0.0,0.0,0.0,0.0,0.0,0.0,0.0,0.0,0.0,0.0,0.0,0.0,0.0,0.0,0.0,0.0,0.0,0.0,0.0,0.0,0.0,0.0,0.0,0.0,0.0,0.0,0.0,0.0,0.0,0.0,0.0,0.0,0.0,0.0,0.0,0.0,0.0,0.0,0.0,0.0,0.0,0.0,0.0,0.0,0.0,0.0,0.0,0.0,0.0,0.0,-0.2017,-0.3792,-0.441,-0.8598,-1.1859,-1.3037,-1.5224,-1.6811,-1.748,-1.7602,-1.7602,-1.7602,-1.7338,-1.7175,-1.7148,-1.7039,-1.6978,-1.6978,-1.6978,-1.6978,-1.6978,-1.6978,-1.5803,2.3878,2.1665,1.9655,2.0004,2.0858,2.1638,2.1937,2.2181,2.2378,2.252,2.2798,2.2995,2.2907,2.271,2.25,2.2255,2.054,1.9176,1.9032,1.5847,1.3506,1.3463,1.0327,0.7426,0.5551,0.3835,0.198,0.0131,0.0,0.0,0.0,0.0,0.0,0.0,0.0,0.0,0.0,0.0,0.0,0.0,0.0,0.0,0.0,0.0,0.0,0.0,0.0,0.0,0.0,0.0,0.0,0.0,0.0,0.0,0.0,0.0,0.0,0.0,0.0,0.0,0.0,0.0,0.0,0.0,0.0,0.0,0.0,0.0,0.0,0.0,0.0,0.0,0.0,0.0,0.0,0.0,0.0,0.0,0.0,0.0,0.0,0.0,0.0,0.0,0.0,0.0,0.0,0.0,0.0,-0.2689,-0.5016,-0.6404,-1.0616,-1.3816,-1.5234,-1.6711,-1.767,-1.7738,-1.6413,-1.5643,-1.5643,-1.3966,-1.4457,-1.7195,-1.7121,-1.7046,-1.6978,-1.6978,-1.6978,-1.6978,-1.5592,-1.4173,2.4102,2.1705,1.9183,2.0804,2.1441,2.1726,2.1882,2.2093,2.2357,2.2676,2.2764,2.2818,2.2907,2.2048,2.133,2.1226,1.792,1.5361,1.5322,1.2132,0.9701,0.9701,0.6563,0.4467,0.4464,0.1709,0.0,0.0,0.0,0.0,0.0,0.0,0.0,0.0,0.0,0.0,0.0,0.0,0.0,0.0,0.0,0.0,0.0,0.0,0.0,0.0,0.0,0.0,0.0,0.0,0.0,0.0,0.0,0.0,0.0,0.0,0.0,0.0,0.0,0.0,0.0,0.0,0.0,0.0,0.0,0.0,0.0,0.0,0.0,0.0,0.0,0.0,0.0,0.0,0.0,0.0,0.0,0.0,0.0,0.0,0.0,0.0,0.0,0.0,0.0,0.0,0.0,0.0,0.0,-0.3025,-0.6134,-0.8511,-1.2002,-1.5139,-1.7478,-1.7352,-1.7086,-1.7086,-1.4282,-1.2612,-1.2612,-1.0121,-1.0974,-1.5616,-1.5673,-1.5916,-1.6229,-1.6229,-1.6229,-1.6229,-1.378,-1.214,2.317,2.1644,2.0098,2.098,2.1441,2.174,2.2025,2.2004,2.2059,2.25,2.2696,2.2744,2.2642,1.9924,1.758,1.7164,1.3889,1.1365,1.1226,0.8205,0.5861,0.5861,0.2754,0.0657,0.0784,0.0261,0.0,0.0,0.0,0.0,0.0,0.0,0.0,0.0,0.0,0.0,0.0,0.0,0.0,0.0,0.0,0.0,0.0,0.0,0.0,0.0,0.0,0.0,0.0,0.0,0.0,0.0,0.0,0.0,0.0,0.0,0.0,0.0,0.0,0.0,0.0,0.0,0.0,0.0,0.0,0.0,0.0,0.0,0.0,0.0,0.0,0.0,0.0,0.0,0.0,0.0,0.0,0.0,0.0,0.0,0.0,0.0,0.0,0.0,0.0,0.0,0.0,0.0,0.0,-0.483,-0.8485,-0.8802,-1.3938,-1.7405,-1.7846,-1.5506,-1.4054,-1.4054,-1.1159,-0.9487,-0.9487,-0.9069,-0.9207,-0.9786,-0.9744,-1.0826,-1.3248,-1.3248,-1.3248,-1.3248,-1.2932,-1.0066,2.0836,2.0267,2.0119,2.1197,2.1441,2.1509,2.1903,2.1862,2.1862,2.2235,2.2357,2.2411,2.2432,1.9193,1.6571,1.6358,1.1508,0.772,0.767,0.4537,0.2201,0.2201,0.0909,0.0,0.0,0.0,0.0,0.0,0.0,0.0,0.0,0.0,0.0,0.0,0.0,0.0,0.0,0.1735,0.2578,0.2676,0.2679,0.1711,0.0,0.0,0.0,0.0,0.0,0.0,0.0,0.0,0.0,0.0,0.0,0.0,0.0,0.0,0.0,0.0,0.0,0.0,0.0,0.0,0.0,0.0,0.0,0.0,0.0,0.0,0.0,0.0,0.0,0.0,0.0,0.0,0.0,0.0,0.0,0.0,0.0,0.0,0.0,0.0,0.0,0.0,0.0,0.0,0.0,0.0,0.0,-0.5157,-0.8933,-0.8933,-1.2839,-1.5395,-1.5395,-1.2612,-1.0932,-1.0932,-0.8042,-0.6468,-0.6436,-0.4847,-0.3932,-0.3792,-0.6979,-0.9166,-1.0391,-1.0391,-1.0391,-1.0285,-0.8699,-0.6565,1.8517,1.8565,1.9488,2.0858,2.1157,2.0962,2.0618,2.1067,2.1464,2.0765,2.1337,2.2025,2.2093,1.8904,1.6342,1.6265,1.0761,0.6622,0.6609,0.3617,0.1289,0.1289,0.0515,0.0,0.0,0.0,0.0,0.0,0.0,0.0,0.0,0.0,0.0,0.0,0.0761,0.1254,0.1234,0.4285,0.5453,0.4662,0.47,0.3033,0.0,0.0,0.0,0.0,0.0,0.0,0.0,0.0,0.0,0.0,0.0,0.0,0.0,0.0,0.0,0.0,0.0,0.0,0.0,0.0,0.0,0.0,0.0,0.0,0.0,0.0,0.0,0.0,0.0,0.0,0.0,0.0,0.0,0.0,0.0,0.0,0.0,0.0,0.0,0.0,0.0,0.0,0.0,0.0,0.0,0.0,0.0,-0.4591,-0.7819,-0.7819,-1.0496,-1.2274,-1.2274,-0.9487,-0.781,-0.7795,-0.5026,-0.3342,-0.3306,-0.1206,0.0,0.0,-0.4297,-0.6839,-0.7429,-0.7429,-0.7429,-0.7323,-0.5207,-0.3814,1.6977,1.7182,1.8111,1.959,2.0383,2.0032,1.7217,1.9225,2.0752,1.7484,1.9468,2.1652,2.1509,1.8599,1.625,1.5932,1.2649,1.0098,1.0032,0.7071,0.489,0.489,0.1921,0.0,0.0,0.0,0.0,0.0,0.0,0.0,0.0,0.0,0.0,0.0,0.2871,0.444,0.4432,0.7578,0.7581,0.4468,0.4623,0.3,0.0,0.0,0.0,0.0,0.0,0.0,0.0,0.0,0.0,0.0,0.0,0.0,0.0,0.0,0.0,0.0,0.0,0.0,0.0,0.0,0.0,0.0,0.0,0.0,0.0,0.0,0.0,0.0,0.0,0.0,0.0,0.0,0.0,0.0,0.0,0.0,0.0,0.0,0.0,0.0,0.0,0.0,0.0,0.0,0.0,0.0,0.0,-0.2815,-0.47,-0.47,-0.737,-0.9156,-0.9156,-0.6481,-0.4682,-0.4755,-0.1897,-0.0223,-0.0219,-0.0109,0.0,0.0,-0.0321,-0.181,-0.4464,-0.4464,-0.4464,-0.4464,-0.4253,-0.2765,1.6186,1.672,1.7534,1.883,1.961,1.9305,1.6281,1.8588,2.0447,1.7008,1.9068,2.1475,2.1319,1.8456,1.5983,1.5783,1.2683,1.0305,1.0271,0.7328,0.5147,0.5147,0.2058,0.0,0.0,0.0,0.0,0.0,0.0,0.089,0.3048,0.3167,0.4027,0.61,0.7283,0.8759,1.0494,0.9641,0.8633,0.7447,0.5547,0.2992,0.0,0.0,0.0,0.0,0.0,0.0,0.0,0.0,0.0,0.0,0.0,0.0,0.0,0.0,0.0,0.0,0.0,0.0,0.0,0.0,0.0,0.0,0.0,0.0,0.0,0.0,0.0,0.0,0.0,0.0,0.0,0.0,0.0,0.0,0.0,0.0,0.0,0.0,0.0,0.0,0.0,0.0,0.0,0.0,0.0,0.0,0.0,-0.259,-0.4476,-0.4476,-0.5478,-0.6039,-0.6039,-0.3359,-0.1567,-0.1562,-0.056,0.0,0.0,0.0,0.0,0.0,0.0,-0.0536,-0.1491,-0.1491,-0.1491,-0.1491,-0.1491,-0.0958,1.5547,1.611,1.6842,1.8145,1.8728,1.8377,1.5712,1.8109,1.978,1.6597,1.8833,2.1265,2.1157,1.913,1.7433,1.7387,1.5336,1.3341,1.2187,0.899,0.6431,0.5276,0.2053,0.0,0.0,0.0,0.0,0.0,0.1009,0.2647,0.4782,0.5885,0.7908,1.0885,1.1006,1.1937,1.3719,1.1704,0.9729,0.7651,0.5645,0.3095,0.0,0.0,0.0,0.0,0.0,0.0,0.0,0.0,0.0,0.0,0.0,0.0,0.0,0.0,0.0,0.0,0.0,0.0,0.0,0.0,0.0,0.0,0.0,0.0,0.0,0.0,0.0,0.0,0.0,0.0,0.0,0.0,0.0,0.0,0.0,0.0,0.0,0.0,0.0,0.0,0.0,0.0,0.0,0.0,0.0,0.0,0.0,-0.1803,-0.3023,-0.3023,-0.3023,-0.3023,-0.3023,-0.1121,0.0,0.0,0.0,0.0,0.0,0.0,0.0,0.0,0.0,0.0,0.0,0.0,0.0,0.0,0.0,0.0,0.0,0.0,0.0,1.7433,1.7704,1.7057,1.5366,1.7512,1.9026,1.6114,1.8462,2.0967,2.098,2.0736,2.0573,2.0601,2.05,1.9255,1.5908,1.2447,0.899,0.5535,0.2035,0.0,0.0,0.0,0.0,0.0126,0.3145,0.503,0.5156,0.8171,1.1126,1.3839,1.3824,1.3719,1.3617,1.3603,1.0537,0.4529,0.4564,0.2951,0.0,0.0,0.0,0.0,0.0,0.0,0.0,0.0,0.0,0.0,0.0,0.0,0.0,0.0,0.0,0.0,0.0,0.0,0.0,0.0,0.0,0.0,0.0,0.0,0.0,0.0,0.0,0.0,0.0,0.0,0.0,0.0,0.0,0.0,0.0,0.0,0.0,0.0,0.0,0.0,0.0,0.0,0.0,0.0,0.0,0.0,0.0,0.0,0.0,0.0,0.0,0.0,0.0,0.0,0.0,0.0,0.0,0.0,0.0,0.0,0.0,0.0,0.0,0.0,0.0,0.0,0.0,0.0,0.0,0.0,1.478,0.0,0.0,0.0,0.0,0.0,1.3623,1.5946,1.8071,1.5487,1.7702,2.0193,2.0736,2.0594,1.9639,1.7235,1.8793,1.8987,1.5771,1.2225,0.8815,0.553,0.2046,0.0,0.0,0.0,0.0986,0.3171,0.4285,0.6875,1.1637,1.4808,1.6864,1.7361,1.5028,1.3759,1.3617,0.923,0.6262,0.4529,0.2343,0.083,0.0,0.0,0.0,0.0,0.0,0.0,0.0,0.0,0.0,0.0,0.0,0.0,0.0,0.0,0.0,0.0,0.0,0.0,0.0,0.0,0.0,0.0,0.0,0.0,0.0,0.0,0.0,0.0,0.0,0.0,0.0,0.0,0.0,0.0,0.0,0.0,0.0,0.0,0.0,0.0,0.0,0.0,0.0,0.0,0.0,0.0,0.0,0.0,0.0,0.0,0.0,0.0,0.0,0.0,0.0,0.0,0.0,0.0,0.0,0.0,0.0,0.0,0.0,0.0,0.0,0.0,0.0,0.0,0.0,0.0,1.476,1.5065,1.5506,1.5906,0.0,0.0,1.4959,1.6322,1.7596,1.6625,1.8103,1.9556,2.0105,1.8882,1.7264,1.5321,1.6636,1.63,1.1612,1.0493,0.8742,0.5478,0.4434,0.4019,0.3971,0.3929,0.4609,0.6464,0.7927,1.0944,1.6107,1.8088,1.8385,1.6804,1.4852,1.2475,0.9783,0.625,0.3839,0.2571,0.0822,0.0,0.0,0.0,0.0,0.0,0.0,0.0,0.0,0.0,0.0,0.0,0.0,0.0,0.0,0.0,0.0,0.0,0.0,0.0,0.0,0.0,0.0,0.0,0.0,0.0,0.0,0.0,0.0,0.0,0.0,0.0,0.0,0.0,0.0,0.0,0.0,0.0,0.0,0.0,0.0,0.0,0.0,0.0,0.0,0.0,0.0,0.0,0.0,0.0,0.0,0.0,0.0,0.0,0.0,0.0,0.0,0.0,0.0,0.0,0.0,0.0,0.0,0.0,0.0,0.0,0.0,0.0,0.0,0.0,0.0,0.0,1.4821,1.512,1.5615,1.6259,1.6049,0.0,1.7514,1.7439,1.7399,1.8552,1.8796,1.8884,1.9217,1.69,1.4818,1.4414,1.448,1.257,0.6513,0.8537,0.9289,0.5911,0.7987,0.977,0.956,0.9424,0.9424,0.9694,1.2782,1.5874,1.8848,1.8627,1.708,1.3889,1.3097,1.0079,0.4529,0.4184,0.2688,0.0,0.0,0.0,0.0,0.0,0.0,0.0,0.0,0.0,0.0,0.0,0.0,0.0,0.0,0.0,0.0,0.0,0.0,0.0,0.0,0.0,0.0,0.0,0.0,0.0,0.0,0.0,0.0,0.0,0.0,0.0,0.0,0.0,0.0,0.0,0.0,0.0,0.0,0.0,0.0,0.0,0.0,0.0,0.0,0.0,0.0,0.0,0.0,0.0,0.0,0.0,0.0,0.0,0.0,0.0,0.0,0.0,0.0,0.0,0.0,0.0,0.0,0.0,0.0,0.0,0.0,0.0,0.0,0.0,0.0,0.0,0.0,0.0,1.5072,1.5425,1.5771,1.5805,1.5906,0.0,1.6246,1.6293,1.6537,1.7372,1.7541,1.7704,1.8247,1.7973,1.6566,1.3767,1.3774,1.2993,0.9423,1.1699,1.2601,0.9295,0.9305,0.9554,0.9418,0.9272,1.0187,1.2566,1.5976,1.8214,1.8816,1.6543,1.4825,1.3784,0.9092,0.5837,0.4529,0.2107,0.0588,0.0,0.0,0.0,0.0,0.0,0.0,0.0,0.0,0.0,0.0,0.0,0.0,0.0,0.0,0.0,0.0,0.0,0.0,0.0,0.0,0.0,0.0,0.0,0.0,0.0,0.0,0.0,0.0,0.0,0.0,0.0,0.0,0.0,0.0,0.0,0.0,0.0,0.0,0.0,0.0,0.0,0.0,0.0,0.0,0.0,0.0,0.0,0.0,0.0,0.0,0.0,0.0,0.0,0.0,0.0,0.0,0.0,0.0,0.0,0.0,0.0,0.0,0.0,0.0,0.0,0.0,0.0,0.0,0.0,0.0,0.0,0.0,0.0,1.5337,1.5567,1.5872,1.5954,1.5967,0.0,0.0,1.6185,1.6252,1.6849,1.691,1.6971,1.7351,1.6168,1.4702,1.2997,1.322,1.3097,1.1709,1.3359,1.4075,1.2341,1.3495,1.4411,1.4138,1.3956,1.4344,1.5717,1.7491,1.7876,1.6415,1.5021,1.2686,0.9325,0.6322,0.3872,0.2222,0.0705,0.0,0.0,0.0,0.0,0.0,0.0,0.0,0.0,0.0,0.0,0.0,0.0,0.0,0.0,0.0,0.0,0.0,0.0,0.0976,0.2072,0.0486,0.1083,0.2144,0.0479,0.0,0.0,0.0,0.0,0.0,0.0,0.0,0.0,0.0,0.0,0.0,0.0,0.0,0.0,0.0,0.0,0.0,0.0,0.0,0.0,0.0,0.0,0.0,0.0,0.0,0.0,0.0,0.0,0.0,0.0,0.0,0.0,0.0,0.0,0.0,0.0,0.0,0.0,0.0,0.0,0.0,0.0,0.0,0.0,0.0,0.0,0.0,0.0,0.0,0.0,1.5778,1.5927,1.6232,1.6361,1.6293,1.6273,0.0,0.0,0.0,1.6564,1.6544,1.6503,1.6564,1.4517,1.2942,1.3048,1.3588,1.3942,1.3912,1.4691,1.5266,1.5212,1.7494,1.9027,1.8674,1.8443,1.8247,1.8057,1.7583,1.6241,1.3848,1.2817,0.9968,0.4815,0.4114,0.2587,0.0,0.0,0.0,0.0,0.0,0.0,0.0,0.0,0.0,0.0,0.0,0.0,0.0,0.0,0.0,0.0,0.0,0.0,0.0,0.0,0.1579,0.3391,0.0844,0.1674,0.3321,0.0829,0.0,0.0,0.0,0.0,0.0,0.0,0.0,0.0,0.0,0.0,0.0,0.0,0.0,0.0,0.0,0.0,0.0,0.0,0.0,0.0,0.0,0.0,0.0,0.0,0.0,0.0,0.0,0.0,0.0,0.0,0.0,0.0,0.0,0.0,0.0,0.0,0.0,0.0,0.0,0.0,0.0,0.0,0.0,0.0,0.0,0.0,0.0,0.0,0.0,0.0,1.6653,1.7012,1.7324,1.6822,1.7073,1.7222,1.6354,0.0,1.6578,1.6232,0.0,1.6252,1.6001,0.0,0.0,1.5107,1.5933,1.6505,1.6282,1.6805,1.7412,1.7636,1.8014,1.8213,1.8179,1.7792,1.765,1.788,1.5331,1.3751,1.3617,0.8608,0.54,0.4698,0.1999,0.0353,0.0,0.0,0.0,0.0,0.0,0.0,0.0,0.0,0.0,0.0,0.0,0.0,0.0,0.0,0.0,0.0,0.0,0.0,0.0,0.0,0.0239,0.0478,0.0119,0.0238,0.0473,0.012,0.0,0.0,0.0,0.0,0.0,0.0,0.0,0.0,0.0,0.0,0.0,0.0,0.0,0.0,0.0,0.0,0.0,0.0,0.0,0.0,0.0,0.0,0.0,0.0,0.0,0.0,0.0,0.0,0.0,0.0,0.0,0.0,0.0,0.0,0.0,0.0,0.0,0.0,0.0,0.0,0.0,0.0,0.0,0.0,0.0,0.0,0.0,0.0,0.0,0.0,1.6951,1.7127,1.7324,1.7066,1.7134,1.7148,1.6707,1.6612,1.6564,1.6374,0.0,0.0,0.0,0.0,0.0,0.0,1.6171,1.6435,1.6374,1.6578,1.6978,1.7623,1.7623,1.7568,1.7568,1.7399,1.672,1.5276,1.3915,1.1821,0.852,0.6008,0.3858,0.1999,0.0706,0.0,0.0,0.0,0.0,0.0,0.0,0.0,0.0,0.0,0.0,0.0,0.0,0.0,0.0,0.0,0.0,0.0,0.0,0.0,0.0,0.0,0.1187,0.25,0.0596,0.1185,0.2477,0.06,0.0,0.0,0.0,0.0,0.0,0.0,0.0,0.0,0.0,0.0,0.0,0.0,0.0,0.0,0.0,0.0,0.0,0.0,0.0,0.0,0.0,0.0,0.0,0.0,0.0,0.0,0.0,0.0,0.0,0.0,0.0,0.0,0.0,0.0,0.0,0.0,0.0,0.0,0.0,0.0,0.0,0.0,0.0,0.0,0.0,0.0,0.0,0.0,0.0,0.0,1.7399,1.7453,1.7561,1.7317,1.7236,1.7168,1.6965,1.687,1.6781,1.6619,1.6476,0.0,0.0,0.0,1.5757,1.5934,0.0,1.5947,1.5906,1.5859,1.611,1.6842,1.6944,1.6985,1.7066,1.6354,1.5139,1.3325,1.1618,0.891,0.475,0.3789,0.2328,0.0118,0.0,0.0,0.0,0.0,0.0,0.0,0.0,0.0,0.0,0.0,0.0,0.0,0.0,0.0,0.0,0.0,0.0,0.0,0.0,0.0,0.0,0.0,0.1415,0.3084,0.0832,0.1542,0.3084,0.0722,0.0,0.0,0.0,0.0,0.0,0.0,0.0,0.0,0.0,0.0,0.0,0.0,0.0,0.0,0.0,0.0,0.0,0.0,0.0,0.0,0.0,0.0,0.0,0.0,0.0,0.0,0.0,0.0,0.0,0.0,0.0,0.0,0.0,0.0,0.0,0.0,0.0,0.0,0.0,0.0,0.0,0.0,0.0,0.0,0.0,0.0,0.0,0.0,0.0,0.0,1.8253,1.8375,1.8498,1.7629,1.7623,1.765,1.6924,1.7202,1.7446,1.6758,0.0,1.6985,1.6408,0.0,0.0,0.0,1.5655,0.0,0.0,1.5303,1.533,1.5655,1.6076,1.6449,1.6734,1.4229,1.2734,1.2971,0.7625,0.4406,0.4519,0.1717,0.0116,0.0,0.0,0.0,0.0,0.0,0.0,0.0,0.0,0.0,0.0,0.0,0.0,0.0,0.0,0.0,0.0,0.0,0.0,0.0,0.0,0.0,0.0,0.0,0.0117,0.0118,0.0,0.0119,0.0121,0.0,0.0,0.0,0.0,0.0,0.0,0.0,0.0,0.0,0.0,0.0,0.0,0.0,0.0,0.0,0.0,0.0,0.0,0.0,0.0,0.0,0.0,0.0,0.0,0.0,0.0,0.0,0.0,0.0,0.0,0.0,0.0,0.0,0.0,0.0,0.0,0.0,0.0,0.0,0.0,0.0,0.0,0.0,0.0,0.0,0.0,0.0,0.0,0.0,0.0,0.0,1.8782,1.8938,1.8993,1.8091,1.8023,1.7948,1.7093,1.729,1.7507,1.7005,0.0,0.0,0.0,0.0,0.0,0.0,0.0,1.5588,0.0,1.5025,1.4855,1.516,1.5506,1.5757,1.5852,1.3673,1.1544,0.9835,0.6195,0.3254,0.1643,0.0563,0.0917,0.301,0.1053,0.1059,0.3055,0.1059,0.0,0.0,0.0,0.0,0.0,0.0,0.0,0.0,0.0,0.0,0.0,0.0,0.0,0.0,0.0,0.0,0.0,0.0,0.0,0.0,0.0,0.0,0.0,0.0,0.0,0.0,0.0,0.0,0.0,0.0,0.0,0.0,0.0,0.0,0.0,0.0,0.0,0.0,0.0,0.0,0.0,0.0,0.0,0.0,0.0,0.0,0.0,0.0,0.0,0.0,0.0,0.0,0.0,0.0,0.0,0.0,0.0,0.0,0.0,0.0,0.0,0.0,0.0,0.0,0.0,0.0,0.0,0.0,0.0,0.0,0.0,0.0,0.0,0.0,1.9217,1.9325,1.9325,1.8531,1.8409,1.8253,1.7412,1.8314,1.9141,1.8744,0.0,0.0,0.0,0.0,0.0,0.0,0.0,0.0,0.0,1.4713,1.4143,1.3509,1.3765,1.3989,1.4139,1.1161,0.8458,0.6686,0.4116,0.1845,0.0107,0.1105,0.2039,0.2984,0.2105,0.2123,0.3055,0.1062,0.0,0.0,0.0,0.0,0.0,0.0,0.0,0.0,0.0,0.0,0.0,0.0,0.0,0.0,0.0,0.0,0.0,0.0,0.0,0.0,0.0,0.0,0.0,0.0,0.0,0.0,0.0,0.0,0.0,0.0,0.0,0.0,0.0,0.0,0.0,0.0,0.0,0.0,0.0,0.0,0.0,0.0,0.0,0.0,0.0,0.0,0.0,0.0,0.0,0.0,0.0,0.0,0.0,0.0,0.0,0.0,0.0,0.0,0.0,0.0,0.0,0.0,0.0,0.0,0.0,0.0,0.0,0.0,0.0,0.0,0.0,0.0,0.0,0.0]},{"header":{"parameterUnit":"m.s-1","parameterCategory":1,"la1":30.6,"la2":29.2853,"lo1":-89.7004,"lo2":-87.6739,"dy":0.0162,"dx":0.0183,"nx":112,"ny":82,"refTime":"2023-10-11T12:00:00:Z","depth":0,"parameterNumber":3,"parameterNumberName":"V-component_of_WINDS"},"data":[0.0,0.0,0.0,0.0,0.0,0.0,0.0,0.0,0.0,0.0,0.0,0.0,0.0,0.0,0.0,0.0,0.0,0.0,0.0,0.0,0.0,0.0,0.0,0.0,0.0,0.0,0.0,0.0,0.0,0.0,0.0,0.0,0.0,0.0,0.0,0.0,0.0,0.0,0.0,0.0,0.0,0.0,0.0,0.0,0.0,0.0,0.0,0.0,0.0,0.0,0.0,0.0,0.0,0.0,0.0,0.0,0.0,0.0,0.0,0.0,0.0,0.0,0.0,0.0,0.0,0.0,0.0,0.0,0.0,0.0,0.0,0.0,0.0,0.0,0.0,0.0,0.0,0.0,0.0,0.0,0.0,0.0,0.0,0.0,0.0,0.0,0.0,0.0,0.0,0.0,4.0379,4.2573,4.5572,4.7219,4.6681,4.5633,4.4047,4.1833,0.0,0.0,0.0,0.0,0.0,0.0,0.0,0.0,0.0,0.0,0.0,0.0,0.0,0.0,0.0,0.0,0.0,0.0,0.0,0.0,0.0,0.0,0.0,0.0,0.0,0.0,0.0,0.0,0.0,0.0,0.0,0.0,0.0,0.0,0.0,0.0,0.0,0.0,0.0,0.0,0.0,0.0,0.0,0.0,0.0,0.0,0.0,0.0,0.0,0.0,0.0,0.0,0.0,0.0,0.0,0.0,0.0,0.0,0.0,0.0,0.0,0.0,0.0,0.0,0.0,0.0,0.0,0.0,0.0,0.0,0.0,0.0,0.0,0.0,0.0,0.0,0.0,0.0,0.0,0.0,0.0,0.0,0.0,0.0,0.0,0.0,0.0,0.0,0.0,0.0,0.0,0.0,0.0,0.0,0.0,0.0,0.0,0.0,0.0,0.0,0.0,0.0,0.0,0.0,4.1952,4.6798,4.779,4.8087,4.7997,4.5334,4.3479,4.3021,0.0,0.0,0.0,0.0,0.0,0.0,0.0,0.0,0.0,0.0,0.0,0.0,0.0,0.0,0.0,0.0,0.0,0.0,0.0,0.0,0.0,0.0,0.0,0.0,0.0,0.0,0.0,0.0,0.0,0.0,0.0,0.0,0.0,0.0,0.0,0.0,0.0,0.0,0.0,0.0,0.0,0.0,0.0,0.0,0.0,0.0,0.0,0.0,0.0,0.0,0.0,0.0,0.0,0.0,0.0,0.0,0.0,0.0,0.0,0.0,0.0,0.0,0.0,0.0,0.0,0.0,0.0,0.0,0.0,0.0,0.0,0.0,0.0,0.0,0.0,0.0,0.0,0.0,0.0,0.0,0.0,0.0,0.0,0.0,0.0,0.0,0.0,0.0,0.0,0.0,0.0,0.0,0.0,0.0,0.0,0.0,0.0,0.0,0.0,0.0,0.0,0.0,0.0,4.2307,4.4483,4.8387,4.8506,4.8297,4.8297,4.5274,4.3319,4.329,4.1145,0.0,0.0,0.0,0.0,0.0,0.0,0.0,0.0,0.0,0.0,0.0,0.0,0.0,0.0,0.0,0.0,0.0,0.0,0.0,0.0,0.0,0.0,0.0,0.0,0.0,0.0,0.0,0.0,0.0,0.0,0.0,0.0,0.0,0.0,0.0,0.0,0.0,0.0,0.0,0.0,0.0,0.0,0.0,0.0,0.0,0.0,0.0,0.0,0.0,0.0,0.0,0.0,0.0,0.0,0.0,0.0,0.0,0.0,0.0,0.0,0.0,0.0,0.0,0.0,0.0,0.0,0.0,0.0,0.0,0.0,0.0,0.0,0.0,0.0,0.0,0.0,0.0,0.0,0.0,0.0,0.0,0.0,0.0,0.0,0.0,0.0,0.0,0.0,0.0,0.0,0.0,0.0,0.0,0.0,0.0,0.0,0.0,0.0,0.0,0.0,0.0,0.0,4.5611,4.6559,4.9254,4.8925,4.8446,4.8297,4.5095,4.314,4.329,4.0689,0.0,0.0,0.0,0.0,0.0,0.0,0.0,0.0,0.0,0.0,0.0,0.0,0.0,0.0,0.0,0.0,0.0,0.0,0.0,0.0,0.0,0.0,0.0,0.0,0.0,0.0,0.0,0.0,0.0,0.0,0.0,0.0,0.0,0.0,0.0,0.0,0.0,0.0,0.0,0.0,0.0,0.0,0.0,0.0,0.0,0.0,0.0,0.0,0.0,0.0,0.0,0.0,0.0,0.0,0.0,0.0,0.0,0.0,0.0,0.0,0.0,0.0,0.0,0.0,0.0,0.0,0.0,0.0,0.0,0.0,0.0,0.0,0.0,0.0,0.0,0.0,0.0,0.0,0.0,0.0,0.0,0.0,0.0,0.0,0.0,0.0,0.0,0.0,0.0,0.0,0.0,0.0,0.0,0.0,0.0,0.0,0.0,0.0,0.0,0.0,0.0,0.0,4.5386,4.7378,4.9865,4.9583,4.9,4.8327,4.4717,4.2671,4.326,4.0277,0.0,0.0,0.0,0.0,0.0,0.0,0.0,0.0,0.0,0.0,0.0,0.0,0.0,0.0,0.0,0.0,0.0,0.0,0.0,0.0,0.0,0.0,0.0,0.0,0.0,0.0,0.0,0.0,0.0,0.0,0.0,0.0,0.0,0.0,0.0,0.0,0.0,0.0,0.0,0.0,0.0,0.0,0.0,0.0,0.0,0.0,0.0,0.0,0.0,0.0,0.0,0.0,0.0,0.0,0.0,0.0,0.0,0.0,0.0,0.0,0.0,0.0,0.0,0.0,0.0,0.0,0.0,0.0,0.0,0.0,0.0,0.0,0.0,0.0,0.0,0.0,0.0,0.0,0.0,0.0,0.0,0.0,0.0,0.0,0.0,0.0,0.0,0.0,0.0,0.0,0.0,0.0,0.0,0.0,0.0,0.0,0.0,0.0,0.0,0.0,0.0,0.0,4.6682,4.8296,5.0,5.0213,4.9799,4.8657,4.582,4.3925,4.3608,0.0,0.0,0.0,0.0,0.0,0.0,0.0,0.0,0.0,0.0,0.0,0.0,0.0,0.0,0.0,0.0,0.0,0.0,0.0,0.0,0.0,0.0,0.0,0.0,0.0,0.0,0.0,0.0,0.0,0.0,0.0,0.0,0.0,0.0,0.0,0.0,0.0,0.0,0.0,0.0,0.0,0.0,0.0,0.0,0.0,0.0,0.0,0.0,0.0,0.0,0.0,0.0,0.0,0.0,0.0,0.0,0.0,0.0,0.0,0.0,0.0,0.0,0.0,0.0,0.0,0.0,0.0,0.0,0.0,0.0,0.0,0.0,0.0,0.0,0.0,0.0,0.0,0.0,0.0,0.0,0.0,0.0,0.0,0.0,0.0,0.0,0.0,0.0,0.0,0.0,0.0,0.0,0.0,0.0,0.0,0.0,0.0,0.0,0.0,0.0,0.0,0.0,4.5609,4.7519,4.9059,5.026,5.0647,5.0184,4.8636,4.6212,4.4519,4.3921,0.0,0.0,0.0,0.0,0.0,0.0,0.0,0.0,0.0,0.0,0.0,0.0,0.0,0.0,0.0,0.0,0.0,0.0,0.0,0.0,0.0,0.0,0.0,0.0,0.0,0.0,0.0,0.0,0.0,0.0,0.0,0.0,0.0,0.0,0.0,0.0,0.0,0.0,0.0,0.0,0.0,0.0,0.0,0.0,0.0,0.0,0.0,0.0,0.0,0.0,0.0,0.0,0.0,0.0,0.0,0.0,0.0,0.0,0.0,0.0,0.0,0.0,0.0,0.0,0.0,0.0,0.0,0.0,0.0,0.0,0.0,0.0,0.0,0.0,0.0,0.0,0.0,0.0,0.0,0.0,0.0,0.0,0.0,0.0,0.0,0.0,0.0,0.0,0.0,0.0,0.0,0.0,0.0,0.0,0.0,0.0,0.0,0.0,0.0,0.0,0.0,0.0,4.5196,4.7652,4.9686,5.0684,5.0812,5.008,4.8254,4.5658,4.4093,0.0,0.0,0.0,0.0,0.0,0.0,0.0,0.0,0.0,0.0,0.0,0.0,0.0,0.0,0.0,0.0,0.0,0.0,0.0,0.0,0.0,0.0,0.0,0.0,0.0,0.0,0.0,0.0,0.0,0.0,0.0,0.0,0.0,0.0,0.0,0.0,0.0,0.0,0.0,0.0,0.0,0.0,0.0,0.0,0.0,0.0,0.0,0.0,0.0,0.0,0.0,0.0,0.0,0.0,0.0,0.0,0.0,0.0,0.0,0.0,0.0,0.0,0.0,0.0,0.0,0.0,0.0,0.0,0.0,0.0,0.0,0.0,0.0,0.0,0.0,0.0,0.0,0.0,0.0,0.0,0.0,0.0,0.0,0.0,0.0,0.0,0.0,0.0,0.0,0.0,0.0,0.0,0.0,0.0,0.0,0.0,0.0,0.0,0.0,0.0,0.0,0.0,0.0,4.7671,4.9614,5.1118,5.1887,5.1699,5.0681,4.8635,4.645,4.4953,4.4296,0.0,0.0,0.0,0.0,0.0,0.0,0.0,0.0,0.0,0.0,0.0,0.0,0.0,0.0,0.0,0.0,0.0,0.0,0.0,0.0,0.0,0.0,0.0,0.0,0.0,0.0,0.0,0.0,0.0,0.0,0.0,0.0,0.0,0.0,0.0,0.0,0.0,0.0,0.0,0.0,0.0,0.0,0.0,0.0,0.0,0.0,0.0,0.0,0.0,0.0,0.0,0.0,0.0,0.0,0.0,0.0,0.0,0.0,0.0,0.0,0.0,0.0,0.0,0.0,0.0,0.0,0.0,0.0,0.0,0.0,0.0,0.0,0.0,0.0,0.0,0.0,0.0,0.0,0.0,0.0,0.0,0.0,0.0,0.0,0.0,0.0,0.0,0.0,0.0,0.0,0.0,0.0,0.0,0.0,0.0,0.0,0.0,0.0,0.0,0.0,0.0,0.0,4.7596,4.9868,5.1731,5.2579,5.2137,5.0968,4.8928,4.6891,4.5197,4.406,0.0,0.0,0.0,0.0,0.0,0.0,0.0,0.0,0.0,0.0,0.0,0.0,0.0,0.0,0.0,0.0,0.0,0.0,0.0,0.0,0.0,0.0,0.0,0.0,0.0,0.0,0.0,0.0,0.0,0.0,0.0,0.0,0.0,0.0,0.0,0.0,0.0,0.0,0.0,0.0,0.0,0.0,0.0,0.0,0.0,0.0,0.0,0.0,0.0,0.0,0.0,0.0,0.0,0.0,0.0,0.0,0.0,0.0,0.0,0.0,0.0,0.0,0.0,0.0,0.0,0.0,0.0,0.0,0.0,0.0,0.0,0.0,0.0,0.0,0.0,0.0,0.0,0.0,0.0,0.0,0.0,0.0,0.0,0.0,0.0,0.0,0.0,0.0,0.0,0.0,0.0,0.0,0.0,0.0,0.0,0.0,0.0,0.0,0.0,0.0,0.0,0.0,4.632,4.9413,5.2003,5.3037,5.232,5.0985,4.9162,4.6921,4.4993,4.3477,0.0,0.0,0.0,0.0,0.0,0.0,0.0,0.0,0.0,0.0,0.0,0.0,0.0,0.0,0.0,0.0,0.0,0.0,0.0,0.0,0.0,0.0,0.0,0.0,0.0,0.0,0.0,0.0,0.0,0.0,0.0,0.0,0.0,0.0,0.0,0.0,0.0,0.0,0.0,0.0,0.0,0.0,0.0,0.0,0.0,0.0,0.0,0.0,0.0,0.0,0.0,0.0,0.0,0.0,0.0,0.0,0.0,0.0,0.0,0.0,4.703,4.692,0.0,0.0,0.0,0.0,0.0,0.0,0.0,0.0,0.0,0.0,0.0,0.0,0.0,0.0,0.0,0.0,0.0,0.0,0.0,0.0,0.0,0.0,0.0,0.0,0.0,0.0,0.0,0.0,0.0,0.0,0.0,0.0,0.0,0.0,0.0,0.0,0.0,0.0,0.0,0.0,4.9419,5.1612,5.3608,5.4959,5.2841,5.072,4.9123,4.6413,4.4418,4.3443,4.2185,0.0,0.0,0.0,0.0,0.0,0.0,0.0,0.0,0.0,0.0,0.0,0.0,0.0,0.0,0.0,0.0,0.0,0.0,0.0,0.0,0.0,0.0,0.0,0.0,0.0,0.0,0.0,0.0,0.0,0.0,0.0,0.0,0.0,0.0,0.0,0.0,0.0,0.0,0.0,0.0,0.0,0.0,0.0,0.0,0.0,0.0,0.0,0.0,0.0,0.0,0.0,0.0,0.0,0.0,0.0,0.0,0.0,0.0,0.0,4.9254,4.8177,0.0,0.0,0.0,0.0,0.0,0.0,0.0,0.0,0.0,0.0,0.0,0.0,0.0,0.0,0.0,0.0,0.0,0.0,0.0,0.0,0.0,0.0,0.0,0.0,0.0,0.0,0.0,0.0,0.0,0.0,0.0,0.0,0.0,0.0,0.0,0.0,0.0,0.0,0.0,0.0,4.9603,5.1926,5.3788,5.4566,5.2604,5.0777,4.9627,4.6819,4.4621,4.3477,4.2354,0.0,0.0,0.0,0.0,0.0,0.0,0.0,0.0,0.0,0.0,0.0,0.0,0.0,0.0,0.0,0.0,0.0,0.0,0.0,0.0,0.0,0.0,0.0,0.0,0.0,0.0,0.0,0.0,0.0,0.0,0.0,0.0,0.0,0.0,0.0,0.0,0.0,0.0,0.0,0.0,0.0,0.0,0.0,0.0,0.0,0.0,0.0,0.0,0.0,0.0,0.0,0.0,0.0,5.3046,5.4289,5.5718,5.5927,5.5748,5.5119,5.2976,5.093,4.8985,4.9434,0.0,0.0,0.0,0.0,0.0,0.0,0.0,0.0,0.0,0.0,0.0,0.0,0.0,0.0,0.0,0.0,0.0,0.0,0.0,0.0,0.0,0.0,5.1067,5.1409,5.1999,5.1699,4.8592,0.0,0.0,0.0,0.0,0.0,0.0,0.0,0.0,0.0,0.0,0.0,4.8957,5.1598,5.3551,5.3687,5.2334,5.1048,5.0168,4.7631,4.5399,4.3707,4.2929,4.2151,0.0,0.0,0.0,0.0,0.0,0.0,0.0,0.0,0.0,0.0,0.0,0.0,0.0,0.0,0.0,0.0,0.0,0.0,0.0,0.0,0.0,0.0,0.0,0.0,0.0,0.0,0.0,0.0,0.0,0.0,0.0,0.0,4.6297,4.6384,0.0,0.0,0.0,0.0,0.0,0.0,0.0,0.0,0.0,0.0,0.0,0.0,0.0,5.1004,5.2266,5.4619,5.5746,5.5573,5.7362,5.8041,5.7782,5.8919,5.9398,5.9308,5.9578,0.0,5.1648,5.1169,0.0,0.0,0.0,0.0,0.0,0.0,0.0,0.0,0.0,0.0,0.0,0.0,0.0,0.0,0.0,0.0,0.0,0.0,0.0,0.0,0.0,0.0,5.217,5.3749,5.372,5.3011,5.1866,4.9958,4.8293,4.7538,4.5693,4.4471,0.0,0.0,0.0,0.0,0.0,0.0,4.9649,5.1933,5.3754,5.4397,5.3078,5.1589,5.0202,4.8578,4.6718,4.4581,4.3707,4.2929,4.2185,4.2252,0.0,0.0,0.0,0.0,0.0,0.0,0.0,0.0,0.0,0.0,0.0,0.0,0.0,0.0,0.0,0.0,0.0,0.0,0.0,0.0,0.0,0.0,0.0,0.0,0.0,0.0,0.0,0.0,0.0,4.8385,4.8803,4.8142,4.9498,4.9804,0.0,0.0,0.0,0.0,0.0,0.0,0.0,0.0,0.0,5.2741,5.4691,5.6533,5.8217,6.0075,6.1403,6.2271,6.3498,6.4126,6.4246,6.4844,6.5084,6.5084,6.4994,6.3324,6.0285,5.6193,5.3533,5.1917,0.0,0.0,0.0,0.0,5.1734,5.2645,5.326,5.3355,5.3321,5.3927,0.0,0.0,0.0,0.0,0.0,0.0,0.0,5.3406,5.4623,5.541,5.599,5.6389,5.619,5.5649,5.4465,5.2707,5.0928,4.9322,4.8163,4.7342,4.7168,4.6773,0.0,0.0,0.0,5.0783,5.1764,5.3179,5.4228,5.4566,5.3213,5.186,5.0811,4.939,4.7767,4.594,4.4722,4.3741,4.2963,4.2859,4.2953,0.0,0.0,0.0,0.0,0.0,0.0,0.0,0.0,0.0,0.0,0.0,0.0,0.0,0.0,0.0,0.0,0.0,0.0,0.0,0.0,0.0,0.0,0.0,0.0,0.0,0.0,0.0,0.0,5.0481,5.1289,5.0152,5.2217,5.2546,0.0,0.0,0.0,0.0,0.0,0.0,5.4451,5.585,5.7196,5.8629,6.0298,6.2002,6.3857,6.4964,6.6281,6.7777,6.8585,6.9243,6.9752,7.038,7.054,7.0358,7.028,6.9746,6.8332,6.1477,5.7709,5.6158,5.4599,5.456,5.5359,5.5435,5.6105,5.712,5.7816,5.7761,5.74,5.739,5.6734,5.5634,5.4173,0.0,0.0,0.0,0.0,5.6739,5.767,5.8777,5.9505,5.9133,5.8896,5.8389,5.7103,5.5818,5.4025,5.098,5.0236,4.9877,4.9194,4.8597,0.0,4.9958,5.0955,5.2028,5.3349,5.4126,5.46,5.46,5.3416,5.23,5.1555,5.0473,4.912,4.7462,4.6481,4.532,4.3775,4.3761,4.3503,4.2888,0.0,0.0,0.0,0.0,0.0,0.0,0.0,0.0,0.0,0.0,0.0,0.0,0.0,0.0,0.0,0.0,0.0,0.0,0.0,0.0,0.0,0.0,0.0,0.0,0.0,0.0,0.0,0.0,0.0,5.2127,5.5478,0.0,0.0,0.0,0.0,5.5777,5.6982,5.8543,6.0544,6.1945,6.3559,6.5412,6.6251,6.7268,6.8645,6.9333,6.9722,6.9842,7.1098,7.1697,7.1822,7.3989,7.4686,7.4222,7.5736,7.5195,7.2796,6.5728,6.2475,6.1781,5.9736,5.8976,5.9021,5.9021,5.9484,6.0146,6.0482,6.1009,6.1664,6.2724,6.2099,6.0646,5.9126,5.865,0.0,0.0,5.9257,6.0207,6.1733,6.1631,6.1366,6.2009,6.1637,6.0892,6.0047,5.9268,5.7239,5.2131,5.0574,5.0101,5.0035,0.0,5.024,5.1017,5.2403,5.3382,5.3518,5.4126,5.46,5.46,5.389,5.3112,5.23,5.2198,5.1217,4.9018,4.9404,4.818,4.4677,4.5146,4.5164,4.4479,4.3796,0.0,0.0,0.0,0.0,0.0,0.0,0.0,0.0,0.0,0.0,0.0,0.0,0.0,0.0,0.0,0.0,0.0,0.0,0.0,0.0,0.0,0.0,0.0,0.0,0.0,0.0,0.0,0.0,5.7902,6.1044,0.0,5.886,5.9219,5.9907,6.0565,6.2211,6.4066,6.6071,6.7807,6.9453,7.1038,7.1308,7.2086,7.3432,7.3672,7.4547,7.6043,7.6502,7.7343,7.8469,7.9258,7.9255,7.8589,7.8723,7.8429,7.7474,7.4042,7.068,6.7521,6.5947,6.582,6.6518,6.6565,6.6898,6.7468,6.8059,6.7477,6.6244,6.4694,6.3226,6.1907,6.1366,6.1535,6.2009,6.2482,6.3125,6.3937,6.4986,6.4681,6.4208,6.4444,6.3599,6.2516,6.1738,6.0994,5.9641,5.6799,5.4871,5.3551,5.3078,5.2604,5.2706,5.3923,5.4532,5.5108,5.5581,5.5446,5.531,5.531,5.4228,5.3179,5.2367,5.2309,5.1764,5.0493,4.9652,4.8644,4.7387,4.6472,4.5681,4.5057,4.4671,4.4788,0.0,0.0,0.0,0.0,0.0,0.0,0.0,0.0,0.0,0.0,0.0,0.0,0.0,0.0,0.0,0.0,0.0,0.0,0.0,0.0,0.0,0.0,0.0,0.0,0.0,5.883,6.2002,6.269,6.5652,6.6729,6.4306,6.4485,6.5114,6.5981,6.7687,6.9542,7.1547,7.3073,7.439,7.5497,7.5557,7.6292,7.7759,7.7759,7.8746,8.0634,8.0634,8.1124,8.2038,8.2533,8.2519,8.2066,8.2242,8.2017,8.1469,8.056,7.7973,7.4366,7.2569,7.2299,7.3007,7.3056,7.3136,7.3206,7.3172,7.1684,6.9519,6.7523,6.5696,6.4241,6.4241,6.4613,6.5087,6.5595,6.6271,6.6948,6.7455,6.7218,6.6711,6.6203,6.5324,6.4343,6.3362,6.255,6.1748,6.0802,5.854,5.6596,5.5818,5.531,5.5412,5.663,5.663,5.6731,5.7442,5.6697,5.5987,5.575,5.46,5.345,5.2401,5.258,5.2069,5.0557,5.0142,4.9366,4.8106,4.7648,4.698,4.6129,4.5765,4.5588,4.5641,0.0,0.0,0.0,0.0,0.0,0.0,0.0,0.0,0.0,0.0,0.0,0.0,0.0,0.0,0.0,0.0,0.0,0.0,0.0,0.0,0.0,0.0,0.0,5.8411,6.2301,6.5503,6.6191,6.9183,7.044,6.8525,6.9542,7.0829,7.2086,7.3402,7.4958,7.6874,7.7592,7.825,7.8908,7.9011,7.9921,8.1604,8.174,8.2304,8.3352,8.332,8.2935,8.2385,8.3873,8.4613,8.4639,8.6231,8.6095,8.4708,8.4708,8.3862,8.2272,7.9295,7.8111,7.8111,7.8111,7.7638,7.6792,7.5202,7.324,7.1447,7.1413,6.9857,6.803,6.803,6.803,6.7996,6.7996,6.8571,6.918,6.918,6.9147,6.8774,6.7286,6.6914,6.6474,6.4986,6.4106,6.3645,6.3742,6.1336,5.9004,5.8157,5.8022,5.8259,5.893,5.846,0.0,5.893,5.7746,5.6562,5.5887,5.5108,5.4093,5.2635,5.3144,5.2297,4.9345,5.0976,5.0462,4.6847,4.8651,4.9131,4.7772,4.7027,4.6579,4.6458,0.0,0.0,0.0,0.0,0.0,0.0,0.0,0.0,0.0,0.0,0.0,0.0,0.0,0.0,0.0,0.0,0.0,0.0,0.0,0.0,0.0,6.2331,6.4784,6.269,6.6789,7.062,7.2235,7.5347,7.7143,7.6604,7.7322,7.7981,7.834,7.9118,7.9836,8.0405,8.1033,8.1691,8.235,8.3789,8.4742,8.5211,8.6616,8.7817,8.8846,8.8322,8.8551,8.9532,8.888,8.8338,8.78,8.7721,8.7144,8.6298,8.6298,8.6027,8.5384,8.2374,8.119,8.119,8.119,8.0378,7.8923,7.6318,7.4999,7.4322,7.324,7.209,7.1176,7.1176,7.0804,7.0364,7.0364,7.0534,7.0703,7.0703,7.0297,6.9789,6.935,6.8842,6.8064,6.6542,6.6547,6.66,6.559,6.5229,6.4114,6.1049,6.1014,6.1083,5.9967,6.02,6.0143,5.9106,5.8186,5.7763,5.8186,5.7082,5.6376,5.6549,5.5645,5.4224,5.2164,5.1477,5.0453,4.8858,4.8732,4.8835,4.9055,4.9419,4.9867,0.0,0.0,0.0,0.0,0.0,0.0,0.0,0.0,0.0,0.0,0.0,0.0,0.0,0.0,0.0,0.0,0.0,0.0,0.0,0.0,0.0,0.0,6.7956,7.0889,7.1009,7.3193,7.5527,7.7532,7.9716,8.1153,8.1422,8.1811,8.214,8.2409,8.3535,8.4359,8.4664,8.5857,8.6423,8.6214,8.8172,8.915,8.9038,9.0646,9.1991,9.2982,9.2248,9.2098,9.2387,9.1541,9.0729,8.9951,8.9241,8.8497,8.7786,8.7482,8.7177,8.6704,0.0,0.0,0.0,0.0,8.1934,8.0344,7.828,7.6961,7.6014,7.4796,7.3916,7.3206,7.2597,7.209,7.1718,7.1413,7.1312,7.1312,7.1312,7.0973,7.0567,7.0263,7.0182,6.9875,6.8644,6.8912,6.9231,6.8717,6.8531,0.0,6.5459,6.461,6.3853,6.2818,6.2579,6.2022,6.0688,5.9872,5.9356,5.9179,5.8116,5.7333,5.7233,5.5971,0.0,0.0,0.0,5.1082,5.0618,5.0105,0.0,0.0,0.0,5.1952,5.2284,5.2173,0.0,0.0,5.21,5.2801,0.0,0.0,0.0,0.0,0.0,0.0,0.0,0.0,0.0,0.0,0.0,0.0,0.0,0.0,0.0,0.0,7.3612,7.7173,8.0943,8.0494,8.0405,8.202,8.2888,8.3547,8.4115,8.4466,8.4813,8.5461,8.7345,8.8744,8.9336,9.0969,0.0,0.0,0.0,9.3223,9.3115,9.435,9.5419,9.6277,9.5567,9.4451,9.3064,9.2895,9.2353,9.1508,9.0763,9.0019,8.9275,8.8531,8.7753,8.6941,8.6095,8.579,8.5587,8.4065,8.2678,8.1426,8.0615,0.0,0.0,7.6352,7.554,7.4593,7.3206,7.2699,7.2496,7.165,7.1447,7.1413,7.1345,7.1367,7.1287,7.0653,7.124,7.1787,7.1062,7.1141,7.1621,7.2299,7.1332,7.0413,7.0413,6.8339,6.6541,6.6235,6.5131,6.3912,6.2753,6.2068,6.1168,5.9685,5.8888,0.0,5.67,5.562,5.4127,5.1989,5.2042,5.2159,5.2139,5.2197,5.2312,5.2336,5.3146,5.343,5.3192,5.3997,5.5067,5.6251,5.4952,5.4969,0.0,0.0,0.0,0.0,0.0,0.0,0.0,0.0,0.0,0.0,0.0,0.0,0.0,0.0,0.0,7.4988,7.9178,8.2828,8.5192,8.5791,8.5731,8.5013,8.6,8.6808,8.6928,8.8834,9.0144,9.0267,9.2163,9.3291,9.345,9.3811,9.413,9.4469,9.6366,9.7302,9.72,9.905,9.9783,9.9356,9.8612,0.0,9.6886,9.5669,9.4417,9.3098,9.2319,9.1575,9.0797,9.0087,8.9004,8.7651,8.6298,8.579,8.5587,8.4065,8.3321,8.2881,8.1528,8.0412,7.9431,7.8686,7.7536,7.6284,7.5337,7.4661,0.0,7.2563,7.2191,7.2056,7.1447,7.1917,7.2464,7.2326,7.3083,7.3582,7.2882,7.3333,7.378,7.3333,7.3115,7.2988,7.2988,7.0968,6.8651,6.6508,6.661,6.5878,6.3029,6.2567,6.2386,6.2123,6.1365,6.1081,6.1412,5.9504,5.7546,5.5842,5.3975,5.2987,5.2947,5.3592,5.4117,5.4501,5.5282,5.5847,5.617,5.7037,5.81,5.932,5.7715,5.7434,0.0,0.0,0.0,0.0,0.0,0.0,0.0,0.0,0.0,0.0,0.0,6.646,6.9423,0.0,7.7442,8.0734,8.4306,8.7509,8.9826,9.1345,9.1269,8.8928,8.9199,9.0309,9.201,9.3422,9.4265,9.4644,9.6464,9.7411,9.7086,9.8027,9.826,9.7574,9.9511,10.0018,9.8966,10.0612,10.1183,10.0811,9.9999,9.9254,9.851,9.7394,9.6277,9.5161,9.4045,9.3131,9.2319,9.0831,8.9782,8.8937,8.7482,8.6433,8.5689,8.4911,8.4167,8.3389,8.2644,8.19,8.119,8.0445,7.9464,7.828,7.6758,7.5777,7.4762,7.2935,7.305,7.346,7.2364,7.3074,7.4067,7.3641,7.431,7.4941,7.4583,7.5243,7.5835,7.5466,7.5122,7.4771,7.4368,7.2973,7.1026,6.8542,6.8209,6.7345,6.4875,6.4579,6.4419,6.3986,6.3275,6.3033,6.3441,6.1227,5.9281,5.8084,5.6492,5.5727,5.6006,5.6376,5.6809,5.728,5.8107,5.8751,5.9193,6.0469,6.1317,6.1747,6.2195,6.1952,0.0,0.0,0.0,0.0,0.0,0.0,0.0,6.2241,6.3797,6.658,6.9662,7.3013,7.6754,7.99,8.3114,8.6627,8.9728,9.24,9.4587,9.6323,9.6434,9.4083,9.3302,9.4039,9.6666,9.7405,9.7809,9.826,10.0089,10.0871,10.0142,10.1584,10.1783,10.0076,10.1717,10.1684,10.0109,10.1079,10.1589,10.1589,10.1014,10.0303,9.9525,9.8916,9.8104,9.7022,9.5567,9.4417,9.3436,9.1609,9.0594,9.0087,8.8903,8.7516,8.6163,8.5892,8.5012,8.393,8.3761,8.3219,8.2561,8.2174,8.1562,8.0625,7.8805,7.7656,7.6529,7.4353,7.4636,7.529,7.3717,7.4519,7.5607,7.4787,7.5369,7.6094,7.6094,7.6728,7.7273,7.7273,7.6644,7.5909,7.5249,7.4331,7.2936,7.066,6.9779,6.875,6.7092,6.6929,6.6555,6.5504,6.4885,6.442,6.4127,6.234,6.0903,6.013,5.9567,5.9467,5.9866,5.9885,6.0135,6.061,6.1237,6.1831,6.2299,6.38,6.4364,6.4089,6.632,6.609,5.8022,5.8022,5.8919,6.1822,6.2151,6.3139,0.0,6.9692,7.0739,7.4031,7.6844,7.9567,8.235,8.6502,9.0278,9.2459,9.6188,9.8819,9.9138,9.9398,10.0075,10.1518,9.9481,9.786,9.7637,9.9694,10.0892,10.03,10.2122,10.2886,10.2178,10.2373,10.2437,10.2209,10.2373,10.2373,10.2243,10.2271,10.2401,10.2401,10.2299,10.1893,10.1081,10.1081,9.9863,9.78,9.6311,9.489,9.3571,9.33,9.2015,9.0188,9.0019,8.9038,8.7583,8.6264,8.5689,8.5418,8.4742,8.3998,8.353,8.4545,8.435,8.3655,8.3121,8.2368,8.1275,7.9023,7.7934,7.7126,7.561,7.601,7.6622,7.5829,7.6396,7.715,7.715,7.7212,7.7273,7.7273,7.6644,7.6056,7.5983,7.4698,7.312,7.1431,7.1073,7.0449,6.8825,6.8623,6.8064,6.6516,6.6276,6.5632,6.42,6.4285,6.4033,6.3236,6.3551,6.3823,6.3879,6.3879,6.4095,6.4549,6.4626,6.4938,6.5385,6.6307,6.6718,6.6705,6.7744,6.7321,6.0984,6.1283,6.2241,6.5203,6.7178,6.9333,7.2984,7.4689,7.6425,7.9776,8.2858,8.5791,8.8424,9.2537,9.5938,9.71,10.0767,10.3645,10.3645,10.4198,10.46,10.4633,10.3577,10.2826,10.2391,10.3385,10.3998,10.3562,10.4404,10.4599,10.3787,10.3382,10.3111,10.3111,10.2705,10.2502,10.2502,10.2502,10.2502,10.2502,10.2502,10.2299,10.1995,10.1589,10.0371,9.8544,9.7056,9.6074,9.5398,9.4112,9.3451,9.3168,9.1809,9.1417,9.121,8.8485,8.7212,8.6834,8.6691,8.6498,8.6316,8.6803,8.6147,8.5089,8.4526,8.3493,8.204,7.9737,7.9604,7.9634,7.7592,7.8201,7.9026,7.775,7.7751,7.7928,7.7384,7.7273,7.7273,7.7273,7.7017,7.6644,7.6166,7.5542,7.4698,7.3597,7.2202,7.0917,6.9743,6.9596,6.9339,6.8678,6.8605,6.8462,6.8136,6.7895,6.7733,6.7727,6.7482,6.7486,6.7794,6.7812,6.8035,6.8498,6.8038,6.7917,6.8129,6.8936,6.9052,6.8667,7.0514,7.0706,6.3109,6.4336,6.6101,6.9123,7.2355,7.5437,7.7801,7.9836,8.214,8.5252,8.8547,9.1687,9.4137,9.8042,10.1207,10.2093,10.5365,10.7861,10.7662,10.7963,10.7813,10.6291,10.558,10.5208,10.5208,10.558,10.5817,10.5817,10.5817,10.5479,10.4701,10.399,10.3585,10.3585,10.2908,10.2603,10.2806,10.2603,10.2603,10.2806,10.2603,10.2502,10.2502,10.1487,10.0472,9.9322,9.7834,9.7299,9.7346,9.577,9.5465,9.5872,9.399,9.3621,9.3769,9.1029,8.9367,8.8404,8.8541,8.84,8.8268,8.8614,8.7963,8.6902,8.6281,8.511,8.3646,8.1571,8.174,8.2069,7.9856,8.0296,8.0865,7.9029,7.8589,7.8369,7.7494,7.7273,7.7273,7.7273,7.7273,7.709,7.6533,7.624,7.5909,7.5322,7.356,7.2018,7.1211,7.0697,7.0487,7.0669,7.0696,7.0913,7.1532,7.1179,7.111,7.15,7.0877,7.0695,7.1111,7.1111,7.1291,7.1629,7.1052,7.0744,7.0744,7.1321,7.1321,7.0783,7.27,7.324,6.3617,6.637,6.9782,7.3702,7.7143,8.0464,8.3696,8.6,8.8185,9.0848,9.4116,9.7174,9.9252,10.3137,10.6379,10.7754,11.0416,11.2073,11.1295,11.0046,10.8591,10.7001,10.4971,10.3686,10.3686,10.5005,10.5817,10.5817,10.5817,10.5479,10.4701,10.399,10.3585,10.3585,10.2908,10.2806,10.3585,10.2908,10.2908,10.3585,10.2806,10.2502,10.2434,10.0912,10.0235,10.01,9.8612,9.8369,9.8935,9.8866,9.8319,9.7428,9.6614,9.5375,9.4078,9.3602,9.2183,9.0407,8.972,8.8896,8.8402,8.963,8.9965,8.9802,8.9386,8.8651,8.7696,8.6045,8.5055,8.4135,8.2484,8.215,8.1562,7.9176,7.8589,7.8369,7.7494,7.7273,7.7273,7.7273,7.7273,7.7273,7.7273,7.6644,7.6093,7.6056,7.5359,7.4515,7.367,7.2239,7.1489,7.2087,7.2149,7.2365,7.2994,7.3498,7.3794,7.3812,7.3545,7.337,7.3409,7.3409,7.3423,7.3423,7.3399,7.3399,7.3399,7.3399,7.3399,7.3399,7.3671,7.3777,6.7358,7.1009,7.5138,7.9118,8.2589,8.5671,8.8095,9.019,9.2224,9.4503,9.5443,9.6559,9.9089,10.2291,10.5193,10.7137,11.0723,11.2989,11.2177,11.167,10.9877,10.5885,10.5208,10.4498,10.3009,10.4193,10.5276,10.5783,10.6291,10.6392,10.6189,10.5479,10.4802,10.4295,10.3585,10.3314,10.3585,10.2908,10.2908,10.3585,10.2908,10.2502,10.2533,10.19,10.163,10.1621,10.1008,10.0894,10.1099,10.0572,10.0413,10.0302,9.8401,9.7524,9.7246,9.6089,9.4879,9.3651,9.238,9.1687,9.1439,9.1279,9.0882,9.0372,9.0227,8.9638,8.8683,8.7068,8.6407,8.582,8.4205,8.3398,8.2663,8.1305,8.0167,7.9176,7.8332,7.7708,7.7273,7.7273,7.7273,7.7273,7.7273,7.743,7.7523,7.7366,7.6345,7.5466,7.5197,7.5021,7.5017,7.5229,7.5238,7.5523,7.6102,7.6332,7.655,7.693,7.6878,7.6592,7.6053,7.6015,7.5745,7.5168,7.4591,7.4322,7.4322,7.5002,7.5357,7.5395,7.6739,7.739,7.1816,7.6125,8.0494,8.3995,8.7197,8.986,9.1357,9.3288,9.4965,9.5975,9.6463,9.7224,9.8692,10.0875,10.3307,10.5734,10.8768,11.0993,11.1602,11.079,10.8963,10.5885,10.5005,10.4092,10.2603,10.3585,10.4701,10.5716,10.6494,10.69,10.69,10.6494,10.5885,10.5107,10.4396,10.4092,10.4396,10.3686,10.3382,10.3585,10.3414,10.3291,10.3286,10.3381,10.3399,10.3106,10.2828,10.2801,10.2938,10.2403,10.2383,10.2403,10.0587,9.9557,9.8961,9.7603,9.6612,9.5731,9.441,9.3602,9.3015,9.2464,9.1693,9.0996,9.0702,9.0262,8.9491,8.7876,8.7435,8.7068,8.5453,8.4646,8.3911,8.2517,8.1415,8.0351,7.925,7.8369,7.7806,7.8035,7.7873,7.7739,7.7951,7.8352,7.8566,7.8435,7.7838,7.7123,7.6343,7.6563,7.69,7.7093,7.7379,7.7794,7.8379,7.8453,7.8611,7.8923,7.8669,7.8246,7.7746,7.7707,7.7323,7.6476,7.5988,7.5593,7.5246,7.6366,7.6856,7.6895,7.8518,7.9259,7.6754,8.1512,8.5641,8.8274,9.0818,9.2823,9.3421,9.5079,9.6218,9.5445,9.7168,9.8592,9.7908,9.8981,10.1014,10.399,10.5377,10.7103,11.0114,10.8016,10.6426,10.6967,10.4599,10.2908,10.2705,10.3382,10.4396,10.5783,10.6494,10.69,10.6967,10.6967,10.6595,10.5817,10.5107,10.5073,10.5817,10.5073,10.4394,10.3681,10.4269,10.457,10.4713,10.5485,10.5412,10.4579,10.3904,10.3888,10.4391,10.4391,10.4208,10.3806,10.2999,10.12,9.8998,9.819,9.7383,9.6575,9.5841,9.4556,9.3198,9.3125,9.2537,9.173,9.0922,9.0665,9.0335,8.8757,8.828,8.7912,8.6334,8.5857,8.5196,8.292,8.2296,8.1815,8.0304,7.9312,7.8896,7.9493,7.8959,7.86,7.9152,7.9244,7.9267,7.929,7.9806,7.9378,7.7225,7.6992,7.7265,7.7817,7.856,7.9239,7.9831,7.9862,7.9862,7.9862,7.9107,7.8637,7.8599,7.8575,7.8243,7.7434,7.7599,7.7285,7.6443,7.7515,7.8044,7.8051,7.9066,7.9544,8.1781,8.597,8.9651,9.1805,9.2823,9.3361,9.3541,9.3577,9.3851,9.4385,9.2893,9.1814,9.2838,9.5197,9.8104,10.169,10.6088,11.0012,11.2414,11.2583,11.1501,10.8896,10.8896,10.8016,10.5208,10.6122,10.6798,10.6595,10.6798,10.7103,10.7712,10.7712,10.7103,10.5817,10.5614,10.5614,10.5817,10.5073,10.4877,10.521,10.4781,10.5192,10.6315,10.7017,10.6787,10.6083,10.6404,10.6304,10.5911,10.5911,10.5095,10.3806,10.2999,10.12,9.8998,9.819,9.7383,9.6685,9.6465,9.5731,9.4703,9.3492,9.2941,9.2611,9.1767,9.1473,9.1289,9.0262,8.9564,8.8867,8.7839,8.6701,8.5637,8.5013,8.3508,8.2233,8.2297,8.1228,8.0442,8.1007,8.0491,7.9929,7.9861,7.9868,8.0046,8.0555,8.0733,8.0455,7.9397,7.9665,8.0047,8.0241,8.0411,8.0597,8.0769,8.0785,8.0785,8.0785,8.0715,8.0357,7.9699,7.9851,7.9534,7.8728,7.8781,7.8698,7.8465,7.9472,8.0003,8.0007,8.107,8.1557,8.6659,9.0219,9.3092,9.4199,9.4259,9.3661,9.2194,9.1885,9.1402,8.9939,8.846,8.7548,8.7846,9.0865,9.4586,9.8307,10.3686,10.8591,11.2109,11.2414,11.1873,11.079,11.079,10.9978,10.7509,10.8321,10.8828,10.8422,10.8084,10.8084,10.849,10.8828,10.8321,10.6832,10.7394,10.7797,10.783,10.7001,10.6726,10.6716,10.6591,10.7007,10.7819,10.8799,10.868,10.7599,10.8024,10.7477,10.6376,10.6376,10.5605,10.432,10.3513,10.2008,9.9989,9.8851,9.7933,9.7163,9.6832,9.6392,9.5768,9.4153,9.3382,9.2941,9.206,9.1803,9.162,9.0849,9.0298,8.9819,8.9347,8.8265,8.7327,8.7298,8.5939,8.4709,8.4721,8.3752,8.2824,8.2718,8.2622,8.2391,8.1881,8.1878,8.208,8.2469,8.2494,8.2393,8.2,8.1523,8.1258,8.1335,8.1347,8.1347,8.1347,8.1347,8.1347,8.1347,8.1469,8.1291,8.0825,8.0923,8.0559,7.9749,7.9825,7.9667,7.9283,8.0335,8.0836,8.0877,8.1833,8.2304,9.1357,9.408,9.5845,9.5845,9.5097,9.3567,9.0579,8.9643,8.8317,8.4277,8.3959,8.4184,8.3125,8.667,9.1169,9.5398,10.0405,10.5682,11.1196,11.0892,11.079,11.2685,11.1805,11.0689,10.9877,11.0486,11.079,11.0486,10.9911,10.9572,10.9471,11.0253,11.012,10.8656,10.9811,11.0503,11.0527,10.9713,10.9115,10.848,10.9014,10.9268,10.9463,11.0691,11.0414,10.8982,10.8799,10.7991,10.6706,10.6486,10.6009,10.5201,10.4394,10.2999,10.1274,9.9916,9.8819,9.7942,9.7244,9.7026,9.6695,9.4889,9.386,9.3198,9.2242,9.2018,9.1976,9.1276,9.0946,9.0895,9.0826,9.0228,8.9593,8.9544,8.891,8.8116,8.7496,8.6752,8.5844,8.4825,8.5135,8.5351,8.4599,8.4563,8.4622,8.4622,8.4622,8.463,8.466,8.298,8.1843,8.2014,8.196,8.1882,8.1882,8.1766,8.1688,8.1688,8.1749,8.1725,8.1725,8.1785,8.1409,8.0676,8.0835,8.0527,7.9792,8.0736,8.1172,8.1172,8.1953,8.2304,9.5695,9.6803,9.7162,9.7162,9.5037,9.2531,9.1095,8.6473,8.2429,8.2113,7.9989,7.8519,7.9683,8.4031,8.9715,9.6514,10.1487,10.6967,11.4038,11.4816,11.4816,11.5222,11.5019,11.4308,11.2989,11.3496,11.3192,11.1298,11.167,11.167,11.1061,11.2295,11.2696,11.1906,11.1531,11.1303,11.1306,11.0618,11.0729,11.1735,11.0512,11.0622,11.1787,11.1426,11.0707,10.979,10.9092,10.8615,10.8285,10.689,10.6302,10.6082,10.5201,10.3513,10.1494,10.12,10.0201,9.8893,9.8744,9.8623,9.8111,9.5254,9.4627,9.4697,9.3244,9.3233,9.3668,9.3518,9.2955,9.2411,9.2401,9.1788,9.1202,9.1186,9.0722,9.041,9.0839,9.0286,8.9443,8.8603,8.7973,8.7569,8.7383,8.6794,8.639,8.639,8.639,8.6441,8.6605,8.4968,8.3796,8.3836,8.3213,8.2785,8.2785,8.2116,8.1688,8.1688,8.1861,8.1962,8.1962,8.2115,8.2139,8.1984,8.1988,8.1951,8.1795,8.1992,8.207,8.207,8.2226,8.2304,9.7491,9.8269,9.8448,9.8119,9.5755,9.2297,8.7732,8.3582,7.9926,7.7397,7.6126,7.5983,7.7647,8.2543,8.7854,9.259,9.7461,10.3212,11.0722,11.1737,11.282,11.5526,11.5831,11.5391,11.4308,11.4816,11.468,11.3192,11.4585,11.4693,11.2706,11.3303,11.401,11.4485,11.3288,11.2786,11.319,11.288,11.2783,11.3126,11.1888,11.1705,11.2396,11.1588,11.0781,10.9973,10.9606,10.8909,10.8107,10.7807,10.742,10.6978,10.6586,10.5689,10.4606,10.3301,10.2307,10.1507,10.0719,10.0292,9.9975,9.8039,9.7066,9.641,9.524,9.4791,9.4733,9.4733,9.413,9.3569,9.3972,9.3516,9.3093,9.3501,9.3123,9.2809,9.3129,9.2887,9.2368,9.1559,9.113,9.0768,9.0345,9.0013,8.9661,8.9193,8.9154,8.9011,8.8653,8.781,8.6769,8.5438,8.4501,8.3994,8.3994,8.317,8.2702,8.2702,8.2349,8.217,8.217,8.2263,8.2304,8.2304,8.2304,8.2304,8.2304,8.2304,8.2304,8.2304,8.2304,8.2304,9.9137,10.013,10.0521,9.9969,9.7257,9.2863,8.5832,8.1838,7.8427,7.3996,7.36,7.4617,7.6347,8.0851,8.5384,8.8564,9.2793,9.851,10.6629,10.8016,11.0114,11.5019,11.5729,11.5705,11.5492,11.5968,11.5968,11.5325,11.6817,11.7034,11.511,11.4529,11.4878,11.6281,11.4884,11.4523,11.5112,11.5112,11.4708,11.3791,11.2983,11.2579,11.2396,11.1588,11.0891,11.0311,11.027,10.9698,10.8676,10.9229,10.9115,10.8701,10.8516,10.8283,10.7679,10.5785,10.481,10.4285,10.2999,10.2393,10.2191,10.1497,9.9958,9.8155,9.7388,9.6484,9.5755,9.5755,9.5212,9.4825,9.5571,9.5481,9.5324,9.5971,9.5603,9.5089,9.4977,9.4945,9.4718,9.4056,9.3876,9.3739,9.327,9.3194,9.2929,9.2226,9.1992,9.1601,9.0937,9.0508,8.9492,8.75,8.6172,8.5547,8.5703,8.4609,8.3945,8.414,8.3359,8.2773,8.2578,8.2578,8.25,8.2304,8.2304,8.2304,8.2304,8.2304,8.2304,8.2304,8.2304,8.2304,10.2358,10.3834,10.4301,10.4294,10.0298,9.5034,8.9967,8.2597,7.6589,7.5606,7.3973,7.3409,7.5436,7.7942,8.1765,8.8057,9.0628,9.5364,10.558,10.8185,11.0486,11.4308,11.5391,11.638,11.7816,11.7987,11.7779,11.6984,11.6523,11.6982,11.9035,11.7005,11.6296,11.708,11.6174,11.5827,11.5883,11.5883,11.5479,11.4708,11.3901,11.3093,11.2396,11.1588,11.1184,11.1082,11.1175,11.1499,11.1984,11.1403,11.1506,11.2076,11.127,11.0202,10.8918,10.8616,10.749,10.6209,10.598,10.5424,10.4799,10.4684,10.2493,9.9845,9.903,9.8102,9.7308,9.7308,9.6853,9.656,9.7417,9.778,9.8024,9.8312,9.7733,9.6995,9.6437,9.6325,9.6286,9.6208,9.5584,9.5272,9.5976,9.5468,9.4922,9.4844,9.4179,9.3633,9.3554,9.2148,9.1094,9.0859,8.8672,8.7578,8.8281,8.6172,8.5117,8.5898,8.5156,8.4297,8.3515,8.3476,8.3125,8.2304,8.2304,8.2304,8.2304,8.2304,8.2304,8.2304,8.2304,8.2304,10.1478,10.4435,10.6023,10.516,10.0881,9.5197,8.8862,8.257,7.7238,7.4356,7.3417,7.3519,7.4803,7.6893,7.96,8.3152,8.4979,8.8801,9.7022,9.9119,10.2883,11.1159,11.2802,11.5048,11.9419,11.9406,11.9186,11.9384,11.9068,11.9111,11.9587,11.7828,11.6892,11.7194,11.592,11.5516,11.5993,11.5516,11.5406,11.5479,11.4718,11.4164,11.391,11.3218,11.2814,11.2814,11.2918,11.2685,11.2605,11.278,11.2801,11.2679,11.2927,11.2589,11.1991,11.16,11.0812,10.9687,10.9304,10.83,10.698,10.6321,10.4592,10.2482,10.151,9.9823,9.8421,9.9068,9.833,9.7625,9.8652,9.909,9.92,9.8956,9.8618,9.8154,9.7382,9.7226,9.7226,9.7226,9.6953,9.6836,9.7148,9.6914,9.6523,9.6054,9.5703,9.5273,9.4765,9.3934,9.3403,9.3403,9.0776,8.914,8.9453,8.8086,8.7344,8.7695,8.6445,8.5273,8.4414,8.4375,8.3711,8.2344,8.2812,8.2812,8.2304,8.2304,8.2304,8.2304,8.2304,8.2304,9.9468,10.4039,10.7116,10.6089,10.1674,9.5772,8.8921,8.3052,7.7965,7.3857,7.3304,7.3713,7.4458,7.6284,7.8145,7.9634,8.1291,8.4674,9.1169,9.3505,9.7804,10.6698,10.9094,11.2294,11.7866,11.9373,12.022,12.0825,12.0086,11.9467,11.8925,11.7593,11.6801,11.6801,11.5699,11.5588,11.6388,11.5909,11.59,11.6503,11.568,11.5207,11.4908,11.4208,11.3911,11.3907,11.4205,11.3884,11.3379,11.4284,11.4311,11.3891,11.4604,11.4699,11.449,11.4181,11.348,11.2708,11.2094,11.0692,10.9005,10.758,10.5913,10.4187,10.3279,10.1283,9.9463,10.0194,9.9669,9.9073,9.9966,10.029,10.0283,9.9882,9.9375,9.8828,9.8203,9.789,9.7695,9.7695,9.7695,9.7695,9.7695,9.7695,9.75,9.6953,9.664,9.6249,9.5579,9.5069,9.4773,9.4691,9.2493,9.1045,9.1045,8.9797,8.9136,8.9453,8.789,8.6562,8.5703,8.5429,8.4609,8.3086,8.3672,8.3554,8.2695,8.2695,8.2539,8.2304,8.2304,8.2304,9.6806,10.2979,10.7962,10.8006,10.3485,9.7529,9.1517,8.4418,7.8247,7.5188,7.4018,7.3713,7.4458,7.5879,7.7401,7.8889,8.0987,8.4505,9.0459,9.436,9.7792,10.1068,10.4411,10.8105,11.2631,11.7661,12.0807,12.0826,11.8607,11.7183,11.7236,11.6491,11.5993,11.5993,11.5993,11.6396,11.7386,11.7426,11.7415,11.7609,11.6669,11.5911,11.5114,11.4288,11.3911,11.3869,11.479,11.521,11.5189,11.6114,11.6484,11.6512,11.6805,11.6417,11.5692,11.6001,11.5585,11.469,11.3911,11.251,11.0716,10.8705,10.6402,10.431,10.431,10.2514,10.05,10.0384,10.0816,10.1184,10.1481,10.1601,10.1601,10.1601,10.0312,9.8984,9.8984,9.832,9.7695,9.7695,9.7695,9.7695,9.7695,9.7695,9.7695,9.7695,9.6992,9.64,9.6137,9.5339,9.4697,9.4414,9.3842,9.3461,9.3461,9.112,9.015,9.1211,8.9648,8.832,8.75,8.664,8.5781,8.4883,8.4883,8.4453,8.3594,8.3594,8.3125,8.2304,8.2304,8.2304,8.9122,9.5076,9.9939,9.7851,9.4789,9.0966,8.5993,8.1122,7.6758,7.3713,7.3308,7.3544,7.3815,7.5506,7.7705,8.0209,8.1629,8.4094,8.8895,9.2908,9.7519,10.3573,11.2282,11.8408,11.9921,12.2007,12.2612,12.1006,12.0688,12.0085,11.8978,11.8801,11.8189,11.7006,11.637,11.6867,11.8278,11.7825,11.7819,11.8398,11.7598,11.7117,11.6805,11.5986,11.5689,11.5689,11.5993,11.609,11.6099,11.6593,11.6806,11.69,11.7186,11.709,11.6908,11.7192,11.6414,11.5102,11.4387,11.2692,11.0296,10.7806,10.642,10.5499,10.411,10.2617,10.1517,10.2486,10.3387,10.4017,10.3515,10.3398,10.3086,10.1914,10.1004,10.0187,9.9058,9.8412,9.7948,9.7324,9.7368,9.7497,9.7497,9.7609,9.7695,9.7695,9.737,9.7096,9.6982,9.6577,9.6273,9.6195,9.4932,9.3932,9.353,9.239,9.1831,9.2187,9.1094,8.9762,8.8167,8.7963,8.691,8.4726,8.5424,8.5351,8.4492,8.4492,8.4023,8.3203,8.3203,8.2851,8.2482,8.8613,9.3436,9.1305,8.8835,8.6027,8.2408,7.872,7.5337,7.2902,7.2766,7.3172,7.3443,7.5442,7.7693,7.9734,8.1494,8.4058,8.8285,9.2678,9.8415,10.64,11.4983,12.0533,12.1109,12.2908,12.3499,12.2095,12.2216,12.1683,12.0373,12.0192,11.9616,11.8498,11.7606,11.79,11.9283,11.8823,11.8831,11.9406,11.8611,11.81,11.7718,11.6876,11.6676,11.7007,11.7108,11.7211,0.0,11.749,11.739,11.72,11.7496,11.7594,11.7582,11.7883,11.7183,11.5784,11.5193,11.3281,11.0702,10.8184,10.7095,10.6695,10.5615,10.4494,10.3705,10.4501,10.5311,10.5604,10.4599,10.4393,10.3886,10.2211,10.1679,10.1217,9.9781,9.9093,9.8481,9.7664,9.7688,9.7758,9.7446,9.7559,9.7695,9.7695,9.7606,9.7493,9.7416,9.7253,9.7107,9.7021,9.5728,9.4729,9.4342,9.3114,9.2384,9.2447,9.1567,9.0508,8.9292,8.9132,8.8136,8.6086,8.6689,8.6434,8.5223,8.4949,8.437,8.3594,8.3594,8.3125,0.0,8.2987,8.782,8.6941,8.4776,8.2272,8.0073,7.6961,0.0,7.2631,7.236,7.2665,7.3477,7.5605,7.7489,7.8172,8.0968,8.4465,8.8529,9.396,10.078,10.9607,11.3794,11.6501,11.7714,12.1384,12.3814,12.3913,12.3076,12.2281,12.1488,12.0688,12.0296,12.0378,11.9488,11.9418,12.0293,12.0293,12.0308,12.0408,11.9485,11.8715,11.7907,11.699,11.7089,11.7881,11.829,11.842,11.832,11.8592,11.8214,11.7496,11.7813,11.7911,11.8004,11.8119,11.7695,11.6797,11.5781,11.3906,11.1601,10.9607,10.841,10.7883,10.8398,10.7689,10.6688,10.6583,10.6518,10.6215,10.5116,10.4697,10.4308,10.2616,10.2197,10.1904,10.0981,10.0105,9.9278,9.8452,9.8439,9.8324,9.7524,9.7559,9.7695,9.7695,9.7695,9.7609,9.7425,9.7363,9.7265,9.7039,9.6224,9.5719,9.5719,9.3471,9.2121,9.2276,9.1318,9.0729,9.0565,9.0054,8.9345,8.8477,8.8423,8.7612,8.5968,8.5118,8.4343,8.3672,8.3633,8.3125,6.9436,0.0,7.7435,7.4999,7.554,7.6115,0.0,7.3578,7.3341,7.1853,7.2022,7.2969,7.483,7.5879,7.7558,8.0817,8.3006,8.5691,8.9706,9.9264,10.8473,11.5588,12.0022,12.218,12.1291,12.4506,12.5987,12.4815,12.4571,12.4201,12.3294,12.2592,12.2205,12.2281,12.1425,12.1003,12.1307,12.1307,12.1304,12.1293,11.9792,11.9292,11.97,11.8411,11.829,11.9121,11.9481,11.9214,11.8604,11.8885,11.858,11.7813,11.8097,11.8197,11.808,11.7499,11.6797,11.5781,11.4297,11.3008,11.1718,11.0293,10.9809,10.9593,10.949,10.9405,10.9316,10.9,10.8492,10.7782,10.6818,10.6097,10.5213,10.3501,10.2898,10.2409,10.078,10.0202,9.9558,9.8232,9.8197,9.8151,9.751,9.7559,9.7695,9.7695,9.7561,9.744,9.7412,9.7227,9.7074,9.7021,9.6224,9.5719,9.5719,9.4542,9.3558,9.2993,9.271,9.1899,9.045,9.0391,8.9921,8.8861,8.8547,8.8193,8.7803,8.6464,8.5389,8.457,8.3906,8.3125,6.689,6.9939,7.2699,7.1109,7.1921,7.2868,7.2022,7.1887,7.1853,7.1413,7.1616,7.2563,7.4796,7.6474,7.8581,8.1688,8.5322,9.0172,9.7246,10.5605,11.3394,12.0007,12.3216,12.4908,12.5309,12.71,12.7813,12.6985,12.6606,12.5876,12.4689,12.3905,12.3101,12.2293,12.1793,12.16,12.16,12.1177,12.0793,12.0408,11.91,11.858,11.8815,11.8404,11.8795,11.9791,12.0487,12.028,11.9509,11.981,11.9187,11.8097,11.82,11.8281,11.8203,11.7812,11.6992,11.6093,11.4804,11.3511,11.2194,11.1984,11.1591,11.1204,11.1312,11.1192,11.0894,11.0291,10.9786,10.9087,10.7779,10.7114,10.6112,10.3807,10.3392,10.31,10.1492,10.1102,10.0708,9.9473,9.9113,9.8825,9.8139,9.7835,9.7655,9.7563,9.7487,9.7348,9.7233,9.7091,9.7012,9.7012,9.6476,9.6116,9.6116,9.5584,9.4822,9.3686,9.3141,9.239,9.1338,9.1139,9.0563,8.9617,8.8715,8.8248,8.8248,8.7134,8.6008,8.4883,8.4844,8.406,6.7218,6.9451,7.1481,7.0804,7.0872,7.1278,7.1785,7.1007,7.0398,7.1142,7.1514,7.2462,7.4954,7.7999,8.0906,8.318,8.8866,9.6612,10.691,11.1888,11.6786,12.3006,12.4888,12.6486,12.8381,12.8987,12.9275,12.9206,12.8409,12.7217,12.5486,12.4486,12.3293,12.1793,12.1485,12.1416,12.1507,12.0685,11.9908,11.91,11.8305,11.7714,11.7385,11.8113,11.9006,12.0087,12.1104,12.1093,12.0312,12.0618,11.9804,11.8281,11.8281,11.8281,11.8281,11.8203,11.7617,11.6914,11.6093,11.4587,11.3207,11.3792,11.3397,11.2705,11.3,11.26,11.198,11.0879,11.05,10.9985,10.8415,10.7702,10.6812,10.4101,10.3801,10.3806,10.2604,10.2188,10.1895,10.0998,10.0398,9.987,9.9072,9.8457,9.7957,9.7659,9.7549,9.7409,9.7039,9.6974,9.6993,9.711,9.6915,9.6735,9.6735,9.6596,9.591,9.4525,9.334,9.2556,9.2326,9.1747,9.1152,9.0521,8.9022,8.8304,8.8336,8.7541,8.6491,8.5232,8.5974,8.5446,6.9147,7.1379,7.2259,6.8436,6.8944,7.0229,6.9722,6.9891,7.0398,7.1142,7.2526,7.4705,7.8345,8.2034,8.5841,8.9789,9.6289,10.3901,11.2684,11.6322,11.9489,12.3414,12.7105,12.8699,12.7124,12.9588,13.0693,12.9294,12.8409,12.7217,12.5486,12.3909,12.2985,12.2716,12.1293,12.0615,12.0882,12.05,11.9908,11.91,11.8392,11.8499,11.9089,11.9113,11.9509,12.0395,12.0797,12.0505,11.9685,11.9804,11.9218,11.8281,11.8281,11.8281,11.8203,11.75,11.7109,11.6914,11.6015,11.5407,11.4807,11.4188,11.4216,11.419,11.2911,11.29,11.3005,11.141,11.0199,10.9414,10.9078,10.7605,10.6104,10.5616,10.4488,10.3488,10.3199,10.2586,10.1902,10.1288,10.1099,10.0794,10.0189,9.9776,9.9337,9.8621,9.8311,9.7866,9.709,9.6804,9.6941,9.7664,9.7517,9.736,9.736,9.7325,9.694,9.5994,9.44,9.2864,9.1479,9.1318,9.1261,9.1308,8.9867,8.9231,8.9452,8.8104,8.7213,8.6769,8.6886,8.6701,6.8098,6.9722,7.105,7.0915,7.2829,7.4556,7.3955,7.4087,7.4761,7.5979,7.7208,7.9241,8.3198,8.7631,9.3498,10.1902,10.6403,11.1109,11.7698,11.9586,12.1801,12.5619,12.7821,12.909,12.9298,13.041,13.0718,12.9987,12.8294,12.6717,12.5486,12.3793,12.2585,12.1808,12.1017,12.0281,11.9714,11.9493,11.9201,11.8907,11.8088,11.8087,11.8604,11.8995,11.9497,12.0016,12.0584,12.039,11.9609,11.9609,11.9101,11.8281,11.8281,11.8281,11.8281,11.789,11.7383,11.6992,11.7109,11.6618,11.5983,11.61,11.5588,11.4785,11.3901,11.3006,11.1983,11.1205,11.0597,11.0019,10.9087,10.8109,10.7121,10.6319,10.5211,10.4187,10.389,10.3084,10.2511,10.2199,10.1697,10.1314,10.1093,10.0502,9.9911,9.9261,9.9068,9.873,9.806,9.789,9.7953,9.8339,9.8264,9.8019,9.7557,9.7519,9.6749,9.5018,9.4134,9.2941,9.1287,9.121,9.1236,9.1354,9.0353,9.0107,9.0663,8.9658,8.8874,8.8286,8.8761,8.8382,6.7455,6.8888,7.0901,7.3827,7.5777,7.7449,7.9145,7.9387,7.9837,8.2195,8.3621,8.5371,8.8399,9.4152,10.1693,11.1825,11.5192,11.8103,12.2515,12.3293,12.4716,12.8409,12.8602,12.9294,13.1179,13.0679,12.9987,12.9602,12.7602,12.5909,12.4909,12.351,12.2114,12.0797,12.0684,12.0,11.8812,11.8588,11.8519,11.8403,11.7818,11.7716,11.7901,11.8712,11.9115,11.9297,12.0,11.9883,11.9297,11.9297,11.8906,11.8281,11.8281,11.8281,11.8281,11.8281,11.789,11.7383,11.8086,11.7714,11.7003,11.7506,11.652,11.4986,11.4806,11.3303,11.1502,11.1307,11.119,11.0792,10.9017,10.8498,10.8111,10.6988,10.5799,10.4801,10.4608,10.3711,10.289,10.289,10.2383,10.1914,10.1914,10.1092,10.0398,9.999,9.9773,9.9463,9.9017,9.8927,9.8972,9.9165,9.9133,9.875,9.7865,9.7442,9.6288,9.4134,9.398,9.3249,9.1556,9.171,9.1839,9.1864,9.1233,9.1218,9.1875,9.1402,9.0839,9.0149,9.0819,9.0396,6.9383,7.1696,7.3823,7.5019,7.3737,7.4391,8.2832,8.3644,8.3919,8.846,9.1437,9.3253,9.3487,10.1514,10.9608,11.4387,11.9823,12.4284,12.7101,12.8102,12.9294,13.1179,13.0794,13.041,13.0602,12.9794,12.8602,12.7101,12.6101,12.4793,12.3216,12.2486,12.1708,12.0797,12.03,11.9679,11.9114,11.8307,11.7795,11.7481,11.7678,11.7884,11.7901,11.8189,11.8398,11.8398,11.8515,11.8515,11.8398,11.8398,11.8398,11.8281,11.8281,11.8281,11.8281,11.8281,11.8281,11.8203,11.8281,11.8104,11.7682,11.7218,11.6297,11.5208,11.4715,11.3786,11.2888,11.2107,11.1794,11.1396,10.9403,10.8514,10.8006,10.789,10.6015,10.4492,10.5195,10.4101,10.289,10.289,10.2812,10.2812,10.2812,10.1887,10.108,10.1109,10.0192,9.9571,9.9541,9.9332,9.9464,10.0185,10.0102,9.9635,9.8788,9.7288,9.5942,9.498,9.4903,9.4134,9.2479,9.3133,9.3649,9.39,9.3062,9.2753,9.2988,9.2929,9.2809,9.256,9.2612,9.2857,6.9357,7.2209,7.5532,7.8727,7.9467,8.0948,8.6569,9.0186,9.3459,9.7281,10.0489,10.2999,10.3897,10.9806,11.5485,11.8692,12.3293,12.7409,12.991,13.0487,13.0794,13.091,13.0217,12.9717,12.9717,12.8486,12.7409,12.6678,12.56,12.4399,12.3202,12.2123,12.1197,12.0603,11.9803,11.9399,11.9396,11.8617,11.8409,11.8803,11.8292,11.8109,11.8187,11.8318,11.8281,11.8281,11.8281,11.8281,11.8281,11.8281,11.8281,11.8281,11.8281,11.8281,11.8281,11.8281,11.8281,11.8281,11.8281,11.8199,11.7996,11.7304,11.6285,11.5301,11.4101,11.3086,11.2109,11.0703,11.1093,11.1484,10.9598,10.9019,10.8711,10.8086,10.6914,10.5703,10.5508,10.4609,10.3515,10.3008,10.289,10.289,10.289,10.2105,10.1418,10.1206,10.091,10.0519,10.0378,10.0611,10.0908,10.1383,10.0482,9.9669,9.932,9.7562,9.6135,9.5285,9.508,9.448,9.3287,9.3518,9.3761,9.3852,9.3528,9.3647,9.4302,9.4302,9.4227,9.4183,9.4161,9.4001,6.9663,7.2394,7.6154,8.0476,8.3945,8.7651,9.2855,9.7354,10.1724,10.6306,10.8384,10.9917,11.1477,11.458,11.7984,12.11,12.5409,12.8986,13.0987,13.1102,13.0602,12.9794,12.8909,12.8294,12.7986,12.6986,12.612,12.5688,12.4692,12.3712,12.2682,12.1803,12.0912,11.9991,11.9805,11.9505,11.9218,11.8906,11.8906,11.9218,11.8593,11.8281,11.8281,11.8281,11.8281,11.8281,11.8281,11.8281,11.8281,11.8281,11.8281,11.8281,11.8281,11.8281,11.8281,11.8281,11.8281,11.8281,11.8281,11.8086,11.7812,11.7187,11.6211,11.5117,11.3593,11.2617,11.1601,11.0117,11.0586,11.1211,10.9687,10.9492,10.9414,10.8281,10.7109,10.6211,10.5586,10.4609,10.3594,10.3008,10.289,10.289,10.289,10.2187,10.1599,10.1681,10.1515,10.1414,10.151,10.1701,10.1917,10.1711,10.0398,9.9435,9.9108,9.7548,9.6353,9.5718,9.5504,9.5018,9.4134,9.4364,9.4518,9.4518,9.4518,9.4826,9.5403,9.5403,9.5403,9.5403,9.5134,9.4826,7.0665,7.2684,7.5726,7.9779,8.5885,9.3215,10.2101,10.4904,10.7672,11.5092,11.4602,11.3305,11.4905,11.5316,11.6676,12.0908,12.5909,12.9487,13.041,12.9717,12.8909,12.8025,12.7217,12.6294,12.5486,12.537,12.4779,12.3391,12.3311,12.2698,12.131,12.1499,12.0894,11.9216,12.0298,12.0117,11.8281,11.9218,11.9218,11.8281,11.8281,11.8281,11.8281,11.8281,11.8281,11.8281,11.8281,11.8281,11.8281,11.8281,11.8281,11.8281,11.8281,11.8281,11.8281,11.8281,11.8281,11.8281,11.8281,11.7695,11.6992,11.6992,11.5898,11.4297,11.3515,11.2617,11.1718,11.0781,11.0586,11.039,10.9492,10.9883,11.0195,10.8398,10.6719,10.5508,10.5508,10.4101,10.289,10.289,10.289,10.289,10.289,10.2187,10.1914,10.2695,10.2109,10.1914,10.2812,10.2702,10.2113,10.0893,10.0086,9.913,9.801,9.7092,9.6506,9.6325,9.6326,9.5903,9.5057,9.5826,9.6288,9.6288,9.6288,9.6288,9.6288,9.6288,9.6288,9.6288,9.5403,9.548,7.4134,7.7218,8.1613,8.6397,9.2549,9.9516,10.7588,11.0115,11.2819,12.03,12.1213,12.0323,11.8979,12.029,12.1485,12.16,12.4909,12.7717,12.8602,12.8409,12.7794,12.6294,12.5409,12.4881,12.4787,12.4325,12.3796,12.3721,12.3286,12.2609,12.1593,12.069,11.9989,11.9482,11.9217,11.9101,11.9218,11.8906,11.8906,11.9218,11.8593,11.8281,11.8281,11.8281,11.8281,11.8281,11.8281,11.8281,11.8281,11.8281,11.8281,11.8281,11.8281,11.8281,11.8281,11.8281,11.8281,11.8203,11.7617,11.7187,11.6797,11.5586,11.4883,11.4218,11.2695,11.2109,11.1601,11.0117,11.0117,11.0312,10.8789,10.8984,10.9414,10.8281,10.7187,10.6211,10.5586,10.4609,10.3594,10.3008,10.289,10.2695,10.2109,10.1797,10.1484,10.1094,10.1406,10.1794,10.2498,10.2712,10.2314,10.1216,10.0307,9.9436,9.8556,9.7332,9.6841,9.738,9.7238,9.6788,9.5942,9.6172,9.6288,9.6288,9.6288,9.6288,9.6288,9.6288,9.6288,9.6288,9.6019,9.6057,7.8542,8.1955,8.6395,9.2443,9.8386,10.4883,11.3187,11.68,12.0006,12.5874,12.5794,12.4409,12.3485,12.3216,12.3216,12.3601,12.5101,12.6486,12.7294,12.6794,12.5909,12.4601,12.4001,12.3702,12.3585,12.3503,12.3411,12.2991,12.2708,12.2015,12.0892,12.0111,11.9414,11.9101,11.8906,11.8906,11.9101,11.8906,11.8906,11.9101,11.8203,11.7812,11.7812,11.8086,11.8281,11.8281,11.8281,11.8281,11.8281,11.8281,11.8281,11.8281,11.8281,11.8281,11.8281,11.8281,11.8086,11.7695,11.7187,11.6601,11.5781,11.4804,11.4297,11.3711,11.2304,11.1914,11.1484,10.9804,10.9687,10.9804,10.8398,10.8398,10.8711,10.8086,10.7109,10.6093,10.5586,10.4492,10.3515,10.3008,10.289,10.2695,10.2187,10.2109,10.1914,10.1406,10.1797,10.2185,10.2587,10.2806,10.2298,10.0816,10.049,9.9863,9.8501,9.7906,9.7794,9.8245,9.8107,9.7788,9.7326,9.698,9.6634,9.6326,9.6288,9.6288,9.6288,9.6288,9.6288,9.6288,9.6288,9.6288,8.3451,8.6621,9.0559,9.8128,10.41,11.029,11.8777,12.3793,12.7602,13.0602,12.8409,12.6409,12.7794,12.4909,12.3178,12.6101,12.5909,12.5486,12.6101,12.488,12.3594,12.2786,12.2991,12.2915,12.2113,12.2985,12.3117,12.1686,12.158,12.1006,11.9687,11.9492,11.9101,11.8281,11.9101,11.9101,11.8281,11.8984,11.8984,11.8203,11.7304,11.6914,11.6914,11.7695,11.8086,11.8086,11.8086,11.8203,11.8203,11.8281,11.8281,11.8203,11.8203,11.8086,11.8086,11.8086,11.7617,11.6914,11.6797,11.5781,11.4492,11.4414,11.3789,11.3008,11.2187,11.1797,11.1406,10.9804,10.9218,10.8984,10.8203,10.8008,10.8008,10.789,10.6719,10.5508,10.5508,10.4101,10.289,10.289,10.289,10.289,10.289,10.289,10.289,10.289,10.289,10.289,10.289,10.289,10.21,10.0196,10.0704,10.0317,9.8179,9.8714,9.9072,9.8942,9.8904,9.8904,9.8904,9.8019,9.7173,9.6442,9.6326,9.6288,9.6288,9.6288,9.6288,9.6288,9.6288,9.6306,8.6503,9.0448,9.5837,10.4577,11.2582,11.9406,12.3385,12.5486,12.6909,12.7602,12.9102,13.0102,12.9102,12.8217,12.7217,12.5909,12.4909,12.3985,12.2908,12.2615,12.2217,12.1405,12.2085,12.2411,12.1809,12.1983,12.1887,12.1085,12.0385,11.9919,11.9609,11.8984,11.8515,11.8281,11.8515,11.8515,11.8281,11.7812,11.75,11.7304,11.6406,11.6015,11.6015,11.6211,11.6289,11.6406,11.6992,11.7304,11.7304,11.8008,11.789,11.7304,11.7304,11.6914,11.6289,11.6289,11.6211,11.5898,11.5312,11.4804,11.4414,11.3711,11.3398,11.3008,11.2187,11.1406,11.0703,10.9609,10.8789,10.8203,10.8008,10.8008,10.7812,10.7109,10.6211,10.5508,10.5508,10.4101,10.289,10.289,10.289,10.289,10.289,10.289,10.289,10.289,10.289,10.289,10.289,10.2714,10.2195,10.0997,10.0806,10.0199,9.9028,9.8913,9.9131,9.9769,9.9827,9.9827,9.9827,9.8327,9.7403,9.725,9.6634,9.6288,9.6288,9.6288,9.6288,9.6288,9.6288,9.6369,9.0294,9.5743,10.2308,11.2017,11.8292,12.2716,12.4409,12.5794,12.6909,12.7717,12.9294,13.041,12.991,12.8794,12.7602,12.6217,12.4409,12.2808,12.1882,12.1392,12.0888,12.05,12.1084,12.1413,12.1083,12.1189,12.0999,12.0312,11.9883,11.9414,11.8984,11.8515,11.8281,11.8281,11.8281,11.8086,11.7695,11.7187,11.6797,11.6406,11.5508,11.4883,11.4492,11.5312,11.5703,11.5781,11.6718,11.6797,11.6406,11.7304,11.7187,11.6406,11.6406,11.6093,11.5703,11.5781,11.5508,11.5117,11.4609,11.4218,11.3789,11.3281,11.3203,11.3008,11.2187,11.1601,11.1015,10.9687,10.8984,10.8515,10.8086,10.8008,10.7812,10.6914,10.6093,10.539,10.5,10.3789,10.289,10.289,10.3203,10.3515,10.3515,10.3515,10.3515,10.3515,10.3203,10.289,10.289,10.2699,10.2103,10.1086,10.1006,10.0697,9.9702,9.9861,10.0212,10.0596,10.0781,10.0904,10.0904,9.9375,9.8199,9.7519,9.7096,9.6673,9.6288,9.6288,9.6288,9.6288,9.6403,9.6267,9.278,10.0495,10.879,11.7984,12.16,12.3216,12.4101,12.5293,12.6794,12.8602,12.9102,12.941,12.991,12.8314,12.6614,12.5998,12.359,12.1808,12.1498,12.0484,11.992,11.992,12.0211,12.0386,12.0308,12.0495,12.0312,11.9414,11.9414,11.9101,11.8281,11.8281,11.8281,11.8281,11.8203,11.7695,11.6992,11.6601,11.6015,11.5312,11.4492,11.3789,11.3203,11.4609,11.5312,11.539,11.6211,11.6211,11.5586,11.6406,11.6289,11.5586,11.5508,11.539,11.5312,11.5508,11.5117,11.4492,11.4492,11.3984,11.3398,11.3203,11.3086,11.2812,11.1914,11.1601,11.1093,10.9492,10.9101,10.8906,10.8203,10.8008,10.7695,10.6719,10.6015,10.5312,10.4414,10.3515,10.289,10.3086,10.3906,10.4609,10.4414,10.4492,10.4609,10.4414,10.3711,10.3086,10.3086,10.269,10.212,10.1087,10.1401,10.1297,10.0404,10.0981,10.1422,10.1422,10.1618,10.18,10.18,10.0507,9.9199,9.7903,9.7577,9.7063,9.6338,9.6338,9.6338,9.6338,9.6521,9.6269,8.9995,10.1826,11.3984,11.8985,12.16,12.3293,12.4909,12.4793,12.5101,12.7602,12.8717,12.8986,12.8409,12.7594,12.6085,12.3106,12.1906,12.0794,11.9317,11.921,11.9309,11.9309,12.0203,12.0506,11.9802,11.9687,11.9414,11.8515,11.8515,11.8398,11.8281,11.8281,11.8281,11.8281,11.7617,11.7109,11.6992,11.4804,11.3711,11.3515,11.2695,11.2617,11.3203,11.3398,11.3515,11.3593,11.4492,11.4804,11.4687,11.5586,11.5508,11.4687,11.4687,11.4218,11.3593,11.4414,11.4609,11.4492,11.4492,11.4414,11.4218,11.3398,11.2695,11.1914,11.1015,11.0195,10.9414,10.8515,10.8203,10.8086,10.8008,10.8008,10.7617,10.6015,10.5586,10.5312,10.4414,10.3515,10.3086,10.3906,10.5312,10.6093,10.539,10.5898,10.6093,10.539,10.4609,10.3984,10.3984,10.2894,10.2109,10.1886,10.1587,10.1289,10.1212,10.1478,10.1611,10.1611,10.1891,10.2021,10.2021,10.1117,10.0203,9.9363,9.7836,9.6897,9.6556,9.6556,9.6556,9.6556,9.6599,9.6782,9.5967,10.5492,11.4099,12.0216,12.16,12.1985,12.4216,12.3985,12.3985,12.6101,12.6794,12.7101,12.7217,12.5612,12.3778,12.2191,12.0899,11.979,11.9011,11.878,11.869,11.869,11.9098,11.9297,11.8906,11.8906,11.8711,11.8281,11.8281,11.8281,11.8281,11.8281,11.8086,11.7617,11.7187,11.6289,11.4883,11.3619,11.2509,11.1491,11.1608,11.2018,11.25,11.3008,11.3203,11.3203,11.4101,11.4218,11.3789,11.4687,11.4609,11.3789,11.3789,11.3515,11.3203,11.3593,11.3789,11.3789,11.3789,11.3789,11.3711,11.3281,11.2617,11.1718,11.0898,11.0,10.9101,10.8203,10.8008,10.8008,10.8008,10.8008,10.7617,10.5898,10.5781,10.5781,10.4492,10.3906,10.3984,10.5312,10.6601,10.7304,10.6992,10.7187,10.6992,10.5703,10.4804,10.3984,10.3515,10.2683,10.211,10.211,10.1811,10.1495,10.1495,10.18,10.1876,10.1876,10.2184,10.21,10.1593,10.0899,10.0079,9.9263,9.8268,9.7421,9.6827,9.6827,9.6827,9.6838,9.6993,9.6926,9.8708,10.529,11.0521,11.8292,11.9985,12.0415,12.3208,12.341,12.3302,12.4926,12.4988,12.4909,12.5293,12.372,12.2075,12.1494,11.9987,11.8917,11.8683,11.8382,11.8196,11.8196,11.8085,11.8086,11.8281,11.8086,11.8086,11.8281,11.8281,11.8281,11.8281,11.8086,11.7695,11.6992,11.6286,11.4993,11.3118,11.2184,11.0999,10.951,11.0408,11.1208,11.1914,11.2304,11.2812,11.3203,11.3906,11.3789,11.3281,11.3906,11.3789,11.3203,11.3203,11.3203,11.3281,11.3711,11.3711,11.3593,11.3789,11.3711,11.3515,11.3281,11.25,11.1406,11.0781,10.9804,10.8906,10.8515,10.8281,10.8281,10.8281,10.8281,10.789,10.6211,10.6289,10.6289,10.4804,10.4687,10.5195,10.6484,10.7617,10.8281,10.8008,10.8203,10.7812,10.6093,10.5117,10.4219,10.3281,10.2592,10.2201,10.2201,10.2,10.1802,10.1802,10.2021,10.2084,10.189,10.2298,10.2094,10.1,10.05,9.9883,9.9023,9.8422,9.7808,9.7099,9.7099,9.7099,9.7107,9.7322,9.7073,9.216,9.7442,10.2712,11.1098,11.5599,11.891,12.2507,12.3117,12.3186,12.4402,12.3791,12.2793,12.1985,12.2621,12.2402,12.0001,11.9096,11.8398,11.762,11.7717,11.7906,11.7906,11.7406,11.7383,11.8203,11.7617,11.7383,11.8203,11.8281,11.8281,11.8281,11.75,11.6992,11.6992,11.4417,11.2998,11.2803,11.0091,10.8407,10.772,10.8612,10.9998,11.1914,11.1093,11.1601,11.3203,11.3203,11.3203,11.3203,11.3203,11.3203,11.3203,11.3203,11.3203,11.3398,11.5117,11.5117,11.4492,11.5312,11.5117,11.4297,11.3515,11.2109,11.0703,11.0586,10.9414,10.8203,10.8984,10.9218,10.9218,10.9218,10.9218,10.8789,10.7109,10.6719,10.6484,10.5586,10.6015,10.6601,10.6719,10.8086,10.8984,10.8086,10.8711,10.8593,10.6914,10.5898,10.5117,10.4219,10.3204,10.2509,10.2509,10.2195,10.209,10.209,10.2295,10.2119,10.1294,10.2287,10.2109,10.039,10.0312,9.9883,9.9023,9.8163,9.76,9.7358,9.7358,9.7358,9.7358,9.7407,9.7461,9.0636,9.4826,9.9442,10.679,11.1214,11.4596,11.7707,11.9896,12.1375,12.1984,12.2114,12.1793,12.0908,12.0785,12.0389,11.8879,11.8188,11.7792,11.7403,11.7702,11.7895,11.7895,11.7911,11.7695,11.75,11.7187,11.6914,11.6601,11.6601,11.6598,11.6405,11.6089,11.532,11.4016,11.3007,11.1296,10.8988,10.7498,10.6721,10.6498,10.81,10.9686,11.1093,11.1289,11.1797,11.2383,11.3008,11.3203,11.3203,11.3203,11.3203,11.3203,11.3203,11.3203,11.3281,11.3906,11.3906,11.3711,11.3984,11.3906,11.3593,11.3281,11.1992,11.0586,11.0586,10.9414,10.8203,10.9101,10.9297,10.9414,11.0,10.9687,10.8984,10.7812,10.7109,10.6797,10.6992,10.6914,10.6914,10.7383,10.8906,10.9687,10.8203,10.9218,10.9414,10.6992,10.6015,10.5195,10.4297,10.3209,10.2519,10.2519,10.2392,10.24,10.24,10.2601,10.2605,10.2293,10.2694,10.2383,10.1211,10.1094,10.0508,9.9023,9.8672,9.8201,9.7606,9.7606,9.7606,9.7606,9.7606,9.7612,8.8171,9.1364,9.5518,10.2904,10.6213,10.9088,11.4513,11.6807,11.82,11.999,12.0609,12.06,11.9985,11.9098,11.8411,11.8102,11.7479,11.7094,11.718,11.7508,11.7793,11.789,11.7599,11.7304,11.6992,11.6484,11.6015,11.5703,11.5581,11.5516,11.5291,11.4693,11.3083,11.052,11.0508,10.8996,10.5991,10.58,10.5882,10.6091,10.7704,10.9096,11.0195,11.0781,11.1211,11.1484,11.2383,11.2812,11.2812,11.2812,11.289,11.3203,11.289,11.289,11.3203,11.3515,11.3515,11.3203,11.3515,11.3398,11.3203,11.3203,11.2187,11.1015,11.1015,11.0,10.9101,10.9883,11.0195,11.0312,11.0898,11.039,10.9492,10.8593,10.8203,10.8086,10.8398,10.8008,10.7695,10.8281,10.9804,11.0508,10.8711,10.9609,10.9687,10.7109,10.6015,10.5195,10.4297,10.3304,10.2611,10.2611,10.2611,10.2611,10.2611,10.2806,10.2812,10.25,10.2695,10.2383,10.1211,10.1406,10.0898,9.9453,9.914,9.8711,9.8125,9.7851,9.7695,9.7695,9.7695,9.7695,0.0,0.0,0.0,9.8865,10.0404,10.2615,11.2904,11.3777,11.3692,11.84,11.9085,11.8908,11.8985,11.76,11.6676,11.7584,11.7007,11.6624,11.6891,11.7192,11.7508,11.7917,11.6584,11.6093,11.6797,11.539,11.4804,11.5507,11.5308,11.5202,11.5197,11.3299,11.0496,10.692,10.6804,10.5991,10.431,10.51,10.5804,10.6388,10.7207,10.8202,10.9297,10.9297,10.9804,11.0586,11.1484,11.1914,11.1914,11.1914,11.2383,11.3086,11.2304,11.25,11.3281,11.4101,11.3906,11.3281,11.4218,11.3906,11.3203,11.3203,11.2617,11.1914,11.1914,11.1289,11.0781,11.1718,11.1914,11.1914,11.1914,11.1289,11.039,10.9492,11.0,11.039,10.9492,10.9414,10.9414,10.9297,11.0703,11.1289,10.9609,11.0,10.9687,10.7109,10.6015,10.5195,10.4297,10.3515,10.289,10.289,10.289,10.289,10.289,10.289,10.25,10.1719,10.2383,10.2109,10.039,10.1211,10.1211,10.0312,9.9453,9.9023,9.8945,9.8125,9.7695,9.7695,9.7695,9.7695,8.3824,0.0,0.0,0.0,0.0,0.0,10.2615,10.5125,10.799,11.3794,11.4183,11.4522,11.76,11.6792,11.5807,11.6189,11.5393,11.5005,11.5885,11.6312,11.6894,11.78,11.7208,11.6289,11.5312,11.4218,11.3003,11.1791,11.2184,11.2407,11.1896,11.0614,10.8778,10.6603,10.6089,10.5395,10.431,10.5495,10.6182,10.6388,10.7396,10.8708,11.0195,10.9609,10.9804,11.0586,11.0898,11.1015,11.1093,11.2304,11.2617,11.2304,11.2695,11.3008,11.3203,11.3515,11.3398,11.3203,11.3515,11.3008,11.2383,11.3008,11.2187,11.1093,11.1718,11.1289,11.0781,11.1718,11.1914,11.1914,11.1914,11.1718,11.1289,11.039,11.039,11.0508,11.0312,11.0703,11.1015,11.039,11.1093,11.1289,10.9609,11.0,10.9883,10.789,10.6406,10.539,10.5195,10.3789,10.289,10.289,10.289,10.289,10.289,10.289,10.2812,10.2617,10.2187,10.1992,10.2187,10.1797,10.1211,10.0312,10.0117,9.9336,9.8047,9.7812,9.7695,9.7695,9.7695,9.7695,8.3708,8.544,8.794,9.021,0.0,0.0,9.9349,10.0915,10.3079,10.9605,11.04,11.0906,11.4022,11.3597,11.2985,11.3502,11.3,11.3286,11.5315,11.5579,11.5921,11.6707,11.6087,11.5086,11.3719,11.2509,11.1115,10.9614,10.991,10.9886,10.9406,10.8819,10.77,10.6099,10.568,10.5397,10.521,10.5987,10.661,10.7117,10.7692,10.8515,10.9492,10.9414,10.9414,10.9609,11.0312,11.0195,10.9687,11.1406,11.1992,11.1992,11.25,11.2695,11.2695,11.3086,11.3203,11.3086,11.2812,11.2304,11.1914,11.2109,11.1718,11.1211,11.1718,11.1797,11.1797,11.2304,11.2383,11.2383,11.2383,11.2383,11.2187,11.1289,11.1406,11.1601,11.1211,11.1797,11.2187,11.1289,11.1797,11.1914,11.0117,11.0312,11.0,10.8281,10.6601,10.5508,10.5508,10.3984,10.289,10.289,10.289,10.289,10.289,10.289,10.2695,10.2383,10.1914,10.1719,10.1797,10.1289,10.0781,10.0312,9.9922,9.9062,9.7695,9.7695,9.7695,9.7695,9.7695,9.7695,8.4055,8.5747,8.8556,9.221,9.1018,0.0,9.9327,9.8904,9.8673,10.5213,10.6597,10.7098,10.8983,10.901,10.8879,10.9485,10.9988,11.1402,11.4698,11.4878,11.482,11.52,11.4213,11.3094,11.2093,11.0497,10.9086,10.8082,10.7996,10.7822,10.758,10.7698,10.7084,10.5496,10.5715,10.5888,10.6388,10.648,10.7114,10.8008,10.8008,10.8086,10.8203,10.8789,10.8789,10.8203,10.9687,10.9492,10.8281,10.9804,11.0898,11.1601,11.1718,11.1797,11.1992,11.2812,11.3086,11.289,11.2187,11.1797,11.1484,11.0898,11.1211,11.1797,11.1992,11.2617,11.3203,11.3203,11.3203,11.3203,11.3203,11.3203,11.3008,11.2187,11.2617,11.3008,11.2187,11.2617,11.2812,11.2109,11.25,11.25,11.0781,11.0508,10.9883,10.8203,10.6601,10.5508,10.5508,10.3984,10.289,10.289,10.289,10.289,10.289,10.289,10.25,10.1719,10.1484,10.1094,10.0312,10.0195,10.0195,10.0195,9.9297,9.8476,9.7695,9.7695,9.7695,9.7695,9.7695,9.7695,8.5478,8.7478,8.944,8.9633,9.021,0.0,9.2133,9.2402,9.3787,9.8519,9.9481,10.0404,10.3482,10.46,10.4594,10.3699,10.6417,10.978,11.3398,11.3696,11.3914,11.4898,11.3486,11.2015,11.0419,10.8707,10.7016,10.5189,10.6108,10.6698,10.6713,10.7484,10.7182,10.5588,10.6605,10.6911,10.6388,10.7284,10.7811,10.8008,10.8008,10.8398,10.8984,10.8515,10.8515,10.8984,10.8711,10.8711,10.9101,10.9414,10.9687,10.9883,11.0586,11.1289,11.1914,11.2109,11.2187,11.2109,11.1992,11.1015,11.0,11.1211,11.1289,11.1093,11.25,11.3086,11.3203,11.3203,11.3203,11.3203,11.3203,11.3203,11.3203,11.3008,11.3086,11.3203,11.3008,11.25,11.2109,11.1914,11.1992,11.1601,10.9883,10.9609,10.9218,10.8203,10.6601,10.5508,10.5508,10.3984,10.289,10.289,10.289,10.289,10.289,10.289,10.25,10.1719,10.0898,10.0508,10.0312,9.9648,9.9258,9.9258,9.8398,9.7851,9.7695,9.7695,9.7695,9.7695,9.7695,9.7695,8.6978,8.8286,9.0017,9.0479,9.0556,0.0,0.0,9.1787,9.2172,9.5557,9.5903,9.6249,9.8404,9.9278,9.9861,10.0412,10.3022,10.5715,10.8,11.0799,11.26,11.2685,11.1924,11.0391,10.83,10.6905,10.5395,10.3619,10.4523,10.5409,10.5883,10.6879,10.7181,10.6585,10.7196,10.7508,10.7203,10.7693,10.8008,10.8008,10.8008,10.8203,10.8593,10.8203,10.8203,10.8593,10.8203,10.8008,10.8008,10.8515,10.8398,10.8203,10.9883,11.0898,11.1289,11.1718,11.1792,11.1699,11.1405,11.0307,10.9197,10.9803,11.0195,11.0781,11.1601,11.25,11.3281,11.3711,11.3515,11.3203,11.3203,11.3203,11.3203,11.3203,11.3203,11.3086,11.2617,11.2187,11.1601,11.0781,11.0586,11.0312,10.9492,10.9297,10.8984,10.8086,10.6914,10.6015,10.5586,10.4414,10.3398,10.289,10.289,10.289,10.289,10.289,10.2304,10.1015,10.0508,9.9922,9.9023,9.8594,9.8359,9.8359,9.7929,9.7695,9.7695,9.7695,9.7695,9.7695,9.7695,9.7695,8.9479,9.0325,9.2056,9.2787,9.2402,9.2287,0.0,0.0,0.0,9.3941,9.3826,9.3595,9.3941,9.4319,9.51,9.6662,9.9033,10.0798,10.1394,10.6215,10.9488,10.9101,10.8916,10.7905,10.5905,10.4597,10.3482,10.2404,10.3002,10.4013,10.5186,10.63,10.7194,10.7587,10.7695,10.7781,10.8008,10.8008,10.8008,10.8008,10.8008,10.8008,10.8008,10.7812,10.7812,10.8008,10.7695,10.7187,10.6719,10.7304,10.7109,10.6719,10.9101,11.0195,11.039,11.1093,11.1317,11.1003,11.0504,10.9596,10.8699,10.8512,10.9804,11.1406,11.1406,11.2383,11.3789,11.4492,11.4101,11.3515,11.3515,11.3281,11.3203,11.3203,11.3086,11.2812,11.2109,11.1601,11.1015,10.9609,10.9218,10.8984,10.8984,10.8984,10.8789,10.8086,10.7304,10.6406,10.5586,10.4687,10.3906,10.3008,10.289,10.289,10.289,10.2695,10.1992,10.039,10.0117,9.9336,9.7773,9.7695,9.7695,9.7695,9.7695,9.7695,9.7695,9.7695,9.7695,9.7695,9.7695,9.7695,9.4441,9.648,9.825,9.5403,9.6826,9.7673,9.2749,0.0,9.4018,9.2056,0.0,9.2172,9.0748,0.0,0.0,8.9079,9.3337,9.6687,9.6012,9.9093,10.2001,10.331,10.3483,10.3289,10.3097,10.0904,10.0096,10.1404,10.1821,10.2716,10.431,10.641,10.752,10.7593,10.7794,10.8007,10.8008,10.8008,10.8008,10.8008,10.8008,10.8008,10.8008,10.7187,10.7304,10.789,10.6406,10.6093,10.6719,10.6015,10.5703,10.5781,10.7617,10.8789,10.9492,10.9609,10.9609,10.9491,10.9492,10.8906,10.8319,10.9804,11.1992,11.4101,11.4101,11.4687,11.539,11.5586,11.5,11.4414,11.4414,11.3789,11.3203,11.3203,11.2617,11.1992,11.1914,11.0703,10.9492,10.9297,10.8711,10.8086,10.8086,10.8086,10.8086,10.8008,10.7304,10.6406,10.5586,10.4687,10.3906,10.3008,10.289,10.289,10.289,10.2187,10.1289,10.039,9.957,9.8711,9.7734,9.7695,9.7695,9.7695,9.7695,9.7695,9.7695,9.7695,9.7695,9.7695,9.7695,9.7695,9.6134,9.7134,9.825,9.6788,9.7173,9.725,9.4749,9.421,9.3941,9.2864,0.0,0.0,0.0,0.0,0.0,0.0,9.171,9.321,9.2864,9.4018,9.6288,9.9942,9.9942,9.9635,9.9635,9.8673,9.8592,9.9972,10.0604,10.1777,10.3909,10.5806,10.7118,10.7794,10.7888,10.8008,10.8008,10.8008,10.8008,10.8008,10.8008,10.8008,10.8008,10.7109,10.6914,10.7187,10.6015,10.539,10.5312,10.539,10.5195,10.4883,10.6093,10.7383,10.8515,10.8515,10.8782,10.9112,10.9217,10.8587,10.8096,10.9998,11.1718,11.3281,11.4687,11.5117,11.5117,11.5586,11.5117,11.4414,11.3906,11.3515,11.3086,11.2617,11.2187,11.1601,11.0586,10.9804,10.9218,10.8593,10.8281,10.8008,10.8008,10.8008,10.8008,10.8008,10.7695,10.7109,10.6289,10.5508,10.4609,10.3711,10.3203,10.2695,10.2187,10.1797,10.1015,9.9648,9.8711,9.8086,9.7734,9.7695,9.7695,9.7695,9.7695,9.7695,9.7695,9.7695,9.7695,9.7695,9.7695,9.7695,9.8673,9.8981,9.9596,9.8211,9.775,9.7365,9.6211,9.5672,9.5172,9.4249,9.3441,0.0,0.0,0.0,8.9363,9.0364,0.0,9.0441,9.021,8.994,9.1364,9.5518,9.6095,9.6326,9.6788,9.6435,9.695,9.8714,9.9087,10.0582,10.3602,10.5205,10.6693,10.8007,10.8008,10.8008,10.8008,10.8008,10.8008,10.8008,10.8008,10.789,10.7617,10.6797,10.6406,10.6289,10.5195,10.4609,10.4219,10.4609,10.4414,10.3906,10.4492,10.5703,10.6992,10.75,10.8115,10.8706,10.8903,10.87,10.8706,11.0388,11.1718,11.3008,11.5117,11.5508,11.539,11.6211,11.5703,11.4687,11.4101,11.3593,11.3008,11.2109,11.1718,11.1211,10.9883,10.9492,10.9101,10.8515,10.8398,10.8281,10.8008,10.8008,10.8008,10.8008,10.8008,10.7695,10.6797,10.6015,10.5195,10.4297,10.3398,10.2617,10.1992,10.1484,10.0508,9.875,9.8047,9.7695,9.7695,9.7695,9.7695,9.7695,9.7695,9.7695,9.7695,9.7695,9.7695,9.7695,9.7695,9.7695,10.352,10.4212,10.4905,9.9981,9.9942,10.0096,9.598,9.7557,9.8942,9.5652,0.0,9.6326,9.3056,0.0,0.0,0.0,8.8786,0.0,0.0,8.6786,8.694,8.8786,9.1171,9.3287,9.4903,9.381,9.434,9.7697,9.6888,9.8456,10.3495,10.4908,10.6289,10.789,10.8008,10.8008,10.8008,10.8008,10.8008,10.8008,10.8008,10.7617,10.6719,10.5898,10.5508,10.539,10.3711,10.3398,10.4101,10.3281,10.3008,10.289,10.3008,10.3515,10.4492,10.6093,10.7304,10.8007,10.8008,10.9101,11.0703,11.1601,11.3008,11.4609,11.539,11.6289,11.7109,11.8008,11.6992,11.5781,11.5703,11.4492,11.3008,11.2109,11.1289,11.0586,11.0586,10.9883,10.9297,10.9297,10.9297,10.8984,10.8086,10.8008,10.8008,10.8008,10.8008,10.7695,10.6797,10.6015,10.5195,10.4297,10.3398,10.289,10.289,10.1289,9.9609,9.7851,9.7734,9.7695,9.7695,9.7695,9.7695,9.7695,9.7695,9.7695,9.7695,9.7695,9.7695,9.7695,9.7695,9.7695,10.6521,10.7405,10.7713,10.2597,10.2212,10.1789,9.6942,9.8057,9.9288,9.6442,0.0,0.0,0.0,0.0,0.0,0.0,0.0,8.8402,0.0,8.5209,8.4247,8.5978,8.794,8.9363,8.9902,9.0141,9.154,9.4568,9.4524,9.6195,10.0416,10.3201,10.5113,10.609,10.7299,10.7885,10.7691,10.7885,10.8008,10.8008,10.8008,10.75,10.6719,10.5898,10.5195,10.4609,10.3398,10.3086,10.3281,10.3008,10.289,10.289,10.289,10.3398,10.4297,10.4804,10.5898,10.7304,10.8515,11.0,11.1484,11.1797,11.2695,11.3789,11.4609,11.5508,11.6211,11.6484,11.6211,11.5703,11.5117,11.3593,11.2109,11.1211,11.039,10.9609,10.8984,10.8593,10.8398,10.8398,10.8398,10.8281,10.8086,10.8008,10.8008,10.8008,10.75,10.6992,10.6719,10.5508,10.4492,10.4219,10.3398,10.2383,10.1289,9.957,9.832,9.7734,9.7695,9.7695,9.7695,9.7695,9.7695,9.7695,9.7695,9.7695,9.7695,9.7695,9.7695,9.7695,9.7695,9.7695,10.8983,10.9598,10.9598,10.5097,10.4405,10.352,9.875,9.9421,10.022,9.6994,0.0,0.0,0.0,0.0,0.0,0.0,0.0,0.0,0.0,8.3439,8.2309,8.3524,8.5105,8.6493,8.7418,8.773,8.8856,9.1318,9.1978,9.3966,9.789,10.1283,10.3808,10.5192,10.7206,10.8104,10.7691,10.8198,10.8203,10.75,10.75,10.6914,10.5781,10.5312,10.4609,10.3711,10.3086,10.289,10.289,10.289,10.289,10.289,10.289,10.3203,10.3789,10.4101,10.5508,10.7383,10.9218,11.0703,11.1992,11.2304,11.2695,11.3398,11.4218,11.4883,11.539,11.6015,11.5781,11.5312,11.5,11.3398,11.1718,11.0781,10.9883,10.9101,10.8593,10.8515,10.8515,10.8515,10.8515,10.8398,10.8086,10.8008,10.8008,10.8008,10.7304,10.6719,10.6719,10.5195,10.4219,10.4219,10.3086,10.1719,10.0,9.8828,9.8047,9.7734,9.7695,9.7695,9.7695,9.7695,9.8281,9.9531,9.8633,9.8633,9.9531,9.8633,9.8008,9.7695,9.7695,9.7695]}]]